<?xml version="1.0" encoding="UTF-8" standalone="no" ?><gpx xmlns="http://www.topografix.com/GPX/1/1" xmlns:gpxx="http://www.garmin.com/xmlschemas/GpxExtensions/v3" xmlns:wptx1="http://www.garmin.com/xmlschemas/WaypointExtension/v1" xmlns:gpxtpx="http://www.garmin.com/xmlschemas/TrackPointExtension/v1" creator="GuideVTT.com" version="1.1" xmlns:xsi="http://www.w3.org/2001/XMLSchema-instance" xsi:schemaLocation="http://www.topografix.com/GPX/1/1 http://www.topografix.com/GPX/1/1/gpx.xsd http://www.garmin.com/xmlschemas/GpxExtensions/v3 http://www8.garmin.com/xmlschemas/GpxExtensionsv3.xsd http://www.garmin.com/xmlschemas/WaypointExtension/v1 http://www8.garmin.com/xmlschemas/WaypointExtensionv1.xsd http://www.garmin.com/xmlschemas/TrackPointExtension/v1 http://www.garmin.com/xmlschemas/TrackPointExtensionv1.xsd">
<metadata><link href="http://www.garmin.com"><text>Garmin International</text></link><time>2013-06-22T15:13:50Z</time></metadata>
<trk><name>2014-07-23-01-data.gpx</name><extensions><gpxx:TrackExtension><gpxx:DisplayColor>Cyan</gpxx:DisplayColor></gpxx:TrackExtension></extensions><trkseg>
<trkpt lat="48.479923" lon="2.655207"><ele></ele><time>2017-9-19T1:38:2Z</time></trkpt>
<trkpt lat="48.479885" lon="2.655235"><ele></ele><time>2017-9-19T1:38:5Z</time></trkpt>
<trkpt lat="48.479796" lon="2.655254"><ele></ele><time>2017-9-19T1:38:8Z</time></trkpt>
<trkpt lat="48.479712" lon="2.655161"><ele></ele><time>2017-9-19T1:38:11Z</time></trkpt>
<trkpt lat="48.479774" lon="2.655059"><ele></ele><time>2017-9-19T1:38:14Z</time></trkpt>
<trkpt lat="48.479722" lon="2.654934"><ele></ele><time>2017-9-19T1:38:17Z</time></trkpt>
<trkpt lat="48.479662" lon="2.654818"><ele></ele><time>2017-9-19T1:38:20Z</time></trkpt>
<trkpt lat="48.479603" lon="2.654678"><ele></ele><time>2017-9-19T1:38:23Z</time></trkpt>
<trkpt lat="48.479551" lon="2.654563"><ele></ele><time>2017-9-19T1:38:26Z</time></trkpt>
<trkpt lat="48.479514" lon="2.654386"><ele></ele><time>2017-9-19T1:38:29Z</time></trkpt>
<trkpt lat="48.479485" lon="2.654227"><ele></ele><time>2017-9-19T1:38:32Z</time></trkpt>
<trkpt lat="48.479435" lon="2.654068"><ele></ele><time>2017-9-19T1:38:35Z</time></trkpt>
<trkpt lat="48.479381" lon="2.653926"><ele></ele><time>2017-9-19T1:38:38Z</time></trkpt>
<trkpt lat="48.47934" lon="2.653771"><ele></ele><time>2017-9-19T1:38:41Z</time></trkpt>
<trkpt lat="48.479277" lon="2.653581"><ele></ele><time>2017-9-19T1:38:44Z</time></trkpt>
<trkpt lat="48.479217" lon="2.653438"><ele></ele><time>2017-9-19T1:38:47Z</time></trkpt>
<trkpt lat="48.479161" lon="2.653294"><ele></ele><time>2017-9-19T1:38:50Z</time></trkpt>
<trkpt lat="48.479133" lon="2.653158"><ele></ele><time>2017-9-19T1:38:53Z</time></trkpt>
<trkpt lat="48.479071" lon="2.653034"><ele></ele><time>2017-9-19T1:38:56Z</time></trkpt>
<trkpt lat="48.479037" lon="2.652866"><ele></ele><time>2017-9-19T1:38:59Z</time></trkpt>
<trkpt lat="48.478977" lon="2.652747"><ele></ele><time>2017-9-19T1:39:2Z</time></trkpt>
<trkpt lat="48.478908" lon="2.652647"><ele></ele><time>2017-9-19T1:39:5Z</time></trkpt>
<trkpt lat="48.478903" lon="2.652511"><ele></ele><time>2017-9-19T1:39:8Z</time></trkpt>
<trkpt lat="48.478811" lon="2.65244"><ele></ele><time>2017-9-19T1:39:11Z</time></trkpt>
<trkpt lat="48.478716" lon="2.652419"><ele></ele><time>2017-9-19T1:39:14Z</time></trkpt>
<trkpt lat="48.478599" lon="2.652461"><ele></ele><time>2017-9-19T1:39:17Z</time></trkpt>
<trkpt lat="48.478522" lon="2.652547"><ele></ele><time>2017-9-19T1:39:20Z</time></trkpt>
<trkpt lat="48.478407" lon="2.652616"><ele></ele><time>2017-9-19T1:39:23Z</time></trkpt>
<trkpt lat="48.47833" lon="2.652722"><ele></ele><time>2017-9-19T1:39:26Z</time></trkpt>
<trkpt lat="48.478218" lon="2.652821"><ele></ele><time>2017-9-19T1:39:29Z</time></trkpt>
<trkpt lat="48.478111" lon="2.652853"><ele></ele><time>2017-9-19T1:39:32Z</time></trkpt>
<trkpt lat="48.477976" lon="2.65296"><ele></ele><time>2017-9-19T1:39:35Z</time></trkpt>
<trkpt lat="48.4779" lon="2.653034"><ele></ele><time>2017-9-19T1:39:38Z</time></trkpt>
<trkpt lat="48.477796" lon="2.653128"><ele></ele><time>2017-9-19T1:39:41Z</time></trkpt>
<trkpt lat="48.477617" lon="2.653347"><ele></ele><time>2017-9-19T1:39:44Z</time></trkpt>
<trkpt lat="48.477522" lon="2.653435"><ele></ele><time>2017-9-19T1:39:47Z</time></trkpt>
<trkpt lat="48.47742" lon="2.653514"><ele></ele><time>2017-9-19T1:39:50Z</time></trkpt>
<trkpt lat="48.477336" lon="2.653592"><ele></ele><time>2017-9-19T1:39:53Z</time></trkpt>
<trkpt lat="48.477252" lon="2.653643"><ele></ele><time>2017-9-19T1:39:56Z</time></trkpt>
<trkpt lat="48.47717" lon="2.653729"><ele></ele><time>2017-9-19T1:39:59Z</time></trkpt>
<trkpt lat="48.47707" lon="2.653807"><ele></ele><time>2017-9-19T1:40:2Z</time></trkpt>
<trkpt lat="48.476971" lon="2.653888"><ele></ele><time>2017-9-19T1:40:5Z</time></trkpt>
<trkpt lat="48.476887" lon="2.65395"><ele></ele><time>2017-9-19T1:40:8Z</time></trkpt>
<trkpt lat="48.476767" lon="2.654058"><ele></ele><time>2017-9-19T1:40:11Z</time></trkpt>
<trkpt lat="48.47661" lon="2.654143"><ele></ele><time>2017-9-19T1:40:14Z</time></trkpt>
<trkpt lat="48.476524" lon="2.654204"><ele></ele><time>2017-9-19T1:40:17Z</time></trkpt>
<trkpt lat="48.476389" lon="2.654326"><ele></ele><time>2017-9-19T1:40:20Z</time></trkpt>
<trkpt lat="48.476292" lon="2.654379"><ele></ele><time>2017-9-19T1:40:23Z</time></trkpt>
<trkpt lat="48.476186" lon="2.654495"><ele></ele><time>2017-9-19T1:40:26Z</time></trkpt>
<trkpt lat="48.476103" lon="2.654579"><ele></ele><time>2017-9-19T1:40:29Z</time></trkpt>
<trkpt lat="48.476025" lon="2.654658"><ele></ele><time>2017-9-19T1:40:32Z</time></trkpt>
<trkpt lat="48.475936" lon="2.654715"><ele></ele><time>2017-9-19T1:40:35Z</time></trkpt>
<trkpt lat="48.475845" lon="2.654832"><ele></ele><time>2017-9-19T1:40:38Z</time></trkpt>
<trkpt lat="48.475764" lon="2.654899"><ele></ele><time>2017-9-19T1:40:41Z</time></trkpt>
<trkpt lat="48.475676" lon="2.654976"><ele></ele><time>2017-9-19T1:40:44Z</time></trkpt>
<trkpt lat="48.475593" lon="2.655071"><ele></ele><time>2017-9-19T1:40:47Z</time></trkpt>
<trkpt lat="48.475506" lon="2.655111"><ele></ele><time>2017-9-19T1:40:50Z</time></trkpt>
<trkpt lat="48.475416" lon="2.655184"><ele></ele><time>2017-9-19T1:40:53Z</time></trkpt>
<trkpt lat="48.475313" lon="2.655308"><ele></ele><time>2017-9-19T1:40:56Z</time></trkpt>
<trkpt lat="48.475156" lon="2.65547"><ele></ele><time>2017-9-19T1:40:59Z</time></trkpt>
<trkpt lat="48.475064" lon="2.655566"><ele></ele><time>2017-9-19T1:41:2Z</time></trkpt>
<trkpt lat="48.474942" lon="2.655634"><ele></ele><time>2017-9-19T1:41:5Z</time></trkpt>
<trkpt lat="48.474848" lon="2.655727"><ele></ele><time>2017-9-19T1:41:8Z</time></trkpt>
<trkpt lat="48.474765" lon="2.655779"><ele></ele><time>2017-9-19T1:41:11Z</time></trkpt>
<trkpt lat="48.474674" lon="2.655838"><ele></ele><time>2017-9-19T1:41:14Z</time></trkpt>
<trkpt lat="48.474568" lon="2.655959"><ele></ele><time>2017-9-19T1:41:17Z</time></trkpt>
<trkpt lat="48.474483" lon="2.656029"><ele></ele><time>2017-9-19T1:41:20Z</time></trkpt>
<trkpt lat="48.474384" lon="2.656095"><ele></ele><time>2017-9-19T1:41:23Z</time></trkpt>
<trkpt lat="48.474275" lon="2.656185"><ele></ele><time>2017-9-19T1:41:26Z</time></trkpt>
<trkpt lat="48.474173" lon="2.656269"><ele></ele><time>2017-9-19T1:41:29Z</time></trkpt>
<trkpt lat="48.474091" lon="2.656371"><ele></ele><time>2017-9-19T1:41:32Z</time></trkpt>
<trkpt lat="48.473977" lon="2.656461"><ele></ele><time>2017-9-19T1:41:35Z</time></trkpt>
<trkpt lat="48.473861" lon="2.656573"><ele></ele><time>2017-9-19T1:41:38Z</time></trkpt>
<trkpt lat="48.473778" lon="2.656668"><ele></ele><time>2017-9-19T1:41:41Z</time></trkpt>
<trkpt lat="48.473669" lon="2.656708"><ele></ele><time>2017-9-19T1:41:44Z</time></trkpt>
<trkpt lat="48.473564" lon="2.656754"><ele></ele><time>2017-9-19T1:41:47Z</time></trkpt>
<trkpt lat="48.473444" lon="2.65687"><ele></ele><time>2017-9-19T1:41:50Z</time></trkpt>
<trkpt lat="48.473337" lon="2.656962"><ele></ele><time>2017-9-19T1:41:53Z</time></trkpt>
<trkpt lat="48.473231" lon="2.657041"><ele></ele><time>2017-9-19T1:41:56Z</time></trkpt>
<trkpt lat="48.47313" lon="2.65713"><ele></ele><time>2017-9-19T1:41:59Z</time></trkpt>
<trkpt lat="48.473032" lon="2.657253"><ele></ele><time>2017-9-19T1:42:2Z</time></trkpt>
<trkpt lat="48.472935" lon="2.65733"><ele></ele><time>2017-9-19T1:42:5Z</time></trkpt>
<trkpt lat="48.47279" lon="2.657392"><ele></ele><time>2017-9-19T1:42:8Z</time></trkpt>
<trkpt lat="48.472569" lon="2.657559"><ele></ele><time>2017-9-19T1:42:11Z</time></trkpt>
<trkpt lat="48.47247" lon="2.657667"><ele></ele><time>2017-9-19T1:42:14Z</time></trkpt>
<trkpt lat="48.472389" lon="2.657755"><ele></ele><time>2017-9-19T1:42:17Z</time></trkpt>
<trkpt lat="48.472307" lon="2.65784"><ele></ele><time>2017-9-19T1:42:20Z</time></trkpt>
<trkpt lat="48.472215" lon="2.65791"><ele></ele><time>2017-9-19T1:42:23Z</time></trkpt>
<trkpt lat="48.472125" lon="2.657935"><ele></ele><time>2017-9-19T1:42:26Z</time></trkpt>
<trkpt lat="48.472041" lon="2.657994"><ele></ele><time>2017-9-19T1:42:29Z</time></trkpt>
<trkpt lat="48.471938" lon="2.658114"><ele></ele><time>2017-9-19T1:42:32Z</time></trkpt>
<trkpt lat="48.471832" lon="2.658203"><ele></ele><time>2017-9-19T1:42:35Z</time></trkpt>
<trkpt lat="48.471713" lon="2.658279"><ele></ele><time>2017-9-19T1:42:38Z</time></trkpt>
<trkpt lat="48.471606" lon="2.658401"><ele></ele><time>2017-9-19T1:42:41Z</time></trkpt>
<trkpt lat="48.471531" lon="2.658486"><ele></ele><time>2017-9-19T1:42:44Z</time></trkpt>
<trkpt lat="48.471418" lon="2.658572"><ele></ele><time>2017-9-19T1:42:47Z</time></trkpt>
<trkpt lat="48.47132" lon="2.658653"><ele></ele><time>2017-9-19T1:42:50Z</time></trkpt>
<trkpt lat="48.471206" lon="2.658757"><ele></ele><time>2017-9-19T1:42:53Z</time></trkpt>
<trkpt lat="48.471122" lon="2.65881"><ele></ele><time>2017-9-19T1:42:56Z</time></trkpt>
<trkpt lat="48.471035" lon="2.65886"><ele></ele><time>2017-9-19T1:42:59Z</time></trkpt>
<trkpt lat="48.470943" lon="2.658877"><ele></ele><time>2017-9-19T1:43:2Z</time></trkpt>
<trkpt lat="48.4708" lon="2.65886"><ele></ele><time>2017-9-19T1:43:5Z</time></trkpt>
<trkpt lat="48.470709" lon="2.658845"><ele></ele><time>2017-9-19T1:43:8Z</time></trkpt>
<trkpt lat="48.470604" lon="2.658852"><ele></ele><time>2017-9-19T1:43:11Z</time></trkpt>
<trkpt lat="48.47051" lon="2.658853"><ele></ele><time>2017-9-19T1:43:14Z</time></trkpt>
<trkpt lat="48.470414" lon="2.658852"><ele></ele><time>2017-9-19T1:43:17Z</time></trkpt>
<trkpt lat="48.470316" lon="2.65884"><ele></ele><time>2017-9-19T1:43:20Z</time></trkpt>
<trkpt lat="48.470195" lon="2.658826"><ele></ele><time>2017-9-19T1:43:23Z</time></trkpt>
<trkpt lat="48.470054" lon="2.658802"><ele></ele><time>2017-9-19T1:43:26Z</time></trkpt>
<trkpt lat="48.469819" lon="2.658781"><ele></ele><time>2017-9-19T1:43:29Z</time></trkpt>
<trkpt lat="48.469726" lon="2.658773"><ele></ele><time>2017-9-19T1:43:32Z</time></trkpt>
<trkpt lat="48.469588" lon="2.658741"><ele></ele><time>2017-9-19T1:43:35Z</time></trkpt>
<trkpt lat="48.469485" lon="2.658721"><ele></ele><time>2017-9-19T1:43:38Z</time></trkpt>
<trkpt lat="48.46938" lon="2.658718"><ele></ele><time>2017-9-19T1:43:41Z</time></trkpt>
<trkpt lat="48.469272" lon="2.658736"><ele></ele><time>2017-9-19T1:43:44Z</time></trkpt>
<trkpt lat="48.469179" lon="2.658736"><ele></ele><time>2017-9-19T1:43:47Z</time></trkpt>
<trkpt lat="48.469057" lon="2.658739"><ele></ele><time>2017-9-19T1:43:50Z</time></trkpt>
<trkpt lat="48.468946" lon="2.658729"><ele></ele><time>2017-9-19T1:43:53Z</time></trkpt>
<trkpt lat="48.468847" lon="2.658697"><ele></ele><time>2017-9-19T1:43:56Z</time></trkpt>
<trkpt lat="48.468734" lon="2.658671"><ele></ele><time>2017-9-19T1:43:59Z</time></trkpt>
<trkpt lat="48.468609" lon="2.658662"><ele></ele><time>2017-9-19T1:44:2Z</time></trkpt>
<trkpt lat="48.468483" lon="2.65865"><ele></ele><time>2017-9-19T1:44:5Z</time></trkpt>
<trkpt lat="48.46836" lon="2.658626"><ele></ele><time>2017-9-19T1:44:8Z</time></trkpt>
<trkpt lat="48.468243" lon="2.658628"><ele></ele><time>2017-9-19T1:44:11Z</time></trkpt>
<trkpt lat="48.468153" lon="2.658627"><ele></ele><time>2017-9-19T1:44:14Z</time></trkpt>
<trkpt lat="48.468036" lon="2.658586"><ele></ele><time>2017-9-19T1:44:17Z</time></trkpt>
<trkpt lat="48.467947" lon="2.658545"><ele></ele><time>2017-9-19T1:44:20Z</time></trkpt>
<trkpt lat="48.467857" lon="2.65858"><ele></ele><time>2017-9-19T1:44:23Z</time></trkpt>
<trkpt lat="48.467746" lon="2.658556"><ele></ele><time>2017-9-19T1:44:26Z</time></trkpt>
<trkpt lat="48.467632" lon="2.658565"><ele></ele><time>2017-9-19T1:44:29Z</time></trkpt>
<trkpt lat="48.467541" lon="2.658575"><ele></ele><time>2017-9-19T1:44:32Z</time></trkpt>
<trkpt lat="48.467298" lon="2.658546"><ele></ele><time>2017-9-19T1:44:35Z</time></trkpt>
<trkpt lat="48.467202" lon="2.658535"><ele></ele><time>2017-9-19T1:44:38Z</time></trkpt>
<trkpt lat="48.46709" lon="2.658557"><ele></ele><time>2017-9-19T1:44:41Z</time></trkpt>
<trkpt lat="48.466998" lon="2.658529"><ele></ele><time>2017-9-19T1:44:44Z</time></trkpt>
<trkpt lat="48.466909" lon="2.658507"><ele></ele><time>2017-9-19T1:44:47Z</time></trkpt>
<trkpt lat="48.466796" lon="2.6585"><ele></ele><time>2017-9-19T1:44:50Z</time></trkpt>
<trkpt lat="48.466702" lon="2.658487"><ele></ele><time>2017-9-19T1:44:53Z</time></trkpt>
<trkpt lat="48.466577" lon="2.658453"><ele></ele><time>2017-9-19T1:44:56Z</time></trkpt>
<trkpt lat="48.466436" lon="2.658431"><ele></ele><time>2017-9-19T1:44:59Z</time></trkpt>
<trkpt lat="48.466329" lon="2.658379"><ele></ele><time>2017-9-19T1:45:2Z</time></trkpt>
<trkpt lat="48.466239" lon="2.658346"><ele></ele><time>2017-9-19T1:45:5Z</time></trkpt>
<trkpt lat="48.466135" lon="2.658321"><ele></ele><time>2017-9-19T1:45:8Z</time></trkpt>
<trkpt lat="48.466024" lon="2.658333"><ele></ele><time>2017-9-19T1:45:11Z</time></trkpt>
<trkpt lat="48.465923" lon="2.658363"><ele></ele><time>2017-9-19T1:45:14Z</time></trkpt>
<trkpt lat="48.465835" lon="2.658402"><ele></ele><time>2017-9-19T1:45:17Z</time></trkpt>
<trkpt lat="48.465718" lon="2.658471"><ele></ele><time>2017-9-19T1:45:20Z</time></trkpt>
<trkpt lat="48.465614" lon="2.658537"><ele></ele><time>2017-9-19T1:45:23Z</time></trkpt>
<trkpt lat="48.465495" lon="2.65851"><ele></ele><time>2017-9-19T1:45:26Z</time></trkpt>
<trkpt lat="48.465409" lon="2.658449"><ele></ele><time>2017-9-19T1:45:29Z</time></trkpt>
<trkpt lat="48.465286" lon="2.658438"><ele></ele><time>2017-9-19T1:45:32Z</time></trkpt>
<trkpt lat="48.465089" lon="2.658516"><ele></ele><time>2017-9-19T1:45:35Z</time></trkpt>
<trkpt lat="48.464998" lon="2.658529"><ele></ele><time>2017-9-19T1:45:38Z</time></trkpt>
<trkpt lat="48.464899" lon="2.65851"><ele></ele><time>2017-9-19T1:45:41Z</time></trkpt>
<trkpt lat="48.464781" lon="2.658493"><ele></ele><time>2017-9-19T1:45:44Z</time></trkpt>
<trkpt lat="48.464666" lon="2.658512"><ele></ele><time>2017-9-19T1:45:47Z</time></trkpt>
<trkpt lat="48.464574" lon="2.658515"><ele></ele><time>2017-9-19T1:45:50Z</time></trkpt>
<trkpt lat="48.464461" lon="2.658519"><ele></ele><time>2017-9-19T1:45:53Z</time></trkpt>
<trkpt lat="48.464372" lon="2.658542"><ele></ele><time>2017-9-19T1:45:56Z</time></trkpt>
<trkpt lat="48.464274" lon="2.658626"><ele></ele><time>2017-9-19T1:45:59Z</time></trkpt>
<trkpt lat="48.464179" lon="2.658724"><ele></ele><time>2017-9-19T1:46:2Z</time></trkpt>
<trkpt lat="48.464061" lon="2.658809"><ele></ele><time>2017-9-19T1:46:5Z</time></trkpt>
<trkpt lat="48.463958" lon="2.658875"><ele></ele><time>2017-9-19T1:46:8Z</time></trkpt>
<trkpt lat="48.463879" lon="2.658958"><ele></ele><time>2017-9-19T1:46:11Z</time></trkpt>
<trkpt lat="48.463783" lon="2.659023"><ele></ele><time>2017-9-19T1:46:14Z</time></trkpt>
<trkpt lat="48.463682" lon="2.659102"><ele></ele><time>2017-9-19T1:46:17Z</time></trkpt>
<trkpt lat="48.463553" lon="2.65919"><ele></ele><time>2017-9-19T1:46:20Z</time></trkpt>
<trkpt lat="48.46345" lon="2.659264"><ele></ele><time>2017-9-19T1:46:23Z</time></trkpt>
<trkpt lat="48.463342" lon="2.659351"><ele></ele><time>2017-9-19T1:46:26Z</time></trkpt>
<trkpt lat="48.463254" lon="2.659425"><ele></ele><time>2017-9-19T1:46:29Z</time></trkpt>
<trkpt lat="48.463175" lon="2.659505"><ele></ele><time>2017-9-19T1:46:32Z</time></trkpt>
<trkpt lat="48.462949" lon="2.659691"><ele></ele><time>2017-9-19T1:46:35Z</time></trkpt>
<trkpt lat="48.46285" lon="2.659741"><ele></ele><time>2017-9-19T1:46:38Z</time></trkpt>
<trkpt lat="48.462754" lon="2.659845"><ele></ele><time>2017-9-19T1:46:41Z</time></trkpt>
<trkpt lat="48.462688" lon="2.65995"><ele></ele><time>2017-9-19T1:46:44Z</time></trkpt>
<trkpt lat="48.462595" lon="2.660038"><ele></ele><time>2017-9-19T1:46:47Z</time></trkpt>
<trkpt lat="48.462504" lon="2.660094"><ele></ele><time>2017-9-19T1:46:50Z</time></trkpt>
<trkpt lat="48.462402" lon="2.660168"><ele></ele><time>2017-9-19T1:46:53Z</time></trkpt>
<trkpt lat="48.46231" lon="2.660278"><ele></ele><time>2017-9-19T1:46:56Z</time></trkpt>
<trkpt lat="48.46223" lon="2.660342"><ele></ele><time>2017-9-19T1:46:59Z</time></trkpt>
<trkpt lat="48.462141" lon="2.66038"><ele></ele><time>2017-9-19T1:47:2Z</time></trkpt>
<trkpt lat="48.462049" lon="2.660363"><ele></ele><time>2017-9-19T1:47:5Z</time></trkpt>
<trkpt lat="48.46197" lon="2.660429"><ele></ele><time>2017-9-19T1:47:8Z</time></trkpt>
<trkpt lat="48.461871" lon="2.660443"><ele></ele><time>2017-9-19T1:47:11Z</time></trkpt>
<trkpt lat="48.461777" lon="2.66049"><ele></ele><time>2017-9-19T1:47:14Z</time></trkpt>
<trkpt lat="48.46169" lon="2.66055"><ele></ele><time>2017-9-19T1:47:17Z</time></trkpt>
<trkpt lat="48.461599" lon="2.660529"><ele></ele><time>2017-9-19T1:47:20Z</time></trkpt>
<trkpt lat="48.4614" lon="2.660456"><ele></ele><time>2017-9-19T1:47:23Z</time></trkpt>
<trkpt lat="48.461298" lon="2.660415"><ele></ele><time>2017-9-19T1:47:26Z</time></trkpt>
<trkpt lat="48.461203" lon="2.660387"><ele></ele><time>2017-9-19T1:47:29Z</time></trkpt>
<trkpt lat="48.461109" lon="2.660389"><ele></ele><time>2017-9-19T1:47:32Z</time></trkpt>
<trkpt lat="48.461033" lon="2.660474"><ele></ele><time>2017-9-19T1:47:35Z</time></trkpt>
<trkpt lat="48.460937" lon="2.660556"><ele></ele><time>2017-9-19T1:47:38Z</time></trkpt>
<trkpt lat="48.460834" lon="2.660584"><ele></ele><time>2017-9-19T1:47:41Z</time></trkpt>
<trkpt lat="48.460739" lon="2.660679"><ele></ele><time>2017-9-19T1:47:44Z</time></trkpt>
<trkpt lat="48.460663" lon="2.660815"><ele></ele><time>2017-9-19T1:47:47Z</time></trkpt>
<trkpt lat="48.460595" lon="2.660936"><ele></ele><time>2017-9-19T1:47:50Z</time></trkpt>
<trkpt lat="48.460535" lon="2.661077"><ele></ele><time>2017-9-19T1:47:53Z</time></trkpt>
<trkpt lat="48.460449" lon="2.661212"><ele></ele><time>2017-9-19T1:47:56Z</time></trkpt>
<trkpt lat="48.460238" lon="2.6613"><ele></ele><time>2017-9-19T1:47:59Z</time></trkpt>
<trkpt lat="48.460145" lon="2.661349"><ele></ele><time>2017-9-19T1:48:2Z</time></trkpt>
<trkpt lat="48.460055" lon="2.66136"><ele></ele><time>2017-9-19T1:48:5Z</time></trkpt>
<trkpt lat="48.459956" lon="2.661422"><ele></ele><time>2017-9-19T1:48:8Z</time></trkpt>
<trkpt lat="48.459828" lon="2.66145"><ele></ele><time>2017-9-19T1:48:11Z</time></trkpt>
<trkpt lat="48.459718" lon="2.661411"><ele></ele><time>2017-9-19T1:48:14Z</time></trkpt>
<trkpt lat="48.459628" lon="2.661556"><ele></ele><time>2017-9-19T1:48:17Z</time></trkpt>
<trkpt lat="48.459626" lon="2.661715"><ele></ele><time>2017-9-19T1:48:20Z</time></trkpt>
<trkpt lat="48.45962" lon="2.661873"><ele></ele><time>2017-9-19T1:48:23Z</time></trkpt>
<trkpt lat="48.459618" lon="2.662036"><ele></ele><time>2017-9-19T1:48:26Z</time></trkpt>
<trkpt lat="48.45961" lon="2.662209"><ele></ele><time>2017-9-19T1:48:29Z</time></trkpt>
<trkpt lat="48.459629" lon="2.662383"><ele></ele><time>2017-9-19T1:48:32Z</time></trkpt>
<trkpt lat="48.459625" lon="2.662532"><ele></ele><time>2017-9-19T1:48:35Z</time></trkpt>
<trkpt lat="48.459587" lon="2.662683"><ele></ele><time>2017-9-19T1:48:38Z</time></trkpt>
<trkpt lat="48.459539" lon="2.662851"><ele></ele><time>2017-9-19T1:48:41Z</time></trkpt>
<trkpt lat="48.459496" lon="2.662978"><ele></ele><time>2017-9-19T1:48:44Z</time></trkpt>
<trkpt lat="48.459428" lon="2.663149"><ele></ele><time>2017-9-19T1:48:47Z</time></trkpt>
<trkpt lat="48.45938" lon="2.663302"><ele></ele><time>2017-9-19T1:48:50Z</time></trkpt>
<trkpt lat="48.459277" lon="2.663585"><ele></ele><time>2017-9-19T1:48:53Z</time></trkpt>
<trkpt lat="48.459231" lon="2.66374"><ele></ele><time>2017-9-19T1:48:56Z</time></trkpt>
<trkpt lat="48.459197" lon="2.663884"><ele></ele><time>2017-9-19T1:48:59Z</time></trkpt>
<trkpt lat="48.459175" lon="2.664018"><ele></ele><time>2017-9-19T1:49:2Z</time></trkpt>
<trkpt lat="48.459132" lon="2.664183"><ele></ele><time>2017-9-19T1:49:5Z</time></trkpt>
<trkpt lat="48.4591" lon="2.664319"><ele></ele><time>2017-9-19T1:49:8Z</time></trkpt>
<trkpt lat="48.459055" lon="2.664443"><ele></ele><time>2017-9-19T1:49:11Z</time></trkpt>
<trkpt lat="48.458985" lon="2.664596"><ele></ele><time>2017-9-19T1:49:14Z</time></trkpt>
<trkpt lat="48.45895" lon="2.664733"><ele></ele><time>2017-9-19T1:49:17Z</time></trkpt>
<trkpt lat="48.458896" lon="2.664877"><ele></ele><time>2017-9-19T1:49:20Z</time></trkpt>
<trkpt lat="48.458849" lon="2.665022"><ele></ele><time>2017-9-19T1:49:23Z</time></trkpt>
<trkpt lat="48.458806" lon="2.665157"><ele></ele><time>2017-9-19T1:49:26Z</time></trkpt>
<trkpt lat="48.458749" lon="2.665302"><ele></ele><time>2017-9-19T1:49:29Z</time></trkpt>
<trkpt lat="48.458702" lon="2.665452"><ele></ele><time>2017-9-19T1:49:32Z</time></trkpt>
<trkpt lat="48.458659" lon="2.665576"><ele></ele><time>2017-9-19T1:49:35Z</time></trkpt>
<trkpt lat="48.458594" lon="2.665725"><ele></ele><time>2017-9-19T1:49:38Z</time></trkpt>
<trkpt lat="48.458564" lon="2.665884"><ele></ele><time>2017-9-19T1:49:41Z</time></trkpt>
<trkpt lat="48.458521" lon="2.666026"><ele></ele><time>2017-9-19T1:49:44Z</time></trkpt>
<trkpt lat="48.45843" lon="2.666291"><ele></ele><time>2017-9-19T1:49:47Z</time></trkpt>
<trkpt lat="48.458392" lon="2.666417"><ele></ele><time>2017-9-19T1:49:50Z</time></trkpt>
<trkpt lat="48.458344" lon="2.666554"><ele></ele><time>2017-9-19T1:49:53Z</time></trkpt>
<trkpt lat="48.458301" lon="2.666698"><ele></ele><time>2017-9-19T1:49:56Z</time></trkpt>
<trkpt lat="48.45826" lon="2.666832"><ele></ele><time>2017-9-19T1:49:59Z</time></trkpt>
<trkpt lat="48.458207" lon="2.666968"><ele></ele><time>2017-9-19T1:50:2Z</time></trkpt>
<trkpt lat="48.458165" lon="2.667128"><ele></ele><time>2017-9-19T1:50:5Z</time></trkpt>
<trkpt lat="48.458105" lon="2.667269"><ele></ele><time>2017-9-19T1:50:8Z</time></trkpt>
<trkpt lat="48.458064" lon="2.667444"><ele></ele><time>2017-9-19T1:50:11Z</time></trkpt>
<trkpt lat="48.458003" lon="2.667645"><ele></ele><time>2017-9-19T1:50:14Z</time></trkpt>
<trkpt lat="48.45795" lon="2.667766"><ele></ele><time>2017-9-19T1:50:17Z</time></trkpt>
<trkpt lat="48.457912" lon="2.66793"><ele></ele><time>2017-9-19T1:50:20Z</time></trkpt>
<trkpt lat="48.457859" lon="2.668059"><ele></ele><time>2017-9-19T1:50:23Z</time></trkpt>
<trkpt lat="48.457817" lon="2.668187"><ele></ele><time>2017-9-19T1:50:26Z</time></trkpt>
<trkpt lat="48.457774" lon="2.668346"><ele></ele><time>2017-9-19T1:50:29Z</time></trkpt>
<trkpt lat="48.457735" lon="2.668498"><ele></ele><time>2017-9-19T1:50:32Z</time></trkpt>
<trkpt lat="48.457682" lon="2.668651"><ele></ele><time>2017-9-19T1:50:35Z</time></trkpt>
<trkpt lat="48.457628" lon="2.668795"><ele></ele><time>2017-9-19T1:50:38Z</time></trkpt>
<trkpt lat="48.457594" lon="2.66895"><ele></ele><time>2017-9-19T1:50:41Z</time></trkpt>
<trkpt lat="48.457525" lon="2.669077"><ele></ele><time>2017-9-19T1:50:44Z</time></trkpt>
<trkpt lat="48.457479" lon="2.669266"><ele></ele><time>2017-9-19T1:50:47Z</time></trkpt>
<trkpt lat="48.457436" lon="2.669419"><ele></ele><time>2017-9-19T1:50:50Z</time></trkpt>
<trkpt lat="48.45731" lon="2.669724"><ele></ele><time>2017-9-19T1:50:53Z</time></trkpt>
<trkpt lat="48.457222" lon="2.66978"><ele></ele><time>2017-9-19T1:50:56Z</time></trkpt>
<trkpt lat="48.457116" lon="2.669765"><ele></ele><time>2017-9-19T1:50:59Z</time></trkpt>
<trkpt lat="48.457017" lon="2.669786"><ele></ele><time>2017-9-19T1:51:2Z</time></trkpt>
<trkpt lat="48.456925" lon="2.669658"><ele></ele><time>2017-9-19T1:51:5Z</time></trkpt>
<trkpt lat="48.456856" lon="2.669564"><ele></ele><time>2017-9-19T1:51:8Z</time></trkpt>
<trkpt lat="48.456802" lon="2.669446"><ele></ele><time>2017-9-19T1:51:11Z</time></trkpt>
<trkpt lat="48.456752" lon="2.669298"><ele></ele><time>2017-9-19T1:51:14Z</time></trkpt>
<trkpt lat="48.456685" lon="2.669166"><ele></ele><time>2017-9-19T1:51:17Z</time></trkpt>
<trkpt lat="48.456638" lon="2.669044"><ele></ele><time>2017-9-19T1:51:20Z</time></trkpt>
<trkpt lat="48.456588" lon="2.668921"><ele></ele><time>2017-9-19T1:51:23Z</time></trkpt>
<trkpt lat="48.45655" lon="2.668771"><ele></ele><time>2017-9-19T1:51:26Z</time></trkpt>
<trkpt lat="48.456533" lon="2.668604"><ele></ele><time>2017-9-19T1:51:29Z</time></trkpt>
<trkpt lat="48.456496" lon="2.668439"><ele></ele><time>2017-9-19T1:51:32Z</time></trkpt>
<trkpt lat="48.456468" lon="2.668291"><ele></ele><time>2017-9-19T1:51:35Z</time></trkpt>
<trkpt lat="48.456394" lon="2.668167"><ele></ele><time>2017-9-19T1:51:38Z</time></trkpt>
<trkpt lat="48.456358" lon="2.668037"><ele></ele><time>2017-9-19T1:51:41Z</time></trkpt>
<trkpt lat="48.456293" lon="2.667922"><ele></ele><time>2017-9-19T1:51:44Z</time></trkpt>
<trkpt lat="48.456194" lon="2.667675"><ele></ele><time>2017-9-19T1:51:47Z</time></trkpt>
<trkpt lat="48.45613" lon="2.667538"><ele></ele><time>2017-9-19T1:51:50Z</time></trkpt>
<trkpt lat="48.45606" lon="2.667396"><ele></ele><time>2017-9-19T1:51:53Z</time></trkpt>
<trkpt lat="48.456017" lon="2.667271"><ele></ele><time>2017-9-19T1:51:56Z</time></trkpt>
<trkpt lat="48.455976" lon="2.667147"><ele></ele><time>2017-9-19T1:51:59Z</time></trkpt>
<trkpt lat="48.455919" lon="2.667033"><ele></ele><time>2017-9-19T1:52:2Z</time></trkpt>
<trkpt lat="48.45585" lon="2.666942"><ele></ele><time>2017-9-19T1:52:5Z</time></trkpt>
<trkpt lat="48.455759" lon="2.666848"><ele></ele><time>2017-9-19T1:52:8Z</time></trkpt>
<trkpt lat="48.45568" lon="2.66678"><ele></ele><time>2017-9-19T1:52:11Z</time></trkpt>
<trkpt lat="48.45559" lon="2.666721"><ele></ele><time>2017-9-19T1:52:14Z</time></trkpt>
<trkpt lat="48.455503" lon="2.666679"><ele></ele><time>2017-9-19T1:52:17Z</time></trkpt>
<trkpt lat="48.455413" lon="2.666618"><ele></ele><time>2017-9-19T1:52:20Z</time></trkpt>
<trkpt lat="48.455327" lon="2.66657"><ele></ele><time>2017-9-19T1:52:23Z</time></trkpt>
<trkpt lat="48.455221" lon="2.666497"><ele></ele><time>2017-9-19T1:52:26Z</time></trkpt>
<trkpt lat="48.455155" lon="2.6664"><ele></ele><time>2017-9-19T1:52:29Z</time></trkpt>
<trkpt lat="48.455071" lon="2.666276"><ele></ele><time>2017-9-19T1:52:32Z</time></trkpt>
<trkpt lat="48.454992" lon="2.665977"><ele></ele><time>2017-9-19T1:52:35Z</time></trkpt>
<trkpt lat="48.454985" lon="2.665798"><ele></ele><time>2017-9-19T1:52:38Z</time></trkpt>
<trkpt lat="48.454958" lon="2.66562"><ele></ele><time>2017-9-19T1:52:41Z</time></trkpt>
<trkpt lat="48.45493" lon="2.665487"><ele></ele><time>2017-9-19T1:52:44Z</time></trkpt>
<trkpt lat="48.4549" lon="2.665358"><ele></ele><time>2017-9-19T1:52:47Z</time></trkpt>
<trkpt lat="48.454844" lon="2.665231"><ele></ele><time>2017-9-19T1:52:50Z</time></trkpt>
<trkpt lat="48.454781" lon="2.665124"><ele></ele><time>2017-9-19T1:52:53Z</time></trkpt>
<trkpt lat="48.454729" lon="2.665005"><ele></ele><time>2017-9-19T1:52:56Z</time></trkpt>
<trkpt lat="48.45466" lon="2.664905"><ele></ele><time>2017-9-19T1:52:59Z</time></trkpt>
<trkpt lat="48.454587" lon="2.664796"><ele></ele><time>2017-9-19T1:53:2Z</time></trkpt>
<trkpt lat="48.454518" lon="2.664674"><ele></ele><time>2017-9-19T1:53:5Z</time></trkpt>
<trkpt lat="48.454476" lon="2.664547"><ele></ele><time>2017-9-19T1:53:8Z</time></trkpt>
<trkpt lat="48.454434" lon="2.664395"><ele></ele><time>2017-9-19T1:53:11Z</time></trkpt>
<trkpt lat="48.454358" lon="2.664293"><ele></ele><time>2017-9-19T1:53:14Z</time></trkpt>
<trkpt lat="48.454319" lon="2.664143"><ele></ele><time>2017-9-19T1:53:17Z</time></trkpt>
<trkpt lat="48.454251" lon="2.663884"><ele></ele><time>2017-9-19T1:53:20Z</time></trkpt>
<trkpt lat="48.454183" lon="2.663783"><ele></ele><time>2017-9-19T1:53:23Z</time></trkpt>
<trkpt lat="48.454177" lon="2.663625"><ele></ele><time>2017-9-19T1:53:26Z</time></trkpt>
<trkpt lat="48.454152" lon="2.663486"><ele></ele><time>2017-9-19T1:53:29Z</time></trkpt>
<trkpt lat="48.454111" lon="2.663353"><ele></ele><time>2017-9-19T1:53:32Z</time></trkpt>
<trkpt lat="48.454104" lon="2.663214"><ele></ele><time>2017-9-19T1:53:35Z</time></trkpt>
<trkpt lat="48.454071" lon="2.663084"><ele></ele><time>2017-9-19T1:53:38Z</time></trkpt>
<trkpt lat="48.454034" lon="2.662948"><ele></ele><time>2017-9-19T1:53:41Z</time></trkpt>
<trkpt lat="48.453993" lon="2.662815"><ele></ele><time>2017-9-19T1:53:44Z</time></trkpt>
<trkpt lat="48.453953" lon="2.662673"><ele></ele><time>2017-9-19T1:53:47Z</time></trkpt>
<trkpt lat="48.453893" lon="2.66255"><ele></ele><time>2017-9-19T1:53:50Z</time></trkpt>
<trkpt lat="48.453727" lon="2.66233"><ele></ele><time>2017-9-19T1:53:53Z</time></trkpt>
<trkpt lat="48.453636" lon="2.662289"><ele></ele><time>2017-9-19T1:53:56Z</time></trkpt>
<trkpt lat="48.453638" lon="2.662144"><ele></ele><time>2017-9-19T1:53:59Z</time></trkpt>
<trkpt lat="48.453709" lon="2.662033"><ele></ele><time>2017-9-19T1:54:2Z</time></trkpt>
<trkpt lat="48.453782" lon="2.661924"><ele></ele><time>2017-9-19T1:54:5Z</time></trkpt>
<trkpt lat="48.453883" lon="2.66187"><ele></ele><time>2017-9-19T1:54:8Z</time></trkpt>
<trkpt lat="48.45397" lon="2.661787"><ele></ele><time>2017-9-19T1:54:11Z</time></trkpt>
<trkpt lat="48.454076" lon="2.661733"><ele></ele><time>2017-9-19T1:54:14Z</time></trkpt>
<trkpt lat="48.454178" lon="2.661659"><ele></ele><time>2017-9-19T1:54:17Z</time></trkpt>
<trkpt lat="48.454288" lon="2.661592"><ele></ele><time>2017-9-19T1:54:20Z</time></trkpt>
<trkpt lat="48.454401" lon="2.661501"><ele></ele><time>2017-9-19T1:54:23Z</time></trkpt>
<trkpt lat="48.454486" lon="2.661448"><ele></ele><time>2017-9-19T1:54:26Z</time></trkpt>
<trkpt lat="48.45461" lon="2.661368"><ele></ele><time>2017-9-19T1:54:29Z</time></trkpt>
<trkpt lat="48.45479" lon="2.661199"><ele></ele><time>2017-9-19T1:54:32Z</time></trkpt>
<trkpt lat="48.454894" lon="2.661126"><ele></ele><time>2017-9-19T1:54:35Z</time></trkpt>
<trkpt lat="48.454988" lon="2.661031"><ele></ele><time>2017-9-19T1:54:38Z</time></trkpt>
<trkpt lat="48.455087" lon="2.660972"><ele></ele><time>2017-9-19T1:54:41Z</time></trkpt>
<trkpt lat="48.455172" lon="2.660919"><ele></ele><time>2017-9-19T1:54:44Z</time></trkpt>
<trkpt lat="48.455268" lon="2.660848"><ele></ele><time>2017-9-19T1:54:47Z</time></trkpt>
<trkpt lat="48.455364" lon="2.660805"><ele></ele><time>2017-9-19T1:54:50Z</time></trkpt>
<trkpt lat="48.455467" lon="2.660733"><ele></ele><time>2017-9-19T1:54:53Z</time></trkpt>
<trkpt lat="48.45557" lon="2.660661"><ele></ele><time>2017-9-19T1:54:56Z</time></trkpt>
<trkpt lat="48.455692" lon="2.660556"><ele></ele><time>2017-9-19T1:54:59Z</time></trkpt>
<trkpt lat="48.455802" lon="2.660491"><ele></ele><time>2017-9-19T1:55:2Z</time></trkpt>
<trkpt lat="48.455905" lon="2.660441"><ele></ele><time>2017-9-19T1:55:5Z</time></trkpt>
<trkpt lat="48.456015" lon="2.660381"><ele></ele><time>2017-9-19T1:55:8Z</time></trkpt>
<trkpt lat="48.456093" lon="2.660281"><ele></ele><time>2017-9-19T1:55:11Z</time></trkpt>
<trkpt lat="48.456189" lon="2.660184"><ele></ele><time>2017-9-19T1:55:14Z</time></trkpt>
<trkpt lat="48.45625" lon="2.66008"><ele></ele><time>2017-9-19T1:55:17Z</time></trkpt>
<trkpt lat="48.456288" lon="2.659916"><ele></ele><time>2017-9-19T1:55:20Z</time></trkpt>
<trkpt lat="48.456303" lon="2.659764"><ele></ele><time>2017-9-19T1:55:23Z</time></trkpt>
<trkpt lat="48.456331" lon="2.659616"><ele></ele><time>2017-9-19T1:55:26Z</time></trkpt>
<trkpt lat="48.45637" lon="2.659466"><ele></ele><time>2017-9-19T1:55:29Z</time></trkpt>
<trkpt lat="48.456404" lon="2.659339"><ele></ele><time>2017-9-19T1:55:32Z</time></trkpt>
<trkpt lat="48.456437" lon="2.659188"><ele></ele><time>2017-9-19T1:55:35Z</time></trkpt>
<trkpt lat="48.456471" lon="2.659025"><ele></ele><time>2017-9-19T1:55:38Z</time></trkpt>
<trkpt lat="48.456523" lon="2.658757"><ele></ele><time>2017-9-19T1:55:41Z</time></trkpt>
<trkpt lat="48.456561" lon="2.658564"><ele></ele><time>2017-9-19T1:55:44Z</time></trkpt>
<trkpt lat="48.456669" lon="2.658284"><ele></ele><time>2017-9-19T1:55:47Z</time></trkpt>
<trkpt lat="48.456728" lon="2.65814"><ele></ele><time>2017-9-19T1:55:50Z</time></trkpt>
<trkpt lat="48.456795" lon="2.658014"><ele></ele><time>2017-9-19T1:55:53Z</time></trkpt>
<trkpt lat="48.45687" lon="2.657908"><ele></ele><time>2017-9-19T1:55:56Z</time></trkpt>
<trkpt lat="48.456976" lon="2.657749"><ele></ele><time>2017-9-19T1:55:59Z</time></trkpt>
<trkpt lat="48.457082" lon="2.657707"><ele></ele><time>2017-9-19T1:56:2Z</time></trkpt>
<trkpt lat="48.457231" lon="2.657649"><ele></ele><time>2017-9-19T1:56:5Z</time></trkpt>
<trkpt lat="48.457331" lon="2.657649"><ele></ele><time>2017-9-19T1:56:8Z</time></trkpt>
<trkpt lat="48.457435" lon="2.657576"><ele></ele><time>2017-9-19T1:56:11Z</time></trkpt>
<trkpt lat="48.457543" lon="2.657548"><ele></ele><time>2017-9-19T1:56:14Z</time></trkpt>
<trkpt lat="48.457635" lon="2.657518"><ele></ele><time>2017-9-19T1:56:17Z</time></trkpt>
<trkpt lat="48.457724" lon="2.65748"><ele></ele><time>2017-9-19T1:56:20Z</time></trkpt>
<trkpt lat="48.457843" lon="2.657462"><ele></ele><time>2017-9-19T1:56:23Z</time></trkpt>
<trkpt lat="48.457962" lon="2.657411"><ele></ele><time>2017-9-19T1:56:26Z</time></trkpt>
<trkpt lat="48.458061" lon="2.657394"><ele></ele><time>2017-9-19T1:56:29Z</time></trkpt>
<trkpt lat="48.458185" lon="2.65734"><ele></ele><time>2017-9-19T1:56:32Z</time></trkpt>
<trkpt lat="48.458318" lon="2.657271"><ele></ele><time>2017-9-19T1:56:35Z</time></trkpt>
<trkpt lat="48.458411" lon="2.657245"><ele></ele><time>2017-9-19T1:56:38Z</time></trkpt>
<trkpt lat="48.458515" lon="2.657155"><ele></ele><time>2017-9-19T1:56:41Z</time></trkpt>
<trkpt lat="48.458579" lon="2.657059"><ele></ele><time>2017-9-19T1:56:44Z</time></trkpt>
<trkpt lat="48.458633" lon="2.65692"><ele></ele><time>2017-9-19T1:56:47Z</time></trkpt>
<trkpt lat="48.458689" lon="2.656783"><ele></ele><time>2017-9-19T1:56:50Z</time></trkpt>
<trkpt lat="48.458755" lon="2.656629"><ele></ele><time>2017-9-19T1:56:53Z</time></trkpt>
<trkpt lat="48.45889" lon="2.656334"><ele></ele><time>2017-9-19T1:56:56Z</time></trkpt>
<trkpt lat="48.458955" lon="2.656223"><ele></ele><time>2017-9-19T1:56:59Z</time></trkpt>
<trkpt lat="48.459033" lon="2.656089"><ele></ele><time>2017-9-19T1:57:2Z</time></trkpt>
<trkpt lat="48.459121" lon="2.655947"><ele></ele><time>2017-9-19T1:57:5Z</time></trkpt>
<trkpt lat="48.459181" lon="2.655824"><ele></ele><time>2017-9-19T1:57:8Z</time></trkpt>
<trkpt lat="48.459246" lon="2.655708"><ele></ele><time>2017-9-19T1:57:11Z</time></trkpt>
<trkpt lat="48.459331" lon="2.655528"><ele></ele><time>2017-9-19T1:57:14Z</time></trkpt>
<trkpt lat="48.45938" lon="2.65535"><ele></ele><time>2017-9-19T1:57:17Z</time></trkpt>
<trkpt lat="48.459425" lon="2.65519"><ele></ele><time>2017-9-19T1:57:20Z</time></trkpt>
<trkpt lat="48.459482" lon="2.655032"><ele></ele><time>2017-9-19T1:57:23Z</time></trkpt>
<trkpt lat="48.459548" lon="2.654874"><ele></ele><time>2017-9-19T1:57:26Z</time></trkpt>
<trkpt lat="48.459573" lon="2.654713"><ele></ele><time>2017-9-19T1:57:29Z</time></trkpt>
<trkpt lat="48.459607" lon="2.654578"><ele></ele><time>2017-9-19T1:57:32Z</time></trkpt>
<trkpt lat="48.459614" lon="2.654434"><ele></ele><time>2017-9-19T1:57:35Z</time></trkpt>
<trkpt lat="48.459671" lon="2.654111"><ele></ele><time>2017-9-19T1:57:38Z</time></trkpt>
<trkpt lat="48.459705" lon="2.653922"><ele></ele><time>2017-9-19T1:57:41Z</time></trkpt>
<trkpt lat="48.459677" lon="2.653745"><ele></ele><time>2017-9-19T1:57:44Z</time></trkpt>
<trkpt lat="48.45958" lon="2.653608"><ele></ele><time>2017-9-19T1:57:47Z</time></trkpt>
<trkpt lat="48.459483" lon="2.653534"><ele></ele><time>2017-9-19T1:57:50Z</time></trkpt>
<trkpt lat="48.45938" lon="2.653475"><ele></ele><time>2017-9-19T1:57:53Z</time></trkpt>
<trkpt lat="48.459269" lon="2.653399"><ele></ele><time>2017-9-19T1:57:56Z</time></trkpt>
<trkpt lat="48.45914" lon="2.653366"><ele></ele><time>2017-9-19T1:57:59Z</time></trkpt>
<trkpt lat="48.458994" lon="2.653376"><ele></ele><time>2017-9-19T1:58:2Z</time></trkpt>
<trkpt lat="48.458878" lon="2.653415"><ele></ele><time>2017-9-19T1:58:5Z</time></trkpt>
<trkpt lat="48.458758" lon="2.653424"><ele></ele><time>2017-9-19T1:58:8Z</time></trkpt>
<trkpt lat="48.45865" lon="2.653419"><ele></ele><time>2017-9-19T1:58:11Z</time></trkpt>
<trkpt lat="48.458548" lon="2.653444"><ele></ele><time>2017-9-19T1:58:14Z</time></trkpt>
<trkpt lat="48.458451" lon="2.653453"><ele></ele><time>2017-9-19T1:58:17Z</time></trkpt>
<trkpt lat="48.458352" lon="2.653469"><ele></ele><time>2017-9-19T1:58:20Z</time></trkpt>
<trkpt lat="48.458256" lon="2.653476"><ele></ele><time>2017-9-19T1:58:23Z</time></trkpt>
<trkpt lat="48.458161" lon="2.653446"><ele></ele><time>2017-9-19T1:58:26Z</time></trkpt>
<trkpt lat="48.458056" lon="2.653389"><ele></ele><time>2017-9-19T1:58:29Z</time></trkpt>
<trkpt lat="48.457952" lon="2.653337"><ele></ele><time>2017-9-19T1:58:32Z</time></trkpt>
<trkpt lat="48.457866" lon="2.653238"><ele></ele><time>2017-9-19T1:58:35Z</time></trkpt>
<trkpt lat="48.457807" lon="2.653116"><ele></ele><time>2017-9-19T1:58:38Z</time></trkpt>
<trkpt lat="48.457723" lon="2.652955"><ele></ele><time>2017-9-19T1:58:41Z</time></trkpt>
<trkpt lat="48.457655" lon="2.652762"><ele></ele><time>2017-9-19T1:58:44Z</time></trkpt>
<trkpt lat="48.457603" lon="2.652608"><ele></ele><time>2017-9-19T1:58:47Z</time></trkpt>
<trkpt lat="48.457597" lon="2.652423"><ele></ele><time>2017-9-19T1:58:50Z</time></trkpt>
<trkpt lat="48.457625" lon="2.652288"><ele></ele><time>2017-9-19T1:58:53Z</time></trkpt>
<trkpt lat="48.457686" lon="2.652124"><ele></ele><time>2017-9-19T1:58:56Z</time></trkpt>
<trkpt lat="48.457811" lon="2.651817"><ele></ele><time>2017-9-19T1:58:59Z</time></trkpt>
<trkpt lat="48.457901" lon="2.651661"><ele></ele><time>2017-9-19T1:59:2Z</time></trkpt>
<trkpt lat="48.457985" lon="2.651569"><ele></ele><time>2017-9-19T1:59:5Z</time></trkpt>
<trkpt lat="48.458079" lon="2.651498"><ele></ele><time>2017-9-19T1:59:8Z</time></trkpt>
<trkpt lat="48.458183" lon="2.651448"><ele></ele><time>2017-9-19T1:59:11Z</time></trkpt>
<trkpt lat="48.458299" lon="2.651381"><ele></ele><time>2017-9-19T1:59:14Z</time></trkpt>
<trkpt lat="48.458389" lon="2.651354"><ele></ele><time>2017-9-19T1:59:17Z</time></trkpt>
<trkpt lat="48.458513" lon="2.651261"><ele></ele><time>2017-9-19T1:59:20Z</time></trkpt>
<trkpt lat="48.458612" lon="2.651133"><ele></ele><time>2017-9-19T1:59:23Z</time></trkpt>
<trkpt lat="48.458678" lon="2.650993"><ele></ele><time>2017-9-19T1:59:26Z</time></trkpt>
<trkpt lat="48.458689" lon="2.650832"><ele></ele><time>2017-9-19T1:59:29Z</time></trkpt>
<trkpt lat="48.45868" lon="2.650694"><ele></ele><time>2017-9-19T1:59:32Z</time></trkpt>
<trkpt lat="48.458643" lon="2.650525"><ele></ele><time>2017-9-19T1:59:35Z</time></trkpt>
<trkpt lat="48.458615" lon="2.65038"><ele></ele><time>2017-9-19T1:59:38Z</time></trkpt>
<trkpt lat="48.458534" lon="2.650228"><ele></ele><time>2017-9-19T1:59:41Z</time></trkpt>
<trkpt lat="48.458496" lon="2.650082"><ele></ele><time>2017-9-19T1:59:44Z</time></trkpt>
<trkpt lat="48.458411" lon="2.64996"><ele></ele><time>2017-9-19T1:59:47Z</time></trkpt>
<trkpt lat="48.458364" lon="2.649815"><ele></ele><time>2017-9-19T1:59:50Z</time></trkpt>
<trkpt lat="48.458293" lon="2.649676"><ele></ele><time>2017-9-19T1:59:53Z</time></trkpt>
<trkpt lat="48.458198" lon="2.649529"><ele></ele><time>2017-9-19T1:59:56Z</time></trkpt>
<trkpt lat="48.458146" lon="2.649412"><ele></ele><time>2017-9-19T1:59:59Z</time></trkpt>
<trkpt lat="48.458104" lon="2.649272"><ele></ele><time>2017-9-19T2:0:2Z</time></trkpt>
<trkpt lat="48.45807" lon="2.6491"><ele></ele><time>2017-9-19T2:0:5Z</time></trkpt>
<trkpt lat="48.458074" lon="2.648922"><ele></ele><time>2017-9-19T2:0:8Z</time></trkpt>
<trkpt lat="48.458083" lon="2.648743"><ele></ele><time>2017-9-19T2:0:11Z</time></trkpt>
<trkpt lat="48.458231" lon="2.648481"><ele></ele><time>2017-9-19T2:0:14Z</time></trkpt>
<trkpt lat="48.458331" lon="2.648401"><ele></ele><time>2017-9-19T2:0:17Z</time></trkpt>
<trkpt lat="48.458428" lon="2.648338"><ele></ele><time>2017-9-19T2:0:20Z</time></trkpt>
<trkpt lat="48.458522" lon="2.648291"><ele></ele><time>2017-9-19T2:0:23Z</time></trkpt>
<trkpt lat="48.458626" lon="2.648269"><ele></ele><time>2017-9-19T2:0:26Z</time></trkpt>
<trkpt lat="48.458753" lon="2.648181"><ele></ele><time>2017-9-19T2:0:29Z</time></trkpt>
<trkpt lat="48.458844" lon="2.648142"><ele></ele><time>2017-9-19T2:0:32Z</time></trkpt>
<trkpt lat="48.45894" lon="2.64812"><ele></ele><time>2017-9-19T2:0:35Z</time></trkpt>
<trkpt lat="48.459041" lon="2.648092"><ele></ele><time>2017-9-19T2:0:38Z</time></trkpt>
<trkpt lat="48.459142" lon="2.648045"><ele></ele><time>2017-9-19T2:0:41Z</time></trkpt>
<trkpt lat="48.459251" lon="2.647966"><ele></ele><time>2017-9-19T2:0:44Z</time></trkpt>
<trkpt lat="48.459377" lon="2.647831"><ele></ele><time>2017-9-19T2:0:47Z</time></trkpt>
<trkpt lat="48.45946" lon="2.647661"><ele></ele><time>2017-9-19T2:0:50Z</time></trkpt>
<trkpt lat="48.4595" lon="2.647523"><ele></ele><time>2017-9-19T2:0:53Z</time></trkpt>
<trkpt lat="48.459549" lon="2.647338"><ele></ele><time>2017-9-19T2:0:56Z</time></trkpt>
<trkpt lat="48.459548" lon="2.647165"><ele></ele><time>2017-9-19T2:0:59Z</time></trkpt>
<trkpt lat="48.459538" lon="2.646991"><ele></ele><time>2017-9-19T2:1:2Z</time></trkpt>
<trkpt lat="48.459524" lon="2.646757"><ele></ele><time>2017-9-19T2:1:5Z</time></trkpt>
<trkpt lat="48.45952" lon="2.646594"><ele></ele><time>2017-9-19T2:1:8Z</time></trkpt>
<trkpt lat="48.459515" lon="2.646397"><ele></ele><time>2017-9-19T2:1:11Z</time></trkpt>
<trkpt lat="48.459493" lon="2.646208"><ele></ele><time>2017-9-19T2:1:14Z</time></trkpt>
<trkpt lat="48.459474" lon="2.64603"><ele></ele><time>2017-9-19T2:1:17Z</time></trkpt>
<trkpt lat="48.459417" lon="2.645863"><ele></ele><time>2017-9-19T2:1:20Z</time></trkpt>
<trkpt lat="48.459385" lon="2.64572"><ele></ele><time>2017-9-19T2:1:23Z</time></trkpt>
<trkpt lat="48.459317" lon="2.64562"><ele></ele><time>2017-9-19T2:1:26Z</time></trkpt>
<trkpt lat="48.459253" lon="2.64551"><ele></ele><time>2017-9-19T2:1:29Z</time></trkpt>
<trkpt lat="48.459126" lon="2.645227"><ele></ele><time>2017-9-19T2:1:32Z</time></trkpt>
<trkpt lat="48.459089" lon="2.645043"><ele></ele><time>2017-9-19T2:1:35Z</time></trkpt>
<trkpt lat="48.459069" lon="2.644862"><ele></ele><time>2017-9-19T2:1:38Z</time></trkpt>
<trkpt lat="48.459057" lon="2.644724"><ele></ele><time>2017-9-19T2:1:41Z</time></trkpt>
<trkpt lat="48.459035" lon="2.644554"><ele></ele><time>2017-9-19T2:1:44Z</time></trkpt>
<trkpt lat="48.459033" lon="2.644394"><ele></ele><time>2017-9-19T2:1:47Z</time></trkpt>
<trkpt lat="48.459055" lon="2.644251"><ele></ele><time>2017-9-19T2:1:50Z</time></trkpt>
<trkpt lat="48.459064" lon="2.644019"><ele></ele><time>2017-9-19T2:1:53Z</time></trkpt>
<trkpt lat="48.459082" lon="2.643875"><ele></ele><time>2017-9-19T2:1:56Z</time></trkpt>
<trkpt lat="48.459083" lon="2.6437"><ele></ele><time>2017-9-19T2:1:59Z</time></trkpt>
<trkpt lat="48.459123" lon="2.643499"><ele></ele><time>2017-9-19T2:2:2Z</time></trkpt>
<trkpt lat="48.45918" lon="2.643328"><ele></ele><time>2017-9-19T2:2:5Z</time></trkpt>
<trkpt lat="48.459217" lon="2.643195"><ele></ele><time>2017-9-19T2:2:8Z</time></trkpt>
<trkpt lat="48.45926" lon="2.643069"><ele></ele><time>2017-9-19T2:2:11Z</time></trkpt>
<trkpt lat="48.459294" lon="2.64293"><ele></ele><time>2017-9-19T2:2:14Z</time></trkpt>
<trkpt lat="48.459348" lon="2.64272"><ele></ele><time>2017-9-19T2:2:17Z</time></trkpt>
<trkpt lat="48.459358" lon="2.642585"><ele></ele><time>2017-9-19T2:2:20Z</time></trkpt>
<trkpt lat="48.459383" lon="2.642381"><ele></ele><time>2017-9-19T2:2:23Z</time></trkpt>
<trkpt lat="48.459377" lon="2.642244"><ele></ele><time>2017-9-19T2:2:26Z</time></trkpt>
<trkpt lat="48.459379" lon="2.642092"><ele></ele><time>2017-9-19T2:2:29Z</time></trkpt>
<trkpt lat="48.459404" lon="2.641897"><ele></ele><time>2017-9-19T2:2:32Z</time></trkpt>
<trkpt lat="48.459446" lon="2.641721"><ele></ele><time>2017-9-19T2:2:35Z</time></trkpt>
<trkpt lat="48.459484" lon="2.641492"><ele></ele><time>2017-9-19T2:2:38Z</time></trkpt>
<trkpt lat="48.459482" lon="2.64134"><ele></ele><time>2017-9-19T2:2:41Z</time></trkpt>
<trkpt lat="48.459303" lon="2.641164"><ele></ele><time>2017-9-19T2:2:44Z</time></trkpt>
<trkpt lat="48.459189" lon="2.641148"><ele></ele><time>2017-9-19T2:2:47Z</time></trkpt>
<trkpt lat="48.459097" lon="2.641137"><ele></ele><time>2017-9-19T2:2:50Z</time></trkpt>
<trkpt lat="48.458993" lon="2.641151"><ele></ele><time>2017-9-19T2:2:53Z</time></trkpt>
<trkpt lat="48.458891" lon="2.641136"><ele></ele><time>2017-9-19T2:2:56Z</time></trkpt>
<trkpt lat="48.458794" lon="2.641138"><ele></ele><time>2017-9-19T2:2:59Z</time></trkpt>
<trkpt lat="48.458702" lon="2.641143"><ele></ele><time>2017-9-19T2:3:2Z</time></trkpt>
<trkpt lat="48.458612" lon="2.641164"><ele></ele><time>2017-9-19T2:3:5Z</time></trkpt>
<trkpt lat="48.45852" lon="2.641166"><ele></ele><time>2017-9-19T2:3:8Z</time></trkpt>
<trkpt lat="48.458423" lon="2.641172"><ele></ele><time>2017-9-19T2:3:11Z</time></trkpt>
<trkpt lat="48.458324" lon="2.641149"><ele></ele><time>2017-9-19T2:3:14Z</time></trkpt>
<trkpt lat="48.45823" lon="2.641165"><ele></ele><time>2017-9-19T2:3:17Z</time></trkpt>
<trkpt lat="48.458124" lon="2.641165"><ele></ele><time>2017-9-19T2:3:20Z</time></trkpt>
<trkpt lat="48.458028" lon="2.641104"><ele></ele><time>2017-9-19T2:3:23Z</time></trkpt>
<trkpt lat="48.457953" lon="2.641006"><ele></ele><time>2017-9-19T2:3:26Z</time></trkpt>
<trkpt lat="48.457874" lon="2.64088"><ele></ele><time>2017-9-19T2:3:29Z</time></trkpt>
<trkpt lat="48.457828" lon="2.640756"><ele></ele><time>2017-9-19T2:3:32Z</time></trkpt>
<trkpt lat="48.457785" lon="2.640594"><ele></ele><time>2017-9-19T2:3:35Z</time></trkpt>
<trkpt lat="48.457746" lon="2.640444"><ele></ele><time>2017-9-19T2:3:38Z</time></trkpt>
<trkpt lat="48.457646" lon="2.64019"><ele></ele><time>2017-9-19T2:3:41Z</time></trkpt>
<trkpt lat="48.457598" lon="2.640075"><ele></ele><time>2017-9-19T2:3:44Z</time></trkpt>
<trkpt lat="48.45756" lon="2.63992"><ele></ele><time>2017-9-19T2:3:47Z</time></trkpt>
<trkpt lat="48.457541" lon="2.63976"><ele></ele><time>2017-9-19T2:3:50Z</time></trkpt>
<trkpt lat="48.457539" lon="2.639568"><ele></ele><time>2017-9-19T2:3:53Z</time></trkpt>
<trkpt lat="48.457575" lon="2.639426"><ele></ele><time>2017-9-19T2:3:56Z</time></trkpt>
<trkpt lat="48.45758" lon="2.639286"><ele></ele><time>2017-9-19T2:3:59Z</time></trkpt>
<trkpt lat="48.457586" lon="2.639062"><ele></ele><time>2017-9-19T2:4:2Z</time></trkpt>
<trkpt lat="48.457608" lon="2.63887"><ele></ele><time>2017-9-19T2:4:5Z</time></trkpt>
<trkpt lat="48.457633" lon="2.638734"><ele></ele><time>2017-9-19T2:4:8Z</time></trkpt>
<trkpt lat="48.45766" lon="2.638559"><ele></ele><time>2017-9-19T2:4:11Z</time></trkpt>
<trkpt lat="48.457664" lon="2.638391"><ele></ele><time>2017-9-19T2:4:14Z</time></trkpt>
<trkpt lat="48.457605" lon="2.638282"><ele></ele><time>2017-9-19T2:4:17Z</time></trkpt>
<trkpt lat="48.45749" lon="2.638205"><ele></ele><time>2017-9-19T2:4:20Z</time></trkpt>
<trkpt lat="48.457376" lon="2.638313"><ele></ele><time>2017-9-19T2:4:23Z</time></trkpt>
<trkpt lat="48.457307" lon="2.638408"><ele></ele><time>2017-9-19T2:4:26Z</time></trkpt>
<trkpt lat="48.457256" lon="2.638539"><ele></ele><time>2017-9-19T2:4:29Z</time></trkpt>
<trkpt lat="48.45721" lon="2.638678"><ele></ele><time>2017-9-19T2:4:32Z</time></trkpt>
<trkpt lat="48.457178" lon="2.638806"><ele></ele><time>2017-9-19T2:4:35Z</time></trkpt>
<trkpt lat="48.457142" lon="2.638941"><ele></ele><time>2017-9-19T2:4:38Z</time></trkpt>
<trkpt lat="48.457072" lon="2.639079"><ele></ele><time>2017-9-19T2:4:41Z</time></trkpt>
<trkpt lat="48.456946" lon="2.639153"><ele></ele><time>2017-9-19T2:4:44Z</time></trkpt>
<trkpt lat="48.456765" lon="2.639236"><ele></ele><time>2017-9-19T2:4:47Z</time></trkpt>
<trkpt lat="48.456651" lon="2.639289"><ele></ele><time>2017-9-19T2:4:50Z</time></trkpt>
<trkpt lat="48.456559" lon="2.639309"><ele></ele><time>2017-9-19T2:4:53Z</time></trkpt>
<trkpt lat="48.456426" lon="2.63928"><ele></ele><time>2017-9-19T2:4:56Z</time></trkpt>
<trkpt lat="48.456338" lon="2.639251"><ele></ele><time>2017-9-19T2:4:59Z</time></trkpt>
<trkpt lat="48.456283" lon="2.639138"><ele></ele><time>2017-9-19T2:5:2Z</time></trkpt>
<trkpt lat="48.456237" lon="2.638993"><ele></ele><time>2017-9-19T2:5:5Z</time></trkpt>
<trkpt lat="48.456171" lon="2.638817"><ele></ele><time>2017-9-19T2:5:8Z</time></trkpt>
<trkpt lat="48.456106" lon="2.638701"><ele></ele><time>2017-9-19T2:5:11Z</time></trkpt>
<trkpt lat="48.45601" lon="2.638628"><ele></ele><time>2017-9-19T2:5:14Z</time></trkpt>
<trkpt lat="48.45588" lon="2.638642"><ele></ele><time>2017-9-19T2:5:17Z</time></trkpt>
<trkpt lat="48.455778" lon="2.638695"><ele></ele><time>2017-9-19T2:5:20Z</time></trkpt>
<trkpt lat="48.455652" lon="2.638699"><ele></ele><time>2017-9-19T2:5:23Z</time></trkpt>
<trkpt lat="48.455543" lon="2.638623"><ele></ele><time>2017-9-19T2:5:26Z</time></trkpt>
<trkpt lat="48.455463" lon="2.638554"><ele></ele><time>2017-9-19T2:5:29Z</time></trkpt>
<trkpt lat="48.455384" lon="2.638478"><ele></ele><time>2017-9-19T2:5:32Z</time></trkpt>
<trkpt lat="48.455273" lon="2.638436"><ele></ele><time>2017-9-19T2:5:35Z</time></trkpt>
<trkpt lat="48.455175" lon="2.638424"><ele></ele><time>2017-9-19T2:5:38Z</time></trkpt>
<trkpt lat="48.455042" lon="2.638439"><ele></ele><time>2017-9-19T2:5:41Z</time></trkpt>
<trkpt lat="48.454952" lon="2.63842"><ele></ele><time>2017-9-19T2:5:44Z</time></trkpt>
<trkpt lat="48.454836" lon="2.638377"><ele></ele><time>2017-9-19T2:5:47Z</time></trkpt>
<trkpt lat="48.454755" lon="2.638281"><ele></ele><time>2017-9-19T2:5:50Z</time></trkpt>
<trkpt lat="48.454688" lon="2.638186"><ele></ele><time>2017-9-19T2:5:53Z</time></trkpt>
<trkpt lat="48.454631" lon="2.638058"><ele></ele><time>2017-9-19T2:5:56Z</time></trkpt>
<trkpt lat="48.454468" lon="2.637819"><ele></ele><time>2017-9-19T2:5:59Z</time></trkpt>
<trkpt lat="48.454429" lon="2.637661"><ele></ele><time>2017-9-19T2:6:2Z</time></trkpt>
<trkpt lat="48.454385" lon="2.63748"><ele></ele><time>2017-9-19T2:6:5Z</time></trkpt>
<trkpt lat="48.454392" lon="2.63731"><ele></ele><time>2017-9-19T2:6:8Z</time></trkpt>
<trkpt lat="48.454377" lon="2.63714"><ele></ele><time>2017-9-19T2:6:11Z</time></trkpt>
<trkpt lat="48.454363" lon="2.636994"><ele></ele><time>2017-9-19T2:6:14Z</time></trkpt>
<trkpt lat="48.454327" lon="2.636823"><ele></ele><time>2017-9-19T2:6:17Z</time></trkpt>
<trkpt lat="48.454279" lon="2.636656"><ele></ele><time>2017-9-19T2:6:20Z</time></trkpt>
<trkpt lat="48.454214" lon="2.636536"><ele></ele><time>2017-9-19T2:6:23Z</time></trkpt>
<trkpt lat="48.454134" lon="2.636446"><ele></ele><time>2017-9-19T2:6:26Z</time></trkpt>
<trkpt lat="48.454041" lon="2.636331"><ele></ele><time>2017-9-19T2:6:29Z</time></trkpt>
<trkpt lat="48.453921" lon="2.636258"><ele></ele><time>2017-9-19T2:6:32Z</time></trkpt>
<trkpt lat="48.453822" lon="2.63623"><ele></ele><time>2017-9-19T2:6:35Z</time></trkpt>
<trkpt lat="48.453731" lon="2.63626"><ele></ele><time>2017-9-19T2:6:38Z</time></trkpt>
<trkpt lat="48.453629" lon="2.6363"><ele></ele><time>2017-9-19T2:6:41Z</time></trkpt>
<trkpt lat="48.453523" lon="2.636364"><ele></ele><time>2017-9-19T2:6:44Z</time></trkpt>
<trkpt lat="48.45343" lon="2.63642"><ele></ele><time>2017-9-19T2:6:47Z</time></trkpt>
<trkpt lat="48.453336" lon="2.636468"><ele></ele><time>2017-9-19T2:6:50Z</time></trkpt>
<trkpt lat="48.453253" lon="2.636525"><ele></ele><time>2017-9-19T2:6:53Z</time></trkpt>
<trkpt lat="48.45316" lon="2.636561"><ele></ele><time>2017-9-19T2:6:56Z</time></trkpt>
<trkpt lat="48.453038" lon="2.636635"><ele></ele><time>2017-9-19T2:6:59Z</time></trkpt>
<trkpt lat="48.452926" lon="2.636535"><ele></ele><time>2017-9-19T2:7:2Z</time></trkpt>
<trkpt lat="48.452835" lon="2.636469"><ele></ele><time>2017-9-19T2:7:5Z</time></trkpt>
<trkpt lat="48.452778" lon="2.636335"><ele></ele><time>2017-9-19T2:7:8Z</time></trkpt>
<trkpt lat="48.45265" lon="2.636088"><ele></ele><time>2017-9-19T2:7:11Z</time></trkpt>
<trkpt lat="48.452559" lon="2.636023"><ele></ele><time>2017-9-19T2:7:14Z</time></trkpt>
<trkpt lat="48.45246" lon="2.635963"><ele></ele><time>2017-9-19T2:7:17Z</time></trkpt>
<trkpt lat="48.452367" lon="2.63601"><ele></ele><time>2017-9-19T2:7:20Z</time></trkpt>
<trkpt lat="48.452241" lon="2.636037"><ele></ele><time>2017-9-19T2:7:23Z</time></trkpt>
<trkpt lat="48.452131" lon="2.636016"><ele></ele><time>2017-9-19T2:7:26Z</time></trkpt>
<trkpt lat="48.452053" lon="2.635902"><ele></ele><time>2017-9-19T2:7:29Z</time></trkpt>
<trkpt lat="48.451988" lon="2.635764"><ele></ele><time>2017-9-19T2:7:32Z</time></trkpt>
<trkpt lat="48.45197" lon="2.635549"><ele></ele><time>2017-9-19T2:7:35Z</time></trkpt>
<trkpt lat="48.451971" lon="2.635404"><ele></ele><time>2017-9-19T2:7:38Z</time></trkpt>
<trkpt lat="48.451965" lon="2.635268"><ele></ele><time>2017-9-19T2:7:41Z</time></trkpt>
<trkpt lat="48.451966" lon="2.635072"><ele></ele><time>2017-9-19T2:7:44Z</time></trkpt>
<trkpt lat="48.451983" lon="2.634925"><ele></ele><time>2017-9-19T2:7:47Z</time></trkpt>
<trkpt lat="48.452003" lon="2.634744"><ele></ele><time>2017-9-19T2:7:50Z</time></trkpt>
<trkpt lat="48.452014" lon="2.634555"><ele></ele><time>2017-9-19T2:7:53Z</time></trkpt>
<trkpt lat="48.45202" lon="2.634385"><ele></ele><time>2017-9-19T2:7:56Z</time></trkpt>
<trkpt lat="48.45203" lon="2.634227"><ele></ele><time>2017-9-19T2:7:59Z</time></trkpt>
<trkpt lat="48.452048" lon="2.63408"><ele></ele><time>2017-9-19T2:8:2Z</time></trkpt>
<trkpt lat="48.452047" lon="2.633894"><ele></ele><time>2017-9-19T2:8:5Z</time></trkpt>
<trkpt lat="48.452054" lon="2.633753"><ele></ele><time>2017-9-19T2:8:8Z</time></trkpt>
<trkpt lat="48.452105" lon="2.633628"><ele></ele><time>2017-9-19T2:8:11Z</time></trkpt>
<trkpt lat="48.452147" lon="2.6335"><ele></ele><time>2017-9-19T2:8:14Z</time></trkpt>
<trkpt lat="48.452099" lon="2.633615"><ele></ele><time>2017-9-19T2:8:17Z</time></trkpt>
<trkpt lat="48.451995" lon="2.633867"><ele></ele><time>2017-9-19T2:8:20Z</time></trkpt>
<trkpt lat="48.452034" lon="2.634067"><ele></ele><time>2017-9-19T2:8:23Z</time></trkpt>
<trkpt lat="48.452036" lon="2.634217"><ele></ele><time>2017-9-19T2:8:26Z</time></trkpt>
<trkpt lat="48.452047" lon="2.634424"><ele></ele><time>2017-9-19T2:8:29Z</time></trkpt>
<trkpt lat="48.45204" lon="2.634568"><ele></ele><time>2017-9-19T2:8:32Z</time></trkpt>
<trkpt lat="48.45199" lon="2.634912"><ele></ele><time>2017-9-19T2:8:35Z</time></trkpt>
<trkpt lat="48.451892" lon="2.635126"><ele></ele><time>2017-9-19T2:8:38Z</time></trkpt>
<trkpt lat="48.451829" lon="2.6353"><ele></ele><time>2017-9-19T2:8:41Z</time></trkpt>
<trkpt lat="48.451734" lon="2.635477"><ele></ele><time>2017-9-19T2:8:44Z</time></trkpt>
<trkpt lat="48.451731" lon="2.635665"><ele></ele><time>2017-9-19T2:8:47Z</time></trkpt>
<trkpt lat="48.451756" lon="2.635806"><ele></ele><time>2017-9-19T2:8:50Z</time></trkpt>
<trkpt lat="48.451774" lon="2.635943"><ele></ele><time>2017-9-19T2:8:53Z</time></trkpt>
<trkpt lat="48.451754" lon="2.636154"><ele></ele><time>2017-9-19T2:8:56Z</time></trkpt>
<trkpt lat="48.45162" lon="2.636308"><ele></ele><time>2017-9-19T2:8:59Z</time></trkpt>
<trkpt lat="48.451516" lon="2.636395"><ele></ele><time>2017-9-19T2:9:2Z</time></trkpt>
<trkpt lat="48.45139" lon="2.636411"><ele></ele><time>2017-9-19T2:9:5Z</time></trkpt>
<trkpt lat="48.451305" lon="2.636583"><ele></ele><time>2017-9-19T2:9:8Z</time></trkpt>
<trkpt lat="48.451283" lon="2.636725"><ele></ele><time>2017-9-19T2:9:11Z</time></trkpt>
<trkpt lat="48.451209" lon="2.636825"><ele></ele><time>2017-9-19T2:9:14Z</time></trkpt>
<trkpt lat="48.45113" lon="2.636926"><ele></ele><time>2017-9-19T2:9:17Z</time></trkpt>
<trkpt lat="48.451107" lon="2.637105"><ele></ele><time>2017-9-19T2:9:20Z</time></trkpt>
<trkpt lat="48.450935" lon="2.637487"><ele></ele><time>2017-9-19T2:9:23Z</time></trkpt>
<trkpt lat="48.450943" lon="2.637659"><ele></ele><time>2017-9-19T2:9:26Z</time></trkpt>
<trkpt lat="48.450919" lon="2.6378"><ele></ele><time>2017-9-19T2:9:29Z</time></trkpt>
<trkpt lat="48.45092" lon="2.637973"><ele></ele><time>2017-9-19T2:9:32Z</time></trkpt>
<trkpt lat="48.450905" lon="2.638194"><ele></ele><time>2017-9-19T2:9:35Z</time></trkpt>
<trkpt lat="48.450922" lon="2.638402"><ele></ele><time>2017-9-19T2:9:38Z</time></trkpt>
<trkpt lat="48.450907" lon="2.638559"><ele></ele><time>2017-9-19T2:9:41Z</time></trkpt>
<trkpt lat="48.450872" lon="2.63869"><ele></ele><time>2017-9-19T2:9:44Z</time></trkpt>
<trkpt lat="48.450901" lon="2.638918"><ele></ele><time>2017-9-19T2:9:47Z</time></trkpt>
<trkpt lat="48.450899" lon="2.639121"><ele></ele><time>2017-9-19T2:9:50Z</time></trkpt>
<trkpt lat="48.450902" lon="2.639283"><ele></ele><time>2017-9-19T2:9:53Z</time></trkpt>
<trkpt lat="48.450875" lon="2.639482"><ele></ele><time>2017-9-19T2:9:56Z</time></trkpt>
<trkpt lat="48.450923" lon="2.639626"><ele></ele><time>2017-9-19T2:9:59Z</time></trkpt>
<trkpt lat="48.450951" lon="2.639758"><ele></ele><time>2017-9-19T2:10:2Z</time></trkpt>
<trkpt lat="48.451007" lon="2.63987"><ele></ele><time>2017-9-19T2:10:5Z</time></trkpt>
<trkpt lat="48.451076" lon="2.640018"><ele></ele><time>2017-9-19T2:10:8Z</time></trkpt>
<trkpt lat="48.45104" lon="2.640229"><ele></ele><time>2017-9-19T2:10:11Z</time></trkpt>
<trkpt lat="48.450935" lon="2.640395"><ele></ele><time>2017-9-19T2:10:14Z</time></trkpt>
<trkpt lat="48.450892" lon="2.640552"><ele></ele><time>2017-9-19T2:10:17Z</time></trkpt>
<trkpt lat="48.450782" lon="2.640708"><ele></ele><time>2017-9-19T2:10:20Z</time></trkpt>
<trkpt lat="48.450713" lon="2.640881"><ele></ele><time>2017-9-19T2:10:23Z</time></trkpt>
<trkpt lat="48.450485" lon="2.641265"><ele></ele><time>2017-9-19T2:10:26Z</time></trkpt>
<trkpt lat="48.450406" lon="2.641397"><ele></ele><time>2017-9-19T2:10:29Z</time></trkpt>
<trkpt lat="48.450329" lon="2.64148"><ele></ele><time>2017-9-19T2:10:32Z</time></trkpt>
<trkpt lat="48.450257" lon="2.641637"><ele></ele><time>2017-9-19T2:10:35Z</time></trkpt>
<trkpt lat="48.450164" lon="2.641732"><ele></ele><time>2017-9-19T2:10:38Z</time></trkpt>
<trkpt lat="48.450088" lon="2.641891"><ele></ele><time>2017-9-19T2:10:41Z</time></trkpt>
<trkpt lat="48.450001" lon="2.64201"><ele></ele><time>2017-9-19T2:10:44Z</time></trkpt>
<trkpt lat="48.449911" lon="2.642108"><ele></ele><time>2017-9-19T2:10:47Z</time></trkpt>
<trkpt lat="48.449857" lon="2.642237"><ele></ele><time>2017-9-19T2:10:50Z</time></trkpt>
<trkpt lat="48.449788" lon="2.642333"><ele></ele><time>2017-9-19T2:10:53Z</time></trkpt>
<trkpt lat="48.449647" lon="2.642503"><ele></ele><time>2017-9-19T2:10:56Z</time></trkpt>
<trkpt lat="48.449532" lon="2.642658"><ele></ele><time>2017-9-19T2:10:59Z</time></trkpt>
<trkpt lat="48.449442" lon="2.642773"><ele></ele><time>2017-9-19T2:11:2Z</time></trkpt>
<trkpt lat="48.449349" lon="2.64298"><ele></ele><time>2017-9-19T2:11:5Z</time></trkpt>
<trkpt lat="48.449266" lon="2.643221"><ele></ele><time>2017-9-19T2:11:8Z</time></trkpt>
<trkpt lat="48.449321" lon="2.643358"><ele></ele><time>2017-9-19T2:11:11Z</time></trkpt>
<trkpt lat="48.449355" lon="2.643532"><ele></ele><time>2017-9-19T2:11:14Z</time></trkpt>
<trkpt lat="48.44943" lon="2.643664"><ele></ele><time>2017-9-19T2:11:17Z</time></trkpt>
<trkpt lat="48.449519" lon="2.643788"><ele></ele><time>2017-9-19T2:11:20Z</time></trkpt>
<trkpt lat="48.449511" lon="2.643926"><ele></ele><time>2017-9-19T2:11:23Z</time></trkpt>
<trkpt lat="48.449537" lon="2.644058"><ele></ele><time>2017-9-19T2:11:26Z</time></trkpt>
<trkpt lat="48.44956" lon="2.644507"><ele></ele><time>2017-9-19T2:11:29Z</time></trkpt>
<trkpt lat="48.449565" lon="2.644678"><ele></ele><time>2017-9-19T2:11:32Z</time></trkpt>
<trkpt lat="48.449483" lon="2.644799"><ele></ele><time>2017-9-19T2:11:35Z</time></trkpt>
<trkpt lat="48.449479" lon="2.645006"><ele></ele><time>2017-9-19T2:11:38Z</time></trkpt>
<trkpt lat="48.449461" lon="2.645164"><ele></ele><time>2017-9-19T2:11:41Z</time></trkpt>
<trkpt lat="48.449461" lon="2.645357"><ele></ele><time>2017-9-19T2:11:44Z</time></trkpt>
<trkpt lat="48.449488" lon="2.645545"><ele></ele><time>2017-9-19T2:11:47Z</time></trkpt>
<trkpt lat="48.449498" lon="2.645691"><ele></ele><time>2017-9-19T2:11:50Z</time></trkpt>
<trkpt lat="48.449545" lon="2.645833"><ele></ele><time>2017-9-19T2:11:53Z</time></trkpt>
<trkpt lat="48.449588" lon="2.646011"><ele></ele><time>2017-9-19T2:11:56Z</time></trkpt>
<trkpt lat="48.44962" lon="2.646152"><ele></ele><time>2017-9-19T2:11:59Z</time></trkpt>
<trkpt lat="48.449596" lon="2.646337"><ele></ele><time>2017-9-19T2:12:2Z</time></trkpt>
<trkpt lat="48.449584" lon="2.646498"><ele></ele><time>2017-9-19T2:12:5Z</time></trkpt>
<trkpt lat="48.44955" lon="2.646626"><ele></ele><time>2017-9-19T2:12:8Z</time></trkpt>
<trkpt lat="48.449526" lon="2.646779"><ele></ele><time>2017-9-19T2:12:11Z</time></trkpt>
<trkpt lat="48.44953" lon="2.646961"><ele></ele><time>2017-9-19T2:12:14Z</time></trkpt>
<trkpt lat="48.449408" lon="2.64707"><ele></ele><time>2017-9-19T2:12:17Z</time></trkpt>
<trkpt lat="48.449292" lon="2.647111"><ele></ele><time>2017-9-19T2:12:20Z</time></trkpt>
<trkpt lat="48.449148" lon="2.647175"><ele></ele><time>2017-9-19T2:12:23Z</time></trkpt>
<trkpt lat="48.449042" lon="2.647299"><ele></ele><time>2017-9-19T2:12:26Z</time></trkpt>
<trkpt lat="48.448978" lon="2.647397"><ele></ele><time>2017-9-19T2:12:29Z</time></trkpt>
<trkpt lat="48.448857" lon="2.647795"><ele></ele><time>2017-9-19T2:12:32Z</time></trkpt>
<trkpt lat="48.44878" lon="2.647946"><ele></ele><time>2017-9-19T2:12:35Z</time></trkpt>
<trkpt lat="48.448725" lon="2.648055"><ele></ele><time>2017-9-19T2:12:38Z</time></trkpt>
<trkpt lat="48.44866" lon="2.648323"><ele></ele><time>2017-9-19T2:12:41Z</time></trkpt>
<trkpt lat="48.448565" lon="2.648526"><ele></ele><time>2017-9-19T2:12:44Z</time></trkpt>
<trkpt lat="48.448473" lon="2.64875"><ele></ele><time>2017-9-19T2:12:47Z</time></trkpt>
<trkpt lat="48.448396" lon="2.648942"><ele></ele><time>2017-9-19T2:12:50Z</time></trkpt>
<trkpt lat="48.448353" lon="2.649076"><ele></ele><time>2017-9-19T2:12:53Z</time></trkpt>
<trkpt lat="48.448308" lon="2.649195"><ele></ele><time>2017-9-19T2:12:56Z</time></trkpt>
<trkpt lat="48.448248" lon="2.649401"><ele></ele><time>2017-9-19T2:12:59Z</time></trkpt>
<trkpt lat="48.448188" lon="2.649619"><ele></ele><time>2017-9-19T2:13:2Z</time></trkpt>
<trkpt lat="48.448131" lon="2.649766"><ele></ele><time>2017-9-19T2:13:5Z</time></trkpt>
<trkpt lat="48.448106" lon="2.649926"><ele></ele><time>2017-9-19T2:13:8Z</time></trkpt>
<trkpt lat="48.448042" lon="2.650106"><ele></ele><time>2017-9-19T2:13:11Z</time></trkpt>
<trkpt lat="48.447994" lon="2.650247"><ele></ele><time>2017-9-19T2:13:14Z</time></trkpt>
<trkpt lat="48.447932" lon="2.650361"><ele></ele><time>2017-9-19T2:13:17Z</time></trkpt>
<trkpt lat="48.447811" lon="2.650594"><ele></ele><time>2017-9-19T2:13:20Z</time></trkpt>
<trkpt lat="48.447781" lon="2.65083"><ele></ele><time>2017-9-19T2:13:23Z</time></trkpt>
<trkpt lat="48.447758" lon="2.651"><ele></ele><time>2017-9-19T2:13:26Z</time></trkpt>
<trkpt lat="48.447851" lon="2.651113"><ele></ele><time>2017-9-19T2:13:29Z</time></trkpt>
<trkpt lat="48.447893" lon="2.651245"><ele></ele><time>2017-9-19T2:13:32Z</time></trkpt>
<trkpt lat="48.448008" lon="2.651555"><ele></ele><time>2017-9-19T2:13:35Z</time></trkpt>
<trkpt lat="48.448057" lon="2.651754"><ele></ele><time>2017-9-19T2:13:38Z</time></trkpt>
<trkpt lat="48.448121" lon="2.651955"><ele></ele><time>2017-9-19T2:13:41Z</time></trkpt>
<trkpt lat="48.448212" lon="2.65213"><ele></ele><time>2017-9-19T2:13:44Z</time></trkpt>
<trkpt lat="48.44826" lon="2.652283"><ele></ele><time>2017-9-19T2:13:47Z</time></trkpt>
<trkpt lat="48.448319" lon="2.652437"><ele></ele><time>2017-9-19T2:13:50Z</time></trkpt>
<trkpt lat="48.448387" lon="2.652544"><ele></ele><time>2017-9-19T2:13:53Z</time></trkpt>
<trkpt lat="48.448458" lon="2.652655"><ele></ele><time>2017-9-19T2:13:56Z</time></trkpt>
<trkpt lat="48.448585" lon="2.652848"><ele></ele><time>2017-9-19T2:13:59Z</time></trkpt>
<trkpt lat="48.44866" lon="2.652963"><ele></ele><time>2017-9-19T2:14:2Z</time></trkpt>
<trkpt lat="48.44874" lon="2.653138"><ele></ele><time>2017-9-19T2:14:5Z</time></trkpt>
<trkpt lat="48.448824" lon="2.653288"><ele></ele><time>2017-9-19T2:14:8Z</time></trkpt>
<trkpt lat="48.448907" lon="2.653482"><ele></ele><time>2017-9-19T2:14:11Z</time></trkpt>
<trkpt lat="48.44899" lon="2.653649"><ele></ele><time>2017-9-19T2:14:14Z</time></trkpt>
<trkpt lat="48.44905" lon="2.653828"><ele></ele><time>2017-9-19T2:14:17Z</time></trkpt>
<trkpt lat="48.449061" lon="2.654113"><ele></ele><time>2017-9-19T2:14:20Z</time></trkpt>
<trkpt lat="48.449009" lon="2.654234"><ele></ele><time>2017-9-19T2:14:23Z</time></trkpt>
<trkpt lat="48.448979" lon="2.654372"><ele></ele><time>2017-9-19T2:14:26Z</time></trkpt>
<trkpt lat="48.448924" lon="2.654575"><ele></ele><time>2017-9-19T2:14:29Z</time></trkpt>
<trkpt lat="48.448875" lon="2.6547"><ele></ele><time>2017-9-19T2:14:32Z</time></trkpt>
<trkpt lat="48.448812" lon="2.65485"><ele></ele><time>2017-9-19T2:14:35Z</time></trkpt>
<trkpt lat="48.448761" lon="2.655008"><ele></ele><time>2017-9-19T2:14:38Z</time></trkpt>
<trkpt lat="48.448724" lon="2.655156"><ele></ele><time>2017-9-19T2:14:41Z</time></trkpt>
<trkpt lat="48.448685" lon="2.655279"><ele></ele><time>2017-9-19T2:14:44Z</time></trkpt>
<trkpt lat="48.448555" lon="2.655689"><ele></ele><time>2017-9-19T2:14:47Z</time></trkpt>
<trkpt lat="48.448515" lon="2.655818"><ele></ele><time>2017-9-19T2:14:50Z</time></trkpt>
<trkpt lat="48.448461" lon="2.656031"><ele></ele><time>2017-9-19T2:14:53Z</time></trkpt>
<trkpt lat="48.448454" lon="2.656171"><ele></ele><time>2017-9-19T2:14:56Z</time></trkpt>
<trkpt lat="48.448416" lon="2.656318"><ele></ele><time>2017-9-19T2:14:59Z</time></trkpt>
<trkpt lat="48.448384" lon="2.656521"><ele></ele><time>2017-9-19T2:15:2Z</time></trkpt>
<trkpt lat="48.448326" lon="2.656669"><ele></ele><time>2017-9-19T2:15:5Z</time></trkpt>
<trkpt lat="48.448287" lon="2.656858"><ele></ele><time>2017-9-19T2:15:8Z</time></trkpt>
<trkpt lat="48.448235" lon="2.657029"><ele></ele><time>2017-9-19T2:15:11Z</time></trkpt>
<trkpt lat="48.448189" lon="2.657148"><ele></ele><time>2017-9-19T2:15:14Z</time></trkpt>
<trkpt lat="48.448169" lon="2.657305"><ele></ele><time>2017-9-19T2:15:17Z</time></trkpt>
<trkpt lat="48.448085" lon="2.657502"><ele></ele><time>2017-9-19T2:15:20Z</time></trkpt>
<trkpt lat="48.448014" lon="2.657782"><ele></ele><time>2017-9-19T2:15:23Z</time></trkpt>
<trkpt lat="48.447976" lon="2.657937"><ele></ele><time>2017-9-19T2:15:26Z</time></trkpt>
<trkpt lat="48.447923" lon="2.658097"><ele></ele><time>2017-9-19T2:15:29Z</time></trkpt>
<trkpt lat="48.447864" lon="2.658271"><ele></ele><time>2017-9-19T2:15:32Z</time></trkpt>
<trkpt lat="48.44783" lon="2.658466"><ele></ele><time>2017-9-19T2:15:35Z</time></trkpt>
<trkpt lat="48.447779" lon="2.658644"><ele></ele><time>2017-9-19T2:15:38Z</time></trkpt>
<trkpt lat="48.447767" lon="2.658792"><ele></ele><time>2017-9-19T2:15:41Z</time></trkpt>
<trkpt lat="48.447731" lon="2.658934"><ele></ele><time>2017-9-19T2:15:44Z</time></trkpt>
<trkpt lat="48.447685" lon="2.659069"><ele></ele><time>2017-9-19T2:15:47Z</time></trkpt>
<trkpt lat="48.447574" lon="2.659375"><ele></ele><time>2017-9-19T2:15:50Z</time></trkpt>
<trkpt lat="48.447495" lon="2.659644"><ele></ele><time>2017-9-19T2:15:53Z</time></trkpt>
<trkpt lat="48.447464" lon="2.659818"><ele></ele><time>2017-9-19T2:15:56Z</time></trkpt>
<trkpt lat="48.447356" lon="2.660149"><ele></ele><time>2017-9-19T2:15:59Z</time></trkpt>
<trkpt lat="48.447303" lon="2.660305"><ele></ele><time>2017-9-19T2:16:2Z</time></trkpt>
<trkpt lat="48.447262" lon="2.660426"><ele></ele><time>2017-9-19T2:16:5Z</time></trkpt>
<trkpt lat="48.447164" lon="2.660486"><ele></ele><time>2017-9-19T2:16:8Z</time></trkpt>
<trkpt lat="48.44704" lon="2.660543"><ele></ele><time>2017-9-19T2:16:11Z</time></trkpt>
<trkpt lat="48.446953" lon="2.660617"><ele></ele><time>2017-9-19T2:16:14Z</time></trkpt>
<trkpt lat="48.446845" lon="2.660652"><ele></ele><time>2017-9-19T2:16:17Z</time></trkpt>
<trkpt lat="48.446618" lon="2.66079"><ele></ele><time>2017-9-19T2:16:20Z</time></trkpt>
<trkpt lat="48.446507" lon="2.660883"><ele></ele><time>2017-9-19T2:16:23Z</time></trkpt>
<trkpt lat="48.446397" lon="2.660927"><ele></ele><time>2017-9-19T2:16:26Z</time></trkpt>
<trkpt lat="48.446266" lon="2.661018"><ele></ele><time>2017-9-19T2:16:29Z</time></trkpt>
<trkpt lat="48.446166" lon="2.661047"><ele></ele><time>2017-9-19T2:16:32Z</time></trkpt>
<trkpt lat="48.446086" lon="2.661118"><ele></ele><time>2017-9-19T2:16:35Z</time></trkpt>
<trkpt lat="48.445932" lon="2.661202"><ele></ele><time>2017-9-19T2:16:38Z</time></trkpt>
<trkpt lat="48.445823" lon="2.661273"><ele></ele><time>2017-9-19T2:16:41Z</time></trkpt>
<trkpt lat="48.445695" lon="2.661364"><ele></ele><time>2017-9-19T2:16:44Z</time></trkpt>
<trkpt lat="48.445537" lon="2.661454"><ele></ele><time>2017-9-19T2:16:47Z</time></trkpt>
<trkpt lat="48.445455" lon="2.661515"><ele></ele><time>2017-9-19T2:16:50Z</time></trkpt>
<trkpt lat="48.445312" lon="2.661593"><ele></ele><time>2017-9-19T2:16:53Z</time></trkpt>
<trkpt lat="48.445317" lon="2.661423"><ele></ele><time>2017-9-19T2:16:56Z</time></trkpt>
<trkpt lat="48.445403" lon="2.661155"><ele></ele><time>2017-9-19T2:16:59Z</time></trkpt>
<trkpt lat="48.44545" lon="2.661031"><ele></ele><time>2017-9-19T2:17:2Z</time></trkpt>
<trkpt lat="48.445498" lon="2.660893"><ele></ele><time>2017-9-19T2:17:5Z</time></trkpt>
<trkpt lat="48.445562" lon="2.660733"><ele></ele><time>2017-9-19T2:17:8Z</time></trkpt>
<trkpt lat="48.445615" lon="2.660587"><ele></ele><time>2017-9-19T2:17:11Z</time></trkpt>
<trkpt lat="48.445685" lon="2.660427"><ele></ele><time>2017-9-19T2:17:14Z</time></trkpt>
<trkpt lat="48.445754" lon="2.660266"><ele></ele><time>2017-9-19T2:17:17Z</time></trkpt>
<trkpt lat="48.445811" lon="2.660126"><ele></ele><time>2017-9-19T2:17:20Z</time></trkpt>
<trkpt lat="48.445867" lon="2.659985"><ele></ele><time>2017-9-19T2:17:23Z</time></trkpt>
<trkpt lat="48.445925" lon="2.659838"><ele></ele><time>2017-9-19T2:17:26Z</time></trkpt>
<trkpt lat="48.446004" lon="2.659682"><ele></ele><time>2017-9-19T2:17:29Z</time></trkpt>
<trkpt lat="48.446085" lon="2.659567"><ele></ele><time>2017-9-19T2:17:32Z</time></trkpt>
<trkpt lat="48.446171" lon="2.659423"><ele></ele><time>2017-9-19T2:17:35Z</time></trkpt>
<trkpt lat="48.446229" lon="2.659293"><ele></ele><time>2017-9-19T2:17:38Z</time></trkpt>
<trkpt lat="48.446294" lon="2.659191"><ele></ele><time>2017-9-19T2:17:41Z</time></trkpt>
<trkpt lat="48.446331" lon="2.659032"><ele></ele><time>2017-9-19T2:17:44Z</time></trkpt>
<trkpt lat="48.446376" lon="2.658902"><ele></ele><time>2017-9-19T2:17:47Z</time></trkpt>
<trkpt lat="48.446463" lon="2.658693"><ele></ele><time>2017-9-19T2:17:50Z</time></trkpt>
<trkpt lat="48.446582" lon="2.658466"><ele></ele><time>2017-9-19T2:17:53Z</time></trkpt>
<trkpt lat="48.446634" lon="2.658321"><ele></ele><time>2017-9-19T2:17:56Z</time></trkpt>
<trkpt lat="48.4467" lon="2.658132"><ele></ele><time>2017-9-19T2:17:59Z</time></trkpt>
<trkpt lat="48.44673" lon="2.657939"><ele></ele><time>2017-9-19T2:18:2Z</time></trkpt>
<trkpt lat="48.446773" lon="2.657737"><ele></ele><time>2017-9-19T2:18:5Z</time></trkpt>
<trkpt lat="48.446794" lon="2.657554"><ele></ele><time>2017-9-19T2:18:8Z</time></trkpt>
<trkpt lat="48.446808" lon="2.65737"><ele></ele><time>2017-9-19T2:18:11Z</time></trkpt>
<trkpt lat="48.446829" lon="2.657196"><ele></ele><time>2017-9-19T2:18:14Z</time></trkpt>
<trkpt lat="48.446866" lon="2.657051"><ele></ele><time>2017-9-19T2:18:17Z</time></trkpt>
<trkpt lat="48.446904" lon="2.656886"><ele></ele><time>2017-9-19T2:18:20Z</time></trkpt>
<trkpt lat="48.446929" lon="2.656734"><ele></ele><time>2017-9-19T2:18:23Z</time></trkpt>
<trkpt lat="48.446953" lon="2.65653"><ele></ele><time>2017-9-19T2:18:26Z</time></trkpt>
<trkpt lat="48.446979" lon="2.656371"><ele></ele><time>2017-9-19T2:18:29Z</time></trkpt>
<trkpt lat="48.447018" lon="2.65615"><ele></ele><time>2017-9-19T2:18:32Z</time></trkpt>
<trkpt lat="48.447064" lon="2.655983"><ele></ele><time>2017-9-19T2:18:35Z</time></trkpt>
<trkpt lat="48.447089" lon="2.655837"><ele></ele><time>2017-9-19T2:18:38Z</time></trkpt>
<trkpt lat="48.447121" lon="2.655668"><ele></ele><time>2017-9-19T2:18:41Z</time></trkpt>
<trkpt lat="48.447149" lon="2.655507"><ele></ele><time>2017-9-19T2:18:44Z</time></trkpt>
<trkpt lat="48.447174" lon="2.655288"><ele></ele><time>2017-9-19T2:18:47Z</time></trkpt>
<trkpt lat="48.447201" lon="2.655157"><ele></ele><time>2017-9-19T2:18:50Z</time></trkpt>
<trkpt lat="48.447224" lon="2.655025"><ele></ele><time>2017-9-19T2:18:53Z</time></trkpt>
<trkpt lat="48.447245" lon="2.654857"><ele></ele><time>2017-9-19T2:18:56Z</time></trkpt>
<trkpt lat="48.447278" lon="2.654721"><ele></ele><time>2017-9-19T2:18:59Z</time></trkpt>
<trkpt lat="48.447294" lon="2.654549"><ele></ele><time>2017-9-19T2:19:2Z</time></trkpt>
<trkpt lat="48.447264" lon="2.654394"><ele></ele><time>2017-9-19T2:19:5Z</time></trkpt>
<trkpt lat="48.447089" lon="2.654168"><ele></ele><time>2017-9-19T2:19:8Z</time></trkpt>
<trkpt lat="48.447027" lon="2.654062"><ele></ele><time>2017-9-19T2:19:11Z</time></trkpt>
<trkpt lat="48.446936" lon="2.654018"><ele></ele><time>2017-9-19T2:19:14Z</time></trkpt>
<trkpt lat="48.446817" lon="2.653975"><ele></ele><time>2017-9-19T2:19:17Z</time></trkpt>
<trkpt lat="48.446699" lon="2.653842"><ele></ele><time>2017-9-19T2:19:20Z</time></trkpt>
<trkpt lat="48.446579" lon="2.65372"><ele></ele><time>2017-9-19T2:19:23Z</time></trkpt>
<trkpt lat="48.446402" lon="2.653627"><ele></ele><time>2017-9-19T2:19:26Z</time></trkpt>
<trkpt lat="48.446344" lon="2.653522"><ele></ele><time>2017-9-19T2:19:29Z</time></trkpt>
<trkpt lat="48.446225" lon="2.653416"><ele></ele><time>2017-9-19T2:19:32Z</time></trkpt>
<trkpt lat="48.446091" lon="2.653337"><ele></ele><time>2017-9-19T2:19:35Z</time></trkpt>
<trkpt lat="48.44602" lon="2.653185"><ele></ele><time>2017-9-19T2:19:38Z</time></trkpt>
<trkpt lat="48.445969" lon="2.653072"><ele></ele><time>2017-9-19T2:19:41Z</time></trkpt>
<trkpt lat="48.445831" lon="2.653051"><ele></ele><time>2017-9-19T2:19:44Z</time></trkpt>
<trkpt lat="48.445763" lon="2.652956"><ele></ele><time>2017-9-19T2:19:47Z</time></trkpt>
<trkpt lat="48.445674" lon="2.652985"><ele></ele><time>2017-9-19T2:19:50Z</time></trkpt>
<trkpt lat="48.445454" lon="2.653024"><ele></ele><time>2017-9-19T2:19:53Z</time></trkpt>
<trkpt lat="48.445355" lon="2.653075"><ele></ele><time>2017-9-19T2:19:56Z</time></trkpt>
<trkpt lat="48.445256" lon="2.653016"><ele></ele><time>2017-9-19T2:19:59Z</time></trkpt>
<trkpt lat="48.445111" lon="2.653074"><ele></ele><time>2017-9-19T2:20:2Z</time></trkpt>
<trkpt lat="48.445014" lon="2.653084"><ele></ele><time>2017-9-19T2:20:5Z</time></trkpt>
<trkpt lat="48.444905" lon="2.653053"><ele></ele><time>2017-9-19T2:20:8Z</time></trkpt>
<trkpt lat="48.444845" lon="2.652927"><ele></ele><time>2017-9-19T2:20:11Z</time></trkpt>
<trkpt lat="48.444753" lon="2.652937"><ele></ele><time>2017-9-19T2:20:14Z</time></trkpt>
<trkpt lat="48.444628" lon="2.652771"><ele></ele><time>2017-9-19T2:20:17Z</time></trkpt>
<trkpt lat="48.444521" lon="2.652625"><ele></ele><time>2017-9-19T2:20:20Z</time></trkpt>
<trkpt lat="48.444417" lon="2.652523"><ele></ele><time>2017-9-19T2:20:23Z</time></trkpt>
<trkpt lat="48.444339" lon="2.65244"><ele></ele><time>2017-9-19T2:20:26Z</time></trkpt>
<trkpt lat="48.44427" lon="2.652336"><ele></ele><time>2017-9-19T2:20:29Z</time></trkpt>
<trkpt lat="48.444114" lon="2.652131"><ele></ele><time>2017-9-19T2:20:32Z</time></trkpt>
<trkpt lat="48.444009" lon="2.652038"><ele></ele><time>2017-9-19T2:20:35Z</time></trkpt>
<trkpt lat="48.443927" lon="2.651963"><ele></ele><time>2017-9-19T2:20:38Z</time></trkpt>
<trkpt lat="48.443854" lon="2.651828"><ele></ele><time>2017-9-19T2:20:41Z</time></trkpt>
<trkpt lat="48.443844" lon="2.651672"><ele></ele><time>2017-9-19T2:20:44Z</time></trkpt>
<trkpt lat="48.443867" lon="2.651537"><ele></ele><time>2017-9-19T2:20:47Z</time></trkpt>
<trkpt lat="48.443897" lon="2.65131"><ele></ele><time>2017-9-19T2:20:50Z</time></trkpt>
<trkpt lat="48.443899" lon="2.651129"><ele></ele><time>2017-9-19T2:20:53Z</time></trkpt>
<trkpt lat="48.443925" lon="2.650899"><ele></ele><time>2017-9-19T2:20:56Z</time></trkpt>
<trkpt lat="48.443932" lon="2.65076"><ele></ele><time>2017-9-19T2:20:59Z</time></trkpt>
<trkpt lat="48.443936" lon="2.650593"><ele></ele><time>2017-9-19T2:21:2Z</time></trkpt>
<trkpt lat="48.443965" lon="2.650393"><ele></ele><time>2017-9-19T2:21:5Z</time></trkpt>
<trkpt lat="48.443987" lon="2.650202"><ele></ele><time>2017-9-19T2:21:8Z</time></trkpt>
<trkpt lat="48.444008" lon="2.650027"><ele></ele><time>2017-9-19T2:21:11Z</time></trkpt>
<trkpt lat="48.444056" lon="2.649778"><ele></ele><time>2017-9-19T2:21:14Z</time></trkpt>
<trkpt lat="48.444098" lon="2.649655"><ele></ele><time>2017-9-19T2:21:17Z</time></trkpt>
<trkpt lat="48.444159" lon="2.649482"><ele></ele><time>2017-9-19T2:21:20Z</time></trkpt>
<trkpt lat="48.444211" lon="2.649336"><ele></ele><time>2017-9-19T2:21:23Z</time></trkpt>
<trkpt lat="48.444267" lon="2.649161"><ele></ele><time>2017-9-19T2:21:26Z</time></trkpt>
<trkpt lat="48.444367" lon="2.64888"><ele></ele><time>2017-9-19T2:21:29Z</time></trkpt>
<trkpt lat="48.444409" lon="2.648717"><ele></ele><time>2017-9-19T2:21:32Z</time></trkpt>
<trkpt lat="48.444448" lon="2.648549"><ele></ele><time>2017-9-19T2:21:35Z</time></trkpt>
<trkpt lat="48.444452" lon="2.648355"><ele></ele><time>2017-9-19T2:21:38Z</time></trkpt>
<trkpt lat="48.444464" lon="2.6482"><ele></ele><time>2017-9-19T2:21:41Z</time></trkpt>
<trkpt lat="48.444467" lon="2.648044"><ele></ele><time>2017-9-19T2:21:44Z</time></trkpt>
<trkpt lat="48.44447" lon="2.647884"><ele></ele><time>2017-9-19T2:21:47Z</time></trkpt>
<trkpt lat="48.444467" lon="2.647697"><ele></ele><time>2017-9-19T2:21:50Z</time></trkpt>
<trkpt lat="48.444472" lon="2.647517"><ele></ele><time>2017-9-19T2:21:53Z</time></trkpt>
<trkpt lat="48.444444" lon="2.647361"><ele></ele><time>2017-9-19T2:21:56Z</time></trkpt>
<trkpt lat="48.444445" lon="2.647157"><ele></ele><time>2017-9-19T2:21:59Z</time></trkpt>
<trkpt lat="48.444513" lon="2.647"><ele></ele><time>2017-9-19T2:22:2Z</time></trkpt>
<trkpt lat="48.444612" lon="2.646744"><ele></ele><time>2017-9-19T2:22:5Z</time></trkpt>
<trkpt lat="48.444672" lon="2.646555"><ele></ele><time>2017-9-19T2:22:8Z</time></trkpt>
<trkpt lat="48.444695" lon="2.646406"><ele></ele><time>2017-9-19T2:22:11Z</time></trkpt>
<trkpt lat="48.444712" lon="2.646266"><ele></ele><time>2017-9-19T2:22:14Z</time></trkpt>
<trkpt lat="48.444755" lon="2.646081"><ele></ele><time>2017-9-19T2:22:17Z</time></trkpt>
<trkpt lat="48.444787" lon="2.645951"><ele></ele><time>2017-9-19T2:22:20Z</time></trkpt>
<trkpt lat="48.444812" lon="2.645795"><ele></ele><time>2017-9-19T2:22:23Z</time></trkpt>
<trkpt lat="48.444832" lon="2.645614"><ele></ele><time>2017-9-19T2:22:26Z</time></trkpt>
<trkpt lat="48.444855" lon="2.645477"><ele></ele><time>2017-9-19T2:22:29Z</time></trkpt>
<trkpt lat="48.444905" lon="2.645299"><ele></ele><time>2017-9-19T2:22:32Z</time></trkpt>
<trkpt lat="48.444945" lon="2.645158"><ele></ele><time>2017-9-19T2:22:35Z</time></trkpt>
<trkpt lat="48.444991" lon="2.644852"><ele></ele><time>2017-9-19T2:22:38Z</time></trkpt>
<trkpt lat="48.445052" lon="2.64471"><ele></ele><time>2017-9-19T2:22:41Z</time></trkpt>
<trkpt lat="48.445061" lon="2.644553"><ele></ele><time>2017-9-19T2:22:44Z</time></trkpt>
<trkpt lat="48.445153" lon="2.64434"><ele></ele><time>2017-9-19T2:22:47Z</time></trkpt>
<trkpt lat="48.445252" lon="2.644118"><ele></ele><time>2017-9-19T2:22:50Z</time></trkpt>
<trkpt lat="48.445315" lon="2.643971"><ele></ele><time>2017-9-19T2:22:53Z</time></trkpt>
<trkpt lat="48.445388" lon="2.643743"><ele></ele><time>2017-9-19T2:22:56Z</time></trkpt>
<trkpt lat="48.445384" lon="2.643568"><ele></ele><time>2017-9-19T2:22:59Z</time></trkpt>
<trkpt lat="48.445391" lon="2.643384"><ele></ele><time>2017-9-19T2:23:2Z</time></trkpt>
<trkpt lat="48.445395" lon="2.643216"><ele></ele><time>2017-9-19T2:23:5Z</time></trkpt>
<trkpt lat="48.445406" lon="2.643019"><ele></ele><time>2017-9-19T2:23:8Z</time></trkpt>
<trkpt lat="48.44542" lon="2.642844"><ele></ele><time>2017-9-19T2:23:11Z</time></trkpt>
<trkpt lat="48.445416" lon="2.642707"><ele></ele><time>2017-9-19T2:23:14Z</time></trkpt>
<trkpt lat="48.44548" lon="2.642524"><ele></ele><time>2017-9-19T2:23:17Z</time></trkpt>
<trkpt lat="48.445511" lon="2.642388"><ele></ele><time>2017-9-19T2:23:20Z</time></trkpt>
<trkpt lat="48.445535" lon="2.642193"><ele></ele><time>2017-9-19T2:23:23Z</time></trkpt>
<trkpt lat="48.445536" lon="2.642034"><ele></ele><time>2017-9-19T2:23:26Z</time></trkpt>
<trkpt lat="48.445516" lon="2.641875"><ele></ele><time>2017-9-19T2:23:29Z</time></trkpt>
<trkpt lat="48.445539" lon="2.641689"><ele></ele><time>2017-9-19T2:23:32Z</time></trkpt>
<trkpt lat="48.44554" lon="2.641491"><ele></ele><time>2017-9-19T2:23:35Z</time></trkpt>
<trkpt lat="48.445557" lon="2.641357"><ele></ele><time>2017-9-19T2:23:38Z</time></trkpt>
<trkpt lat="48.445569" lon="2.641201"><ele></ele><time>2017-9-19T2:23:41Z</time></trkpt>
<trkpt lat="48.445635" lon="2.641081"><ele></ele><time>2017-9-19T2:23:44Z</time></trkpt>
<trkpt lat="48.445675" lon="2.640877"><ele></ele><time>2017-9-19T2:23:47Z</time></trkpt>
<trkpt lat="48.445723" lon="2.640521"><ele></ele><time>2017-9-19T2:23:50Z</time></trkpt>
<trkpt lat="48.445771" lon="2.64029"><ele></ele><time>2017-9-19T2:23:53Z</time></trkpt>
<trkpt lat="48.44581" lon="2.640078"><ele></ele><time>2017-9-19T2:23:56Z</time></trkpt>
<trkpt lat="48.445828" lon="2.639915"><ele></ele><time>2017-9-19T2:23:59Z</time></trkpt>
<trkpt lat="48.445866" lon="2.639739"><ele></ele><time>2017-9-19T2:24:2Z</time></trkpt>
<trkpt lat="48.445915" lon="2.639499"><ele></ele><time>2017-9-19T2:24:5Z</time></trkpt>
<trkpt lat="48.445946" lon="2.639298"><ele></ele><time>2017-9-19T2:24:8Z</time></trkpt>
<trkpt lat="48.445979" lon="2.639092"><ele></ele><time>2017-9-19T2:24:11Z</time></trkpt>
<trkpt lat="48.446003" lon="2.638914"><ele></ele><time>2017-9-19T2:24:14Z</time></trkpt>
<trkpt lat="48.446021" lon="2.638747"><ele></ele><time>2017-9-19T2:24:17Z</time></trkpt>
<trkpt lat="48.446065" lon="2.638503"><ele></ele><time>2017-9-19T2:24:20Z</time></trkpt>
<trkpt lat="48.446092" lon="2.638373"><ele></ele><time>2017-9-19T2:24:23Z</time></trkpt>
<trkpt lat="48.446111" lon="2.638058"><ele></ele><time>2017-9-19T2:24:26Z</time></trkpt>
<trkpt lat="48.446079" lon="2.637909"><ele></ele><time>2017-9-19T2:24:29Z</time></trkpt>
<trkpt lat="48.445989" lon="2.637846"><ele></ele><time>2017-9-19T2:24:32Z</time></trkpt>
<trkpt lat="48.445906" lon="2.637761"><ele></ele><time>2017-9-19T2:24:35Z</time></trkpt>
<trkpt lat="48.445948" lon="2.637619"><ele></ele><time>2017-9-19T2:24:38Z</time></trkpt>
<trkpt lat="48.445812" lon="2.637387"><ele></ele><time>2017-9-19T2:24:41Z</time></trkpt>
<trkpt lat="48.445709" lon="2.637438"><ele></ele><time>2017-9-19T2:24:44Z</time></trkpt>
<trkpt lat="48.445595" lon="2.637472"><ele></ele><time>2017-9-19T2:24:47Z</time></trkpt>
<trkpt lat="48.445485" lon="2.637439"><ele></ele><time>2017-9-19T2:24:50Z</time></trkpt>
<trkpt lat="48.4454" lon="2.637367"><ele></ele><time>2017-9-19T2:24:53Z</time></trkpt>
<trkpt lat="48.445301" lon="2.637464"><ele></ele><time>2017-9-19T2:24:56Z</time></trkpt>
<trkpt lat="48.445207" lon="2.637381"><ele></ele><time>2017-9-19T2:24:59Z</time></trkpt>
<trkpt lat="48.445208" lon="2.637201"><ele></ele><time>2017-9-19T2:25:2Z</time></trkpt>
<trkpt lat="48.445241" lon="2.637065"><ele></ele><time>2017-9-19T2:25:5Z</time></trkpt>
<trkpt lat="48.445266" lon="2.636935"><ele></ele><time>2017-9-19T2:25:8Z</time></trkpt>
<trkpt lat="48.44529" lon="2.636776"><ele></ele><time>2017-9-19T2:25:11Z</time></trkpt>
<trkpt lat="48.445286" lon="2.636621"><ele></ele><time>2017-9-19T2:25:14Z</time></trkpt>
<trkpt lat="48.4452" lon="2.636418"><ele></ele><time>2017-9-19T2:25:17Z</time></trkpt>
<trkpt lat="48.445147" lon="2.636256"><ele></ele><time>2017-9-19T2:25:20Z</time></trkpt>
<trkpt lat="48.444965" lon="2.635866"><ele></ele><time>2017-9-19T2:25:23Z</time></trkpt>
<trkpt lat="48.444946" lon="2.63571"><ele></ele><time>2017-9-19T2:25:26Z</time></trkpt>
<trkpt lat="48.444889" lon="2.635585"><ele></ele><time>2017-9-19T2:25:29Z</time></trkpt>
<trkpt lat="48.444826" lon="2.635454"><ele></ele><time>2017-9-19T2:25:32Z</time></trkpt>
<trkpt lat="48.444771" lon="2.63533"><ele></ele><time>2017-9-19T2:25:35Z</time></trkpt>
<trkpt lat="48.444733" lon="2.635178"><ele></ele><time>2017-9-19T2:25:38Z</time></trkpt>
<trkpt lat="48.444671" lon="2.635071"><ele></ele><time>2017-9-19T2:25:41Z</time></trkpt>
<trkpt lat="48.444624" lon="2.63495"><ele></ele><time>2017-9-19T2:25:44Z</time></trkpt>
<trkpt lat="48.444543" lon="2.634761"><ele></ele><time>2017-9-19T2:25:47Z</time></trkpt>
<trkpt lat="48.444506" lon="2.634615"><ele></ele><time>2017-9-19T2:25:50Z</time></trkpt>
<trkpt lat="48.444459" lon="2.634479"><ele></ele><time>2017-9-19T2:25:53Z</time></trkpt>
<trkpt lat="48.444417" lon="2.634342"><ele></ele><time>2017-9-19T2:25:56Z</time></trkpt>
<trkpt lat="48.444366" lon="2.634216"><ele></ele><time>2017-9-19T2:25:59Z</time></trkpt>
<trkpt lat="48.444328" lon="2.634081"><ele></ele><time>2017-9-19T2:26:2Z</time></trkpt>
<trkpt lat="48.444277" lon="2.633842"><ele></ele><time>2017-9-19T2:26:5Z</time></trkpt>
<trkpt lat="48.444195" lon="2.633622"><ele></ele><time>2017-9-19T2:26:8Z</time></trkpt>
<trkpt lat="48.444173" lon="2.633434"><ele></ele><time>2017-9-19T2:26:11Z</time></trkpt>
<trkpt lat="48.444136" lon="2.633276"><ele></ele><time>2017-9-19T2:26:14Z</time></trkpt>
<trkpt lat="48.444111" lon="2.633143"><ele></ele><time>2017-9-19T2:26:17Z</time></trkpt>
<trkpt lat="48.444087" lon="2.633006"><ele></ele><time>2017-9-19T2:26:20Z</time></trkpt>
<trkpt lat="48.444054" lon="2.632815"><ele></ele><time>2017-9-19T2:26:23Z</time></trkpt>
<trkpt lat="48.444027" lon="2.632677"><ele></ele><time>2017-9-19T2:26:26Z</time></trkpt>
<trkpt lat="48.443952" lon="2.6325"><ele></ele><time>2017-9-19T2:26:29Z</time></trkpt>
<trkpt lat="48.443907" lon="2.632369"><ele></ele><time>2017-9-19T2:26:32Z</time></trkpt>
<trkpt lat="48.443859" lon="2.632189"><ele></ele><time>2017-9-19T2:26:35Z</time></trkpt>
<trkpt lat="48.443792" lon="2.631906"><ele></ele><time>2017-9-19T2:26:38Z</time></trkpt>
<trkpt lat="48.443723" lon="2.631716"><ele></ele><time>2017-9-19T2:26:41Z</time></trkpt>
<trkpt lat="48.443669" lon="2.631607"><ele></ele><time>2017-9-19T2:26:44Z</time></trkpt>
<trkpt lat="48.443651" lon="2.631442"><ele></ele><time>2017-9-19T2:26:47Z</time></trkpt>
<trkpt lat="48.443614" lon="2.631301"><ele></ele><time>2017-9-19T2:26:50Z</time></trkpt>
<trkpt lat="48.443564" lon="2.631155"><ele></ele><time>2017-9-19T2:26:53Z</time></trkpt>
<trkpt lat="48.443509" lon="2.631013"><ele></ele><time>2017-9-19T2:26:56Z</time></trkpt>
<trkpt lat="48.443455" lon="2.630878"><ele></ele><time>2017-9-19T2:26:59Z</time></trkpt>
<trkpt lat="48.443412" lon="2.630756"><ele></ele><time>2017-9-19T2:27:2Z</time></trkpt>
<trkpt lat="48.443357" lon="2.630631"><ele></ele><time>2017-9-19T2:27:5Z</time></trkpt>
<trkpt lat="48.443286" lon="2.630519"><ele></ele><time>2017-9-19T2:27:8Z</time></trkpt>
<trkpt lat="48.443215" lon="2.630434"><ele></ele><time>2017-9-19T2:27:11Z</time></trkpt>
<trkpt lat="48.443161" lon="2.63028"><ele></ele><time>2017-9-19T2:27:14Z</time></trkpt>
<trkpt lat="48.443066" lon="2.6302"><ele></ele><time>2017-9-19T2:27:17Z</time></trkpt>
<trkpt lat="48.443005" lon="2.630093"><ele></ele><time>2017-9-19T2:27:20Z</time></trkpt>
<trkpt lat="48.442947" lon="2.629913"><ele></ele><time>2017-9-19T2:27:23Z</time></trkpt>
<trkpt lat="48.442885" lon="2.62978"><ele></ele><time>2017-9-19T2:27:26Z</time></trkpt>
<trkpt lat="48.442796" lon="2.629637"><ele></ele><time>2017-9-19T2:27:29Z</time></trkpt>
<trkpt lat="48.442717" lon="2.629537"><ele></ele><time>2017-9-19T2:27:32Z</time></trkpt>
<trkpt lat="48.442672" lon="2.629366"><ele></ele><time>2017-9-19T2:27:35Z</time></trkpt>
<trkpt lat="48.442573" lon="2.629286"><ele></ele><time>2017-9-19T2:27:38Z</time></trkpt>
<trkpt lat="48.442518" lon="2.629172"><ele></ele><time>2017-9-19T2:27:41Z</time></trkpt>
<trkpt lat="48.442471" lon="2.628979"><ele></ele><time>2017-9-19T2:27:44Z</time></trkpt>
<trkpt lat="48.44242" lon="2.628798"><ele></ele><time>2017-9-19T2:27:47Z</time></trkpt>
<trkpt lat="48.442358" lon="2.62863"><ele></ele><time>2017-9-19T2:27:50Z</time></trkpt>
<trkpt lat="48.442325" lon="2.628476"><ele></ele><time>2017-9-19T2:27:53Z</time></trkpt>
<trkpt lat="48.442256" lon="2.628151"><ele></ele><time>2017-9-19T2:27:56Z</time></trkpt>
<trkpt lat="48.442221" lon="2.627965"><ele></ele><time>2017-9-19T2:27:59Z</time></trkpt>
<trkpt lat="48.442162" lon="2.627784"><ele></ele><time>2017-9-19T2:28:2Z</time></trkpt>
<trkpt lat="48.442121" lon="2.627619"><ele></ele><time>2017-9-19T2:28:5Z</time></trkpt>
<trkpt lat="48.442039" lon="2.627468"><ele></ele><time>2017-9-19T2:28:8Z</time></trkpt>
<trkpt lat="48.441945" lon="2.627239"><ele></ele><time>2017-9-19T2:28:11Z</time></trkpt>
<trkpt lat="48.441895" lon="2.62706"><ele></ele><time>2017-9-19T2:28:14Z</time></trkpt>
<trkpt lat="48.441785" lon="2.626868"><ele></ele><time>2017-9-19T2:28:17Z</time></trkpt>
<trkpt lat="48.441717" lon="2.626639"><ele></ele><time>2017-9-19T2:28:20Z</time></trkpt>
<trkpt lat="48.441681" lon="2.626461"><ele></ele><time>2017-9-19T2:28:23Z</time></trkpt>
<trkpt lat="48.441639" lon="2.626331"><ele></ele><time>2017-9-19T2:28:26Z</time></trkpt>
<trkpt lat="48.441603" lon="2.626194"><ele></ele><time>2017-9-19T2:28:29Z</time></trkpt>
<trkpt lat="48.441572" lon="2.626056"><ele></ele><time>2017-9-19T2:28:32Z</time></trkpt>
<trkpt lat="48.441543" lon="2.625913"><ele></ele><time>2017-9-19T2:28:35Z</time></trkpt>
<trkpt lat="48.441487" lon="2.625782"><ele></ele><time>2017-9-19T2:28:38Z</time></trkpt>
<trkpt lat="48.441431" lon="2.62562"><ele></ele><time>2017-9-19T2:28:41Z</time></trkpt>
<trkpt lat="48.441376" lon="2.625468"><ele></ele><time>2017-9-19T2:28:44Z</time></trkpt>
<trkpt lat="48.441303" lon="2.625228"><ele></ele><time>2017-9-19T2:28:47Z</time></trkpt>
<trkpt lat="48.441275" lon="2.625071"><ele></ele><time>2017-9-19T2:28:50Z</time></trkpt>
<trkpt lat="48.441205" lon="2.624948"><ele></ele><time>2017-9-19T2:28:53Z</time></trkpt>
<trkpt lat="48.441153" lon="2.624757"><ele></ele><time>2017-9-19T2:28:56Z</time></trkpt>
<trkpt lat="48.441092" lon="2.62462"><ele></ele><time>2017-9-19T2:28:59Z</time></trkpt>
<trkpt lat="48.440956" lon="2.624405"><ele></ele><time>2017-9-19T2:29:2Z</time></trkpt>
<trkpt lat="48.440851" lon="2.624403"><ele></ele><time>2017-9-19T2:29:5Z</time></trkpt>
<trkpt lat="48.440748" lon="2.624453"><ele></ele><time>2017-9-19T2:29:8Z</time></trkpt>
<trkpt lat="48.440622" lon="2.624424"><ele></ele><time>2017-9-19T2:29:11Z</time></trkpt>
<trkpt lat="48.440511" lon="2.624422"><ele></ele><time>2017-9-19T2:29:14Z</time></trkpt>
<trkpt lat="48.440409" lon="2.624424"><ele></ele><time>2017-9-19T2:29:17Z</time></trkpt>
<trkpt lat="48.440279" lon="2.624396"><ele></ele><time>2017-9-19T2:29:20Z</time></trkpt>
<trkpt lat="48.440187" lon="2.624393"><ele></ele><time>2017-9-19T2:29:23Z</time></trkpt>
<trkpt lat="48.440067" lon="2.624517"><ele></ele><time>2017-9-19T2:29:26Z</time></trkpt>
<trkpt lat="48.439966" lon="2.624635"><ele></ele><time>2017-9-19T2:29:29Z</time></trkpt>
<trkpt lat="48.439906" lon="2.624761"><ele></ele><time>2017-9-19T2:29:32Z</time></trkpt>
<trkpt lat="48.439786" lon="2.624894"><ele></ele><time>2017-9-19T2:29:35Z</time></trkpt>
<trkpt lat="48.439667" lon="2.62501"><ele></ele><time>2017-9-19T2:29:38Z</time></trkpt>
<trkpt lat="48.439558" lon="2.625027"><ele></ele><time>2017-9-19T2:29:41Z</time></trkpt>
<trkpt lat="48.439444" lon="2.624989"><ele></ele><time>2017-9-19T2:29:44Z</time></trkpt>
<trkpt lat="48.439344" lon="2.624971"><ele></ele><time>2017-9-19T2:29:47Z</time></trkpt>
<trkpt lat="48.439281" lon="2.625075"><ele></ele><time>2017-9-19T2:29:50Z</time></trkpt>
<trkpt lat="48.43918" lon="2.625096"><ele></ele><time>2017-9-19T2:29:53Z</time></trkpt>
<trkpt lat="48.439078" lon="2.625167"><ele></ele><time>2017-9-19T2:29:56Z</time></trkpt>
<trkpt lat="48.438863" lon="2.625273"><ele></ele><time>2017-9-19T2:29:59Z</time></trkpt>
<trkpt lat="48.438762" lon="2.625259"><ele></ele><time>2017-9-19T2:30:2Z</time></trkpt>
<trkpt lat="48.438645" lon="2.625225"><ele></ele><time>2017-9-19T2:30:5Z</time></trkpt>
<trkpt lat="48.43848" lon="2.625197"><ele></ele><time>2017-9-19T2:30:8Z</time></trkpt>
<trkpt lat="48.438367" lon="2.625199"><ele></ele><time>2017-9-19T2:30:11Z</time></trkpt>
<trkpt lat="48.43828" lon="2.625265"><ele></ele><time>2017-9-19T2:30:14Z</time></trkpt>
<trkpt lat="48.438187" lon="2.625313"><ele></ele><time>2017-9-19T2:30:17Z</time></trkpt>
<trkpt lat="48.438097" lon="2.625332"><ele></ele><time>2017-9-19T2:30:20Z</time></trkpt>
<trkpt lat="48.437896" lon="2.625408"><ele></ele><time>2017-9-19T2:30:23Z</time></trkpt>
<trkpt lat="48.437811" lon="2.625464"><ele></ele><time>2017-9-19T2:30:26Z</time></trkpt>
<trkpt lat="48.437691" lon="2.625693"><ele></ele><time>2017-9-19T2:30:29Z</time></trkpt>
<trkpt lat="48.437635" lon="2.625804"><ele></ele><time>2017-9-19T2:30:32Z</time></trkpt>
<trkpt lat="48.437597" lon="2.625928"><ele></ele><time>2017-9-19T2:30:35Z</time></trkpt>
<trkpt lat="48.437533" lon="2.626054"><ele></ele><time>2017-9-19T2:30:38Z</time></trkpt>
<trkpt lat="48.437387" lon="2.626072"><ele></ele><time>2017-9-19T2:30:41Z</time></trkpt>
<trkpt lat="48.437306" lon="2.626157"><ele></ele><time>2017-9-19T2:30:44Z</time></trkpt>
<trkpt lat="48.437129" lon="2.626247"><ele></ele><time>2017-9-19T2:30:47Z</time></trkpt>
<trkpt lat="48.437021" lon="2.626252"><ele></ele><time>2017-9-19T2:30:50Z</time></trkpt>
<trkpt lat="48.436882" lon="2.626188"><ele></ele><time>2017-9-19T2:30:53Z</time></trkpt>
<trkpt lat="48.436792" lon="2.626154"><ele></ele><time>2017-9-19T2:30:56Z</time></trkpt>
<trkpt lat="48.436696" lon="2.626226"><ele></ele><time>2017-9-19T2:30:59Z</time></trkpt>
<trkpt lat="48.436587" lon="2.626308"><ele></ele><time>2017-9-19T2:31:2Z</time></trkpt>
<trkpt lat="48.436492" lon="2.626372"><ele></ele><time>2017-9-19T2:31:5Z</time></trkpt>
<trkpt lat="48.436399" lon="2.626381"><ele></ele><time>2017-9-19T2:31:8Z</time></trkpt>
<trkpt lat="48.436315" lon="2.626505"><ele></ele><time>2017-9-19T2:31:11Z</time></trkpt>
<trkpt lat="48.436199" lon="2.626574"><ele></ele><time>2017-9-19T2:31:14Z</time></trkpt>
<trkpt lat="48.43601" lon="2.626686"><ele></ele><time>2017-9-19T2:31:17Z</time></trkpt>
<trkpt lat="48.43595" lon="2.62681"><ele></ele><time>2017-9-19T2:31:20Z</time></trkpt>
<trkpt lat="48.435901" lon="2.626949"><ele></ele><time>2017-9-19T2:31:23Z</time></trkpt>
<trkpt lat="48.435876" lon="2.627109"><ele></ele><time>2017-9-19T2:31:26Z</time></trkpt>
<trkpt lat="48.435798" lon="2.627242"><ele></ele><time>2017-9-19T2:31:29Z</time></trkpt>
<trkpt lat="48.435737" lon="2.627364"><ele></ele><time>2017-9-19T2:31:32Z</time></trkpt>
<trkpt lat="48.435634" lon="2.627527"><ele></ele><time>2017-9-19T2:31:35Z</time></trkpt>
<trkpt lat="48.435588" lon="2.627658"><ele></ele><time>2017-9-19T2:31:38Z</time></trkpt>
<trkpt lat="48.435546" lon="2.627814"><ele></ele><time>2017-9-19T2:31:41Z</time></trkpt>
<trkpt lat="48.435511" lon="2.627943"><ele></ele><time>2017-9-19T2:31:44Z</time></trkpt>
<trkpt lat="48.435436" lon="2.628067"><ele></ele><time>2017-9-19T2:31:47Z</time></trkpt>
<trkpt lat="48.435343" lon="2.628115"><ele></ele><time>2017-9-19T2:31:50Z</time></trkpt>
<trkpt lat="48.435294" lon="2.628255"><ele></ele><time>2017-9-19T2:31:53Z</time></trkpt>
<trkpt lat="48.435301" lon="2.628416"><ele></ele><time>2017-9-19T2:31:56Z</time></trkpt>
<trkpt lat="48.435281" lon="2.628574"><ele></ele><time>2017-9-19T2:31:59Z</time></trkpt>
<trkpt lat="48.435193" lon="2.628867"><ele></ele><time>2017-9-19T2:32:2Z</time></trkpt>
<trkpt lat="48.435152" lon="2.628997"><ele></ele><time>2017-9-19T2:32:5Z</time></trkpt>
<trkpt lat="48.435053" lon="2.629117"><ele></ele><time>2017-9-19T2:32:8Z</time></trkpt>
<trkpt lat="48.43498" lon="2.629246"><ele></ele><time>2017-9-19T2:32:11Z</time></trkpt>
<trkpt lat="48.434913" lon="2.629362"><ele></ele><time>2017-9-19T2:32:14Z</time></trkpt>
<trkpt lat="48.434835" lon="2.629488"><ele></ele><time>2017-9-19T2:32:17Z</time></trkpt>
<trkpt lat="48.434787" lon="2.629621"><ele></ele><time>2017-9-19T2:32:20Z</time></trkpt>
<trkpt lat="48.434759" lon="2.629756"><ele></ele><time>2017-9-19T2:32:23Z</time></trkpt>
<trkpt lat="48.434742" lon="2.629893"><ele></ele><time>2017-9-19T2:32:26Z</time></trkpt>
<trkpt lat="48.43476" lon="2.630049"><ele></ele><time>2017-9-19T2:32:29Z</time></trkpt>
<trkpt lat="48.434897" lon="2.630247"><ele></ele><time>2017-9-19T2:32:32Z</time></trkpt>
<trkpt lat="48.434988" lon="2.630333"><ele></ele><time>2017-9-19T2:32:35Z</time></trkpt>
<trkpt lat="48.43509" lon="2.630447"><ele></ele><time>2017-9-19T2:32:38Z</time></trkpt>
<trkpt lat="48.435228" lon="2.630615"><ele></ele><time>2017-9-19T2:32:41Z</time></trkpt>
<trkpt lat="48.435254" lon="2.630923"><ele></ele><time>2017-9-19T2:32:44Z</time></trkpt>
<trkpt lat="48.435244" lon="2.631071"><ele></ele><time>2017-9-19T2:32:47Z</time></trkpt>
<trkpt lat="48.435227" lon="2.631225"><ele></ele><time>2017-9-19T2:32:50Z</time></trkpt>
<trkpt lat="48.435217" lon="2.631371"><ele></ele><time>2017-9-19T2:32:53Z</time></trkpt>
<trkpt lat="48.435198" lon="2.631546"><ele></ele><time>2017-9-19T2:32:56Z</time></trkpt>
<trkpt lat="48.435097" lon="2.631664"><ele></ele><time>2017-9-19T2:32:59Z</time></trkpt>
<trkpt lat="48.435077" lon="2.631829"><ele></ele><time>2017-9-19T2:33:2Z</time></trkpt>
<trkpt lat="48.434993" lon="2.632062"><ele></ele><time>2017-9-19T2:33:5Z</time></trkpt>
<trkpt lat="48.434958" lon="2.632201"><ele></ele><time>2017-9-19T2:33:8Z</time></trkpt>
<trkpt lat="48.434918" lon="2.632401"><ele></ele><time>2017-9-19T2:33:11Z</time></trkpt>
<trkpt lat="48.434822" lon="2.632669"><ele></ele><time>2017-9-19T2:33:14Z</time></trkpt>
<trkpt lat="48.434751" lon="2.632813"><ele></ele><time>2017-9-19T2:33:17Z</time></trkpt>
<trkpt lat="48.434714" lon="2.632959"><ele></ele><time>2017-9-19T2:33:20Z</time></trkpt>
<trkpt lat="48.434675" lon="2.633083"><ele></ele><time>2017-9-19T2:33:23Z</time></trkpt>
<trkpt lat="48.434614" lon="2.633193"><ele></ele><time>2017-9-19T2:33:26Z</time></trkpt>
<trkpt lat="48.434573" lon="2.633316"><ele></ele><time>2017-9-19T2:33:29Z</time></trkpt>
<trkpt lat="48.434519" lon="2.633526"><ele></ele><time>2017-9-19T2:33:32Z</time></trkpt>
<trkpt lat="48.434481" lon="2.633682"><ele></ele><time>2017-9-19T2:33:35Z</time></trkpt>
<trkpt lat="48.434413" lon="2.633772"><ele></ele><time>2017-9-19T2:33:38Z</time></trkpt>
<trkpt lat="48.434314" lon="2.633813"><ele></ele><time>2017-9-19T2:33:41Z</time></trkpt>
<trkpt lat="48.4342" lon="2.633803"><ele></ele><time>2017-9-19T2:33:44Z</time></trkpt>
<trkpt lat="48.434102" lon="2.633861"><ele></ele><time>2017-9-19T2:33:47Z</time></trkpt>
<trkpt lat="48.434002" lon="2.633979"><ele></ele><time>2017-9-19T2:33:50Z</time></trkpt>
<trkpt lat="48.433935" lon="2.634113"><ele></ele><time>2017-9-19T2:33:53Z</time></trkpt>
<trkpt lat="48.433814" lon="2.634331"><ele></ele><time>2017-9-19T2:33:56Z</time></trkpt>
<trkpt lat="48.433763" lon="2.634457"><ele></ele><time>2017-9-19T2:33:59Z</time></trkpt>
<trkpt lat="48.433688" lon="2.634549"><ele></ele><time>2017-9-19T2:34:2Z</time></trkpt>
<trkpt lat="48.433636" lon="2.634682"><ele></ele><time>2017-9-19T2:34:5Z</time></trkpt>
<trkpt lat="48.433542" lon="2.634718"><ele></ele><time>2017-9-19T2:34:8Z</time></trkpt>
<trkpt lat="48.433467" lon="2.6348"><ele></ele><time>2017-9-19T2:34:11Z</time></trkpt>
<trkpt lat="48.433375" lon="2.634816"><ele></ele><time>2017-9-19T2:34:14Z</time></trkpt>
<trkpt lat="48.433283" lon="2.634854"><ele></ele><time>2017-9-19T2:34:17Z</time></trkpt>
<trkpt lat="48.433193" lon="2.634851"><ele></ele><time>2017-9-19T2:34:20Z</time></trkpt>
<trkpt lat="48.433081" lon="2.634858"><ele></ele><time>2017-9-19T2:34:23Z</time></trkpt>
<trkpt lat="48.432983" lon="2.634867"><ele></ele><time>2017-9-19T2:34:26Z</time></trkpt>
<trkpt lat="48.432796" lon="2.634852"><ele></ele><time>2017-9-19T2:34:29Z</time></trkpt>
<trkpt lat="48.43251" lon="2.634677"><ele></ele><time>2017-9-19T2:34:32Z</time></trkpt>
<trkpt lat="48.432418" lon="2.634663"><ele></ele><time>2017-9-19T2:34:35Z</time></trkpt>
<trkpt lat="48.432327" lon="2.634679"><ele></ele><time>2017-9-19T2:34:38Z</time></trkpt>
<trkpt lat="48.432232" lon="2.634686"><ele></ele><time>2017-9-19T2:34:41Z</time></trkpt>
<trkpt lat="48.432137" lon="2.634659"><ele></ele><time>2017-9-19T2:34:44Z</time></trkpt>
<trkpt lat="48.432128" lon="2.634515"><ele></ele><time>2017-9-19T2:34:47Z</time></trkpt>
<trkpt lat="48.43213" lon="2.634234"><ele></ele><time>2017-9-19T2:34:50Z</time></trkpt>
<trkpt lat="48.432078" lon="2.634118"><ele></ele><time>2017-9-19T2:34:53Z</time></trkpt>
<trkpt lat="48.43189" lon="2.634036"><ele></ele><time>2017-9-19T2:34:56Z</time></trkpt>
<trkpt lat="48.431799" lon="2.633962"><ele></ele><time>2017-9-19T2:34:59Z</time></trkpt>
<trkpt lat="48.431707" lon="2.633959"><ele></ele><time>2017-9-19T2:35:2Z</time></trkpt>
<trkpt lat="48.431651" lon="2.633853"><ele></ele><time>2017-9-19T2:35:5Z</time></trkpt>
<trkpt lat="48.431614" lon="2.633724"><ele></ele><time>2017-9-19T2:35:8Z</time></trkpt>
<trkpt lat="48.431638" lon="2.633574"><ele></ele><time>2017-9-19T2:35:11Z</time></trkpt>
<trkpt lat="48.431641" lon="2.633414"><ele></ele><time>2017-9-19T2:35:14Z</time></trkpt>
<trkpt lat="48.431576" lon="2.633558"><ele></ele><time>2017-9-19T2:35:17Z</time></trkpt>
<trkpt lat="48.431645" lon="2.633895"><ele></ele><time>2017-9-19T2:35:20Z</time></trkpt>
<trkpt lat="48.431645" lon="2.634065"><ele></ele><time>2017-9-19T2:35:23Z</time></trkpt>
<trkpt lat="48.4316" lon="2.634211"><ele></ele><time>2017-9-19T2:35:26Z</time></trkpt>
<trkpt lat="48.431529" lon="2.634328"><ele></ele><time>2017-9-19T2:35:29Z</time></trkpt>
<trkpt lat="48.431449" lon="2.634431"><ele></ele><time>2017-9-19T2:35:32Z</time></trkpt>
<trkpt lat="48.431389" lon="2.634548"><ele></ele><time>2017-9-19T2:35:35Z</time></trkpt>
<trkpt lat="48.431353" lon="2.63469"><ele></ele><time>2017-9-19T2:35:38Z</time></trkpt>
<trkpt lat="48.431384" lon="2.634858"><ele></ele><time>2017-9-19T2:35:41Z</time></trkpt>
<trkpt lat="48.431394" lon="2.635176"><ele></ele><time>2017-9-19T2:35:44Z</time></trkpt>
<trkpt lat="48.43139" lon="2.635352"><ele></ele><time>2017-9-19T2:35:47Z</time></trkpt>
<trkpt lat="48.431367" lon="2.635497"><ele></ele><time>2017-9-19T2:35:50Z</time></trkpt>
<trkpt lat="48.431386" lon="2.635642"><ele></ele><time>2017-9-19T2:35:53Z</time></trkpt>
<trkpt lat="48.431302" lon="2.635743"><ele></ele><time>2017-9-19T2:35:56Z</time></trkpt>
<trkpt lat="48.431205" lon="2.635832"><ele></ele><time>2017-9-19T2:35:59Z</time></trkpt>
<trkpt lat="48.431115" lon="2.635945"><ele></ele><time>2017-9-19T2:36:2Z</time></trkpt>
<trkpt lat="48.431018" lon="2.636061"><ele></ele><time>2017-9-19T2:36:5Z</time></trkpt>
<trkpt lat="48.430808" lon="2.636075"><ele></ele><time>2017-9-19T2:36:8Z</time></trkpt>
<trkpt lat="48.430705" lon="2.636034"><ele></ele><time>2017-9-19T2:36:11Z</time></trkpt>
<trkpt lat="48.430605" lon="2.635964"><ele></ele><time>2017-9-19T2:36:14Z</time></trkpt>
<trkpt lat="48.430556" lon="2.635847"><ele></ele><time>2017-9-19T2:36:17Z</time></trkpt>
<trkpt lat="48.430466" lon="2.635717"><ele></ele><time>2017-9-19T2:36:20Z</time></trkpt>
<trkpt lat="48.430403" lon="2.635882"><ele></ele><time>2017-9-19T2:36:23Z</time></trkpt>
<trkpt lat="48.430322" lon="2.635992"><ele></ele><time>2017-9-19T2:36:26Z</time></trkpt>
<trkpt lat="48.430252" lon="2.636157"><ele></ele><time>2017-9-19T2:36:29Z</time></trkpt>
<trkpt lat="48.430186" lon="2.63636"><ele></ele><time>2017-9-19T2:36:32Z</time></trkpt>
<trkpt lat="48.430122" lon="2.636495"><ele></ele><time>2017-9-19T2:36:35Z</time></trkpt>
<trkpt lat="48.430097" lon="2.636628"><ele></ele><time>2017-9-19T2:36:38Z</time></trkpt>
<trkpt lat="48.430089" lon="2.636768"><ele></ele><time>2017-9-19T2:36:41Z</time></trkpt>
<trkpt lat="48.430043" lon="2.63693"><ele></ele><time>2017-9-19T2:36:44Z</time></trkpt>
<trkpt lat="48.430051" lon="2.637111"><ele></ele><time>2017-9-19T2:36:47Z</time></trkpt>
<trkpt lat="48.43003" lon="2.637253"><ele></ele><time>2017-9-19T2:36:50Z</time></trkpt>
<trkpt lat="48.429996" lon="2.63761"><ele></ele><time>2017-9-19T2:36:53Z</time></trkpt>
<trkpt lat="48.429951" lon="2.637772"><ele></ele><time>2017-9-19T2:36:56Z</time></trkpt>
<trkpt lat="48.429894" lon="2.637907"><ele></ele><time>2017-9-19T2:36:59Z</time></trkpt>
<trkpt lat="48.429835" lon="2.63805"><ele></ele><time>2017-9-19T2:37:2Z</time></trkpt>
<trkpt lat="48.429795" lon="2.638222"><ele></ele><time>2017-9-19T2:37:5Z</time></trkpt>
<trkpt lat="48.429756" lon="2.638393"><ele></ele><time>2017-9-19T2:37:8Z</time></trkpt>
<trkpt lat="48.429715" lon="2.638515"><ele></ele><time>2017-9-19T2:37:11Z</time></trkpt>
<trkpt lat="48.429674" lon="2.638641"><ele></ele><time>2017-9-19T2:37:14Z</time></trkpt>
<trkpt lat="48.429609" lon="2.63879"><ele></ele><time>2017-9-19T2:37:17Z</time></trkpt>
<trkpt lat="48.429637" lon="2.638923"><ele></ele><time>2017-9-19T2:37:20Z</time></trkpt>
<trkpt lat="48.429609" lon="2.639056"><ele></ele><time>2017-9-19T2:37:23Z</time></trkpt>
<trkpt lat="48.429737" lon="2.639344"><ele></ele><time>2017-9-19T2:37:26Z</time></trkpt>
<trkpt lat="48.429722" lon="2.639536"><ele></ele><time>2017-9-19T2:37:29Z</time></trkpt>
<trkpt lat="48.429704" lon="2.639756"><ele></ele><time>2017-9-19T2:37:32Z</time></trkpt>
<trkpt lat="48.429645" lon="2.639888"><ele></ele><time>2017-9-19T2:37:35Z</time></trkpt>
<trkpt lat="48.429617" lon="2.640078"><ele></ele><time>2017-9-19T2:37:38Z</time></trkpt>
<trkpt lat="48.42959" lon="2.64022"><ele></ele><time>2017-9-19T2:37:41Z</time></trkpt>
<trkpt lat="48.429567" lon="2.640413"><ele></ele><time>2017-9-19T2:37:44Z</time></trkpt>
<trkpt lat="48.429446" lon="2.640606"><ele></ele><time>2017-9-19T2:37:47Z</time></trkpt>
<trkpt lat="48.429425" lon="2.640747"><ele></ele><time>2017-9-19T2:37:50Z</time></trkpt>
<trkpt lat="48.429357" lon="2.640928"><ele></ele><time>2017-9-19T2:37:53Z</time></trkpt>
<trkpt lat="48.429299" lon="2.641076"><ele></ele><time>2017-9-19T2:37:56Z</time></trkpt>
<trkpt lat="48.429266" lon="2.641205"><ele></ele><time>2017-9-19T2:37:59Z</time></trkpt>
<trkpt lat="48.429202" lon="2.641446"><ele></ele><time>2017-9-19T2:38:2Z</time></trkpt>
<trkpt lat="48.429158" lon="2.641588"><ele></ele><time>2017-9-19T2:38:5Z</time></trkpt>
<trkpt lat="48.42915" lon="2.641748"><ele></ele><time>2017-9-19T2:38:8Z</time></trkpt>
<trkpt lat="48.429125" lon="2.6419"><ele></ele><time>2017-9-19T2:38:11Z</time></trkpt>
<trkpt lat="48.429082" lon="2.642088"><ele></ele><time>2017-9-19T2:38:14Z</time></trkpt>
<trkpt lat="48.429061" lon="2.642246"><ele></ele><time>2017-9-19T2:38:17Z</time></trkpt>
<trkpt lat="48.429028" lon="2.642451"><ele></ele><time>2017-9-19T2:38:20Z</time></trkpt>
<trkpt lat="48.428945" lon="2.642659"><ele></ele><time>2017-9-19T2:38:23Z</time></trkpt>
<trkpt lat="48.428864" lon="2.642885"><ele></ele><time>2017-9-19T2:38:26Z</time></trkpt>
<trkpt lat="48.428773" lon="2.643246"><ele></ele><time>2017-9-19T2:38:29Z</time></trkpt>
<trkpt lat="48.42877" lon="2.64341"><ele></ele><time>2017-9-19T2:38:32Z</time></trkpt>
<trkpt lat="48.428774" lon="2.643629"><ele></ele><time>2017-9-19T2:38:35Z</time></trkpt>
<trkpt lat="48.428769" lon="2.643765"><ele></ele><time>2017-9-19T2:38:38Z</time></trkpt>
<trkpt lat="48.428751" lon="2.643912"><ele></ele><time>2017-9-19T2:38:41Z</time></trkpt>
<trkpt lat="48.428621" lon="2.644187"><ele></ele><time>2017-9-19T2:38:44Z</time></trkpt>
<trkpt lat="48.428588" lon="2.644339"><ele></ele><time>2017-9-19T2:38:47Z</time></trkpt>
<trkpt lat="48.428584" lon="2.644484"><ele></ele><time>2017-9-19T2:38:50Z</time></trkpt>
<trkpt lat="48.428556" lon="2.644686"><ele></ele><time>2017-9-19T2:38:53Z</time></trkpt>
<trkpt lat="48.428568" lon="2.644918"><ele></ele><time>2017-9-19T2:38:56Z</time></trkpt>
<trkpt lat="48.428641" lon="2.645058"><ele></ele><time>2017-9-19T2:38:59Z</time></trkpt>
<trkpt lat="48.428653" lon="2.645197"><ele></ele><time>2017-9-19T2:39:2Z</time></trkpt>
<trkpt lat="48.428726" lon="2.645358"><ele></ele><time>2017-9-19T2:39:5Z</time></trkpt>
<trkpt lat="48.428774" lon="2.645489"><ele></ele><time>2017-9-19T2:39:8Z</time></trkpt>
<trkpt lat="48.428818" lon="2.645624"><ele></ele><time>2017-9-19T2:39:11Z</time></trkpt>
<trkpt lat="48.428953" lon="2.645786"><ele></ele><time>2017-9-19T2:39:14Z</time></trkpt>
<trkpt lat="48.429023" lon="2.645921"><ele></ele><time>2017-9-19T2:39:17Z</time></trkpt>
<trkpt lat="48.429115" lon="2.645984"><ele></ele><time>2017-9-19T2:39:20Z</time></trkpt>
<trkpt lat="48.429232" lon="2.646036"><ele></ele><time>2017-9-19T2:39:23Z</time></trkpt>
<trkpt lat="48.429371" lon="2.646077"><ele></ele><time>2017-9-19T2:39:26Z</time></trkpt>
<trkpt lat="48.429485" lon="2.646168"><ele></ele><time>2017-9-19T2:39:29Z</time></trkpt>
<trkpt lat="48.429603" lon="2.64632"><ele></ele><time>2017-9-19T2:39:32Z</time></trkpt>
<trkpt lat="48.429803" lon="2.646456"><ele></ele><time>2017-9-19T2:39:35Z</time></trkpt>
<trkpt lat="48.429922" lon="2.646528"><ele></ele><time>2017-9-19T2:39:38Z</time></trkpt>
<trkpt lat="48.430024" lon="2.646621"><ele></ele><time>2017-9-19T2:39:41Z</time></trkpt>
<trkpt lat="48.430086" lon="2.646723"><ele></ele><time>2017-9-19T2:39:44Z</time></trkpt>
<trkpt lat="48.430172" lon="2.646837"><ele></ele><time>2017-9-19T2:39:47Z</time></trkpt>
<trkpt lat="48.430281" lon="2.646929"><ele></ele><time>2017-9-19T2:39:50Z</time></trkpt>
<trkpt lat="48.43035" lon="2.647037"><ele></ele><time>2017-9-19T2:39:53Z</time></trkpt>
<trkpt lat="48.430406" lon="2.647172"><ele></ele><time>2017-9-19T2:39:56Z</time></trkpt>
<trkpt lat="48.430517" lon="2.647352"><ele></ele><time>2017-9-19T2:39:59Z</time></trkpt>
<trkpt lat="48.430567" lon="2.647469"><ele></ele><time>2017-9-19T2:40:2Z</time></trkpt>
<trkpt lat="48.430669" lon="2.647635"><ele></ele><time>2017-9-19T2:40:5Z</time></trkpt>
<trkpt lat="48.430712" lon="2.647775"><ele></ele><time>2017-9-19T2:40:8Z</time></trkpt>
<trkpt lat="48.430739" lon="2.647932"><ele></ele><time>2017-9-19T2:40:11Z</time></trkpt>
<trkpt lat="48.4308" lon="2.648159"><ele></ele><time>2017-9-19T2:40:14Z</time></trkpt>
<trkpt lat="48.430865" lon="2.648291"><ele></ele><time>2017-9-19T2:40:17Z</time></trkpt>
<trkpt lat="48.430892" lon="2.6485"><ele></ele><time>2017-9-19T2:40:20Z</time></trkpt>
<trkpt lat="48.43089" lon="2.648642"><ele></ele><time>2017-9-19T2:40:23Z</time></trkpt>
<trkpt lat="48.430887" lon="2.648806"><ele></ele><time>2017-9-19T2:40:26Z</time></trkpt>
<trkpt lat="48.430821" lon="2.649174"><ele></ele><time>2017-9-19T2:40:29Z</time></trkpt>
<trkpt lat="48.430756" lon="2.649278"><ele></ele><time>2017-9-19T2:40:32Z</time></trkpt>
<trkpt lat="48.430703" lon="2.649389"><ele></ele><time>2017-9-19T2:40:35Z</time></trkpt>
<trkpt lat="48.430626" lon="2.649477"><ele></ele><time>2017-9-19T2:40:38Z</time></trkpt>
<trkpt lat="48.43053" lon="2.649658"><ele></ele><time>2017-9-19T2:40:41Z</time></trkpt>
<trkpt lat="48.430482" lon="2.649837"><ele></ele><time>2017-9-19T2:40:44Z</time></trkpt>
<trkpt lat="48.430442" lon="2.649977"><ele></ele><time>2017-9-19T2:40:47Z</time></trkpt>
<trkpt lat="48.430408" lon="2.650123"><ele></ele><time>2017-9-19T2:40:50Z</time></trkpt>
<trkpt lat="48.43041" lon="2.650273"><ele></ele><time>2017-9-19T2:40:53Z</time></trkpt>
<trkpt lat="48.43039" lon="2.650408"><ele></ele><time>2017-9-19T2:40:56Z</time></trkpt>
<trkpt lat="48.430356" lon="2.650618"><ele></ele><time>2017-9-19T2:40:59Z</time></trkpt>
<trkpt lat="48.430314" lon="2.65076"><ele></ele><time>2017-9-19T2:41:2Z</time></trkpt>
<trkpt lat="48.430275" lon="2.650882"><ele></ele><time>2017-9-19T2:41:5Z</time></trkpt>
<trkpt lat="48.430258" lon="2.65103"><ele></ele><time>2017-9-19T2:41:8Z</time></trkpt>
<trkpt lat="48.430206" lon="2.651165"><ele></ele><time>2017-9-19T2:41:11Z</time></trkpt>
<trkpt lat="48.430188" lon="2.651314"><ele></ele><time>2017-9-19T2:41:14Z</time></trkpt>
<trkpt lat="48.430145" lon="2.651477"><ele></ele><time>2017-9-19T2:41:17Z</time></trkpt>
<trkpt lat="48.430105" lon="2.651793"><ele></ele><time>2017-9-19T2:41:20Z</time></trkpt>
<trkpt lat="48.430078" lon="2.651939"><ele></ele><time>2017-9-19T2:41:23Z</time></trkpt>
<trkpt lat="48.430026" lon="2.652089"><ele></ele><time>2017-9-19T2:41:26Z</time></trkpt>
<trkpt lat="48.429958" lon="2.652197"><ele></ele><time>2017-9-19T2:41:29Z</time></trkpt>
<trkpt lat="48.429913" lon="2.652356"><ele></ele><time>2017-9-19T2:41:32Z</time></trkpt>
<trkpt lat="48.429838" lon="2.652453"><ele></ele><time>2017-9-19T2:41:35Z</time></trkpt>
<trkpt lat="48.429841" lon="2.652626"><ele></ele><time>2017-9-19T2:41:38Z</time></trkpt>
<trkpt lat="48.429876" lon="2.652781"><ele></ele><time>2017-9-19T2:41:41Z</time></trkpt>
<trkpt lat="48.429915" lon="2.652909"><ele></ele><time>2017-9-19T2:41:44Z</time></trkpt>
<trkpt lat="48.429921" lon="2.653086"><ele></ele><time>2017-9-19T2:41:47Z</time></trkpt>
<trkpt lat="48.429915" lon="2.653239"><ele></ele><time>2017-9-19T2:41:50Z</time></trkpt>
<trkpt lat="48.429993" lon="2.653553"><ele></ele><time>2017-9-19T2:41:53Z</time></trkpt>
<trkpt lat="48.430024" lon="2.653717"><ele></ele><time>2017-9-19T2:41:56Z</time></trkpt>
<trkpt lat="48.430051" lon="2.653889"><ele></ele><time>2017-9-19T2:41:59Z</time></trkpt>
<trkpt lat="48.430122" lon="2.654003"><ele></ele><time>2017-9-19T2:42:2Z</time></trkpt>
<trkpt lat="48.430126" lon="2.654162"><ele></ele><time>2017-9-19T2:42:5Z</time></trkpt>
<trkpt lat="48.430157" lon="2.654324"><ele></ele><time>2017-9-19T2:42:8Z</time></trkpt>
<trkpt lat="48.430203" lon="2.654452"><ele></ele><time>2017-9-19T2:42:11Z</time></trkpt>
<trkpt lat="48.430273" lon="2.654547"><ele></ele><time>2017-9-19T2:42:14Z</time></trkpt>
<trkpt lat="48.430276" lon="2.654705"><ele></ele><time>2017-9-19T2:42:17Z</time></trkpt>
<trkpt lat="48.43026" lon="2.654862"><ele></ele><time>2017-9-19T2:42:20Z</time></trkpt>
<trkpt lat="48.430293" lon="2.655165"><ele></ele><time>2017-9-19T2:42:23Z</time></trkpt>
<trkpt lat="48.430213" lon="2.655237"><ele></ele><time>2017-9-19T2:42:26Z</time></trkpt>
<trkpt lat="48.430239" lon="2.655383"><ele></ele><time>2017-9-19T2:42:29Z</time></trkpt>
<trkpt lat="48.430306" lon="2.65548"><ele></ele><time>2017-9-19T2:42:32Z</time></trkpt>
<trkpt lat="48.430364" lon="2.655669"><ele></ele><time>2017-9-19T2:42:35Z</time></trkpt>
<trkpt lat="48.43037" lon="2.655812"><ele></ele><time>2017-9-19T2:42:38Z</time></trkpt>
<trkpt lat="48.430302" lon="2.655917"><ele></ele><time>2017-9-19T2:42:41Z</time></trkpt>
<trkpt lat="48.430224" lon="2.655996"><ele></ele><time>2017-9-19T2:42:44Z</time></trkpt>
<trkpt lat="48.430298" lon="2.656109"><ele></ele><time>2017-9-19T2:42:47Z</time></trkpt>
<trkpt lat="48.430271" lon="2.656255"><ele></ele><time>2017-9-19T2:42:50Z</time></trkpt>
<trkpt lat="48.430188" lon="2.6564"><ele></ele><time>2017-9-19T2:42:53Z</time></trkpt>
<trkpt lat="48.430091" lon="2.656675"><ele></ele><time>2017-9-19T2:42:56Z</time></trkpt>
<trkpt lat="48.430039" lon="2.656801"><ele></ele><time>2017-9-19T2:42:59Z</time></trkpt>
<trkpt lat="48.429961" lon="2.656901"><ele></ele><time>2017-9-19T2:43:2Z</time></trkpt>
<trkpt lat="48.429888" lon="2.65704"><ele></ele><time>2017-9-19T2:43:5Z</time></trkpt>
<trkpt lat="48.429867" lon="2.657224"><ele></ele><time>2017-9-19T2:43:8Z</time></trkpt>
<trkpt lat="48.429904" lon="2.657411"><ele></ele><time>2017-9-19T2:43:11Z</time></trkpt>
<trkpt lat="48.429914" lon="2.657574"><ele></ele><time>2017-9-19T2:43:14Z</time></trkpt>
<trkpt lat="48.429893" lon="2.657764"><ele></ele><time>2017-9-19T2:43:17Z</time></trkpt>
<trkpt lat="48.429845" lon="2.657887"><ele></ele><time>2017-9-19T2:43:20Z</time></trkpt>
<trkpt lat="48.429756" lon="2.657939"><ele></ele><time>2017-9-19T2:43:23Z</time></trkpt>
<trkpt lat="48.42971" lon="2.658061"><ele></ele><time>2017-9-19T2:43:26Z</time></trkpt>
<trkpt lat="48.429722" lon="2.65835"><ele></ele><time>2017-9-19T2:43:29Z</time></trkpt>
<trkpt lat="48.429721" lon="2.658509"><ele></ele><time>2017-9-19T2:43:32Z</time></trkpt>
<trkpt lat="48.429666" lon="2.658642"><ele></ele><time>2017-9-19T2:43:35Z</time></trkpt>
<trkpt lat="48.429589" lon="2.658735"><ele></ele><time>2017-9-19T2:43:38Z</time></trkpt>
<trkpt lat="48.429542" lon="2.658868"><ele></ele><time>2017-9-19T2:43:41Z</time></trkpt>
<trkpt lat="48.429475" lon="2.658995"><ele></ele><time>2017-9-19T2:43:44Z</time></trkpt>
<trkpt lat="48.429411" lon="2.6591"><ele></ele><time>2017-9-19T2:43:47Z</time></trkpt>
<trkpt lat="48.429316" lon="2.659141"><ele></ele><time>2017-9-19T2:43:50Z</time></trkpt>
<trkpt lat="48.429178" lon="2.65921"><ele></ele><time>2017-9-19T2:43:53Z</time></trkpt>
<trkpt lat="48.429083" lon="2.659258"><ele></ele><time>2017-9-19T2:43:56Z</time></trkpt>
<trkpt lat="48.428933" lon="2.659436"><ele></ele><time>2017-9-19T2:43:59Z</time></trkpt>
<trkpt lat="48.428833" lon="2.659472"><ele></ele><time>2017-9-19T2:44:2Z</time></trkpt>
<trkpt lat="48.428743" lon="2.659531"><ele></ele><time>2017-9-19T2:44:5Z</time></trkpt>
<trkpt lat="48.428637" lon="2.6595"><ele></ele><time>2017-9-19T2:44:8Z</time></trkpt>
<trkpt lat="48.428538" lon="2.659514"><ele></ele><time>2017-9-19T2:44:11Z</time></trkpt>
<trkpt lat="48.428416" lon="2.659633"><ele></ele><time>2017-9-19T2:44:14Z</time></trkpt>
<trkpt lat="48.428303" lon="2.659553"><ele></ele><time>2017-9-19T2:44:17Z</time></trkpt>
<trkpt lat="48.428211" lon="2.659545"><ele></ele><time>2017-9-19T2:44:20Z</time></trkpt>
<trkpt lat="48.428119" lon="2.65947"><ele></ele><time>2017-9-19T2:44:23Z</time></trkpt>
<trkpt lat="48.428003" lon="2.659225"><ele></ele><time>2017-9-19T2:44:26Z</time></trkpt>
<trkpt lat="48.427968" lon="2.658926"><ele></ele><time>2017-9-19T2:44:29Z</time></trkpt>
<trkpt lat="48.427922" lon="2.658787"><ele></ele><time>2017-9-19T2:44:32Z</time></trkpt>
<trkpt lat="48.427911" lon="2.658616"><ele></ele><time>2017-9-19T2:44:35Z</time></trkpt>
<trkpt lat="48.427865" lon="2.65837"><ele></ele><time>2017-9-19T2:44:38Z</time></trkpt>
<trkpt lat="48.427896" lon="2.65816"><ele></ele><time>2017-9-19T2:44:41Z</time></trkpt>
<trkpt lat="48.427916" lon="2.657987"><ele></ele><time>2017-9-19T2:44:44Z</time></trkpt>
<trkpt lat="48.427899" lon="2.657837"><ele></ele><time>2017-9-19T2:44:47Z</time></trkpt>
<trkpt lat="48.427901" lon="2.657662"><ele></ele><time>2017-9-19T2:44:50Z</time></trkpt>
<trkpt lat="48.427897" lon="2.657439"><ele></ele><time>2017-9-19T2:44:53Z</time></trkpt>
<trkpt lat="48.427858" lon="2.65723"><ele></ele><time>2017-9-19T2:44:56Z</time></trkpt>
<trkpt lat="48.427847" lon="2.657066"><ele></ele><time>2017-9-19T2:44:59Z</time></trkpt>
<trkpt lat="48.427787" lon="2.656913"><ele></ele><time>2017-9-19T2:45:2Z</time></trkpt>
<trkpt lat="48.427752" lon="2.656738"><ele></ele><time>2017-9-19T2:45:5Z</time></trkpt>
<trkpt lat="48.427716" lon="2.656576"><ele></ele><time>2017-9-19T2:45:8Z</time></trkpt>
<trkpt lat="48.427664" lon="2.656372"><ele></ele><time>2017-9-19T2:45:11Z</time></trkpt>
<trkpt lat="48.42761" lon="2.656248"><ele></ele><time>2017-9-19T2:45:14Z</time></trkpt>
<trkpt lat="48.427566" lon="2.656098"><ele></ele><time>2017-9-19T2:45:17Z</time></trkpt>
<trkpt lat="48.427501" lon="2.656"><ele></ele><time>2017-9-19T2:45:20Z</time></trkpt>
<trkpt lat="48.427517" lon="2.65582"><ele></ele><time>2017-9-19T2:45:23Z</time></trkpt>
<trkpt lat="48.427532" lon="2.655429"><ele></ele><time>2017-9-19T2:45:26Z</time></trkpt>
<trkpt lat="48.427476" lon="2.6553"><ele></ele><time>2017-9-19T2:45:29Z</time></trkpt>
<trkpt lat="48.427417" lon="2.655127"><ele></ele><time>2017-9-19T2:45:32Z</time></trkpt>
<trkpt lat="48.427373" lon="2.65495"><ele></ele><time>2017-9-19T2:45:35Z</time></trkpt>
<trkpt lat="48.427341" lon="2.654745"><ele></ele><time>2017-9-19T2:45:38Z</time></trkpt>
<trkpt lat="48.427344" lon="2.654492"><ele></ele><time>2017-9-19T2:45:41Z</time></trkpt>
<trkpt lat="48.427336" lon="2.654323"><ele></ele><time>2017-9-19T2:45:44Z</time></trkpt>
<trkpt lat="48.427332" lon="2.654155"><ele></ele><time>2017-9-19T2:45:47Z</time></trkpt>
<trkpt lat="48.427362" lon="2.653965"><ele></ele><time>2017-9-19T2:45:50Z</time></trkpt>
<trkpt lat="48.427363" lon="2.653766"><ele></ele><time>2017-9-19T2:45:53Z</time></trkpt>
<trkpt lat="48.427285" lon="2.653604"><ele></ele><time>2017-9-19T2:45:56Z</time></trkpt>
<trkpt lat="48.427284" lon="2.653423"><ele></ele><time>2017-9-19T2:45:59Z</time></trkpt>
<trkpt lat="48.427278" lon="2.653198"><ele></ele><time>2017-9-19T2:46:2Z</time></trkpt>
<trkpt lat="48.427332" lon="2.652974"><ele></ele><time>2017-9-19T2:46:5Z</time></trkpt>
<trkpt lat="48.427367" lon="2.652778"><ele></ele><time>2017-9-19T2:46:8Z</time></trkpt>
<trkpt lat="48.427376" lon="2.652532"><ele></ele><time>2017-9-19T2:46:11Z</time></trkpt>
<trkpt lat="48.427378" lon="2.652358"><ele></ele><time>2017-9-19T2:46:14Z</time></trkpt>
<trkpt lat="48.427389" lon="2.652099"><ele></ele><time>2017-9-19T2:46:17Z</time></trkpt>
<trkpt lat="48.427405" lon="2.651921"><ele></ele><time>2017-9-19T2:46:20Z</time></trkpt>
<trkpt lat="48.427368" lon="2.651557"><ele></ele><time>2017-9-19T2:46:23Z</time></trkpt>
<trkpt lat="48.427351" lon="2.651287"><ele></ele><time>2017-9-19T2:46:26Z</time></trkpt>
<trkpt lat="48.427285" lon="2.651112"><ele></ele><time>2017-9-19T2:46:29Z</time></trkpt>
<trkpt lat="48.427215" lon="2.650973"><ele></ele><time>2017-9-19T2:46:32Z</time></trkpt>
<trkpt lat="48.427176" lon="2.65082"><ele></ele><time>2017-9-19T2:46:35Z</time></trkpt>
<trkpt lat="48.427101" lon="2.65072"><ele></ele><time>2017-9-19T2:46:38Z</time></trkpt>
<trkpt lat="48.427034" lon="2.650627"><ele></ele><time>2017-9-19T2:46:41Z</time></trkpt>
<trkpt lat="48.426916" lon="2.650446"><ele></ele><time>2017-9-19T2:46:44Z</time></trkpt>
<trkpt lat="48.426813" lon="2.650293"><ele></ele><time>2017-9-19T2:46:47Z</time></trkpt>
<trkpt lat="48.426737" lon="2.650155"><ele></ele><time>2017-9-19T2:46:50Z</time></trkpt>
<trkpt lat="48.426666" lon="2.649956"><ele></ele><time>2017-9-19T2:46:53Z</time></trkpt>
<trkpt lat="48.426584" lon="2.649793"><ele></ele><time>2017-9-19T2:46:56Z</time></trkpt>
<trkpt lat="48.426534" lon="2.649627"><ele></ele><time>2017-9-19T2:46:59Z</time></trkpt>
<trkpt lat="48.426476" lon="2.649399"><ele></ele><time>2017-9-19T2:47:2Z</time></trkpt>
<trkpt lat="48.426413" lon="2.649288"><ele></ele><time>2017-9-19T2:47:5Z</time></trkpt>
<trkpt lat="48.426317" lon="2.649103"><ele></ele><time>2017-9-19T2:47:8Z</time></trkpt>
<trkpt lat="48.426244" lon="2.648939"><ele></ele><time>2017-9-19T2:47:11Z</time></trkpt>
<trkpt lat="48.426166" lon="2.6488"><ele></ele><time>2017-9-19T2:47:14Z</time></trkpt>
<trkpt lat="48.426094" lon="2.648579"><ele></ele><time>2017-9-19T2:47:17Z</time></trkpt>
<trkpt lat="48.426012" lon="2.648375"><ele></ele><time>2017-9-19T2:47:20Z</time></trkpt>
<trkpt lat="48.42593" lon="2.648192"><ele></ele><time>2017-9-19T2:47:23Z</time></trkpt>
<trkpt lat="48.425874" lon="2.648023"><ele></ele><time>2017-9-19T2:47:26Z</time></trkpt>
<trkpt lat="48.425832" lon="2.647871"><ele></ele><time>2017-9-19T2:47:29Z</time></trkpt>
<trkpt lat="48.425753" lon="2.647776"><ele></ele><time>2017-9-19T2:47:32Z</time></trkpt>
<trkpt lat="48.425715" lon="2.647641"><ele></ele><time>2017-9-19T2:47:35Z</time></trkpt>
<trkpt lat="48.425692" lon="2.647492"><ele></ele><time>2017-9-19T2:47:38Z</time></trkpt>
<trkpt lat="48.425649" lon="2.647332"><ele></ele><time>2017-9-19T2:47:41Z</time></trkpt>
<trkpt lat="48.425674" lon="2.647023"><ele></ele><time>2017-9-19T2:47:44Z</time></trkpt>
<trkpt lat="48.425745" lon="2.646853"><ele></ele><time>2017-9-19T2:47:47Z</time></trkpt>
<trkpt lat="48.425743" lon="2.646686"><ele></ele><time>2017-9-19T2:47:50Z</time></trkpt>
<trkpt lat="48.425809" lon="2.646542"><ele></ele><time>2017-9-19T2:47:53Z</time></trkpt>
<trkpt lat="48.425828" lon="2.646379"><ele></ele><time>2017-9-19T2:47:56Z</time></trkpt>
<trkpt lat="48.425822" lon="2.6462"><ele></ele><time>2017-9-19T2:47:59Z</time></trkpt>
<trkpt lat="48.425809" lon="2.646033"><ele></ele><time>2017-9-19T2:48:2Z</time></trkpt>
<trkpt lat="48.425885" lon="2.645947"><ele></ele><time>2017-9-19T2:48:5Z</time></trkpt>
<trkpt lat="48.425905" lon="2.64578"><ele></ele><time>2017-9-19T2:48:8Z</time></trkpt>
<trkpt lat="48.425898" lon="2.645608"><ele></ele><time>2017-9-19T2:48:11Z</time></trkpt>
<trkpt lat="48.425899" lon="2.645465"><ele></ele><time>2017-9-19T2:48:14Z</time></trkpt>
<trkpt lat="48.425934" lon="2.645331"><ele></ele><time>2017-9-19T2:48:17Z</time></trkpt>
<trkpt lat="48.425965" lon="2.645187"><ele></ele><time>2017-9-19T2:48:20Z</time></trkpt>
<trkpt lat="48.425969" lon="2.645014"><ele></ele><time>2017-9-19T2:48:23Z</time></trkpt>
<trkpt lat="48.425984" lon="2.644846"><ele></ele><time>2017-9-19T2:48:26Z</time></trkpt>
<trkpt lat="48.425948" lon="2.644646"><ele></ele><time>2017-9-19T2:48:29Z</time></trkpt>
<trkpt lat="48.425931" lon="2.644441"><ele></ele><time>2017-9-19T2:48:32Z</time></trkpt>
<trkpt lat="48.425996" lon="2.644122"><ele></ele><time>2017-9-19T2:48:35Z</time></trkpt>
<trkpt lat="48.426035" lon="2.643991"><ele></ele><time>2017-9-19T2:48:38Z</time></trkpt>
<trkpt lat="48.426061" lon="2.643805"><ele></ele><time>2017-9-19T2:48:41Z</time></trkpt>
<trkpt lat="48.426063" lon="2.64362"><ele></ele><time>2017-9-19T2:48:44Z</time></trkpt>
<trkpt lat="48.426042" lon="2.643398"><ele></ele><time>2017-9-19T2:48:47Z</time></trkpt>
<trkpt lat="48.426044" lon="2.643206"><ele></ele><time>2017-9-19T2:48:50Z</time></trkpt>
<trkpt lat="48.426103" lon="2.643085"><ele></ele><time>2017-9-19T2:48:53Z</time></trkpt>
<trkpt lat="48.426155" lon="2.642931"><ele></ele><time>2017-9-19T2:48:56Z</time></trkpt>
<trkpt lat="48.426179" lon="2.642742"><ele></ele><time>2017-9-19T2:48:59Z</time></trkpt>
<trkpt lat="48.426213" lon="2.642589"><ele></ele><time>2017-9-19T2:49:2Z</time></trkpt>
<trkpt lat="48.426218" lon="2.642411"><ele></ele><time>2017-9-19T2:49:5Z</time></trkpt>
<trkpt lat="48.426231" lon="2.642277"><ele></ele><time>2017-9-19T2:49:8Z</time></trkpt>
<trkpt lat="48.426256" lon="2.642066"><ele></ele><time>2017-9-19T2:49:11Z</time></trkpt>
<trkpt lat="48.42628" lon="2.641917"><ele></ele><time>2017-9-19T2:49:14Z</time></trkpt>
<trkpt lat="48.426319" lon="2.641793"><ele></ele><time>2017-9-19T2:49:17Z</time></trkpt>
<trkpt lat="48.426388" lon="2.641614"><ele></ele><time>2017-9-19T2:49:20Z</time></trkpt>
<trkpt lat="48.426408" lon="2.641474"><ele></ele><time>2017-9-19T2:49:23Z</time></trkpt>
<trkpt lat="48.426402" lon="2.641313"><ele></ele><time>2017-9-19T2:49:26Z</time></trkpt>
<trkpt lat="48.426393" lon="2.640987"><ele></ele><time>2017-9-19T2:49:29Z</time></trkpt>
<trkpt lat="48.42644" lon="2.640845"><ele></ele><time>2017-9-19T2:49:32Z</time></trkpt>
<trkpt lat="48.42648" lon="2.640701"><ele></ele><time>2017-9-19T2:49:35Z</time></trkpt>
<trkpt lat="48.426511" lon="2.640569"><ele></ele><time>2017-9-19T2:49:38Z</time></trkpt>
<trkpt lat="48.426537" lon="2.640434"><ele></ele><time>2017-9-19T2:49:41Z</time></trkpt>
<trkpt lat="48.426559" lon="2.640258"><ele></ele><time>2017-9-19T2:49:44Z</time></trkpt>
<trkpt lat="48.426587" lon="2.640087"><ele></ele><time>2017-9-19T2:49:47Z</time></trkpt>
<trkpt lat="48.426584" lon="2.639906"><ele></ele><time>2017-9-19T2:49:50Z</time></trkpt>
<trkpt lat="48.426605" lon="2.639725"><ele></ele><time>2017-9-19T2:49:53Z</time></trkpt>
<trkpt lat="48.426575" lon="2.639507"><ele></ele><time>2017-9-19T2:49:56Z</time></trkpt>
<trkpt lat="48.426558" lon="2.639343"><ele></ele><time>2017-9-19T2:49:59Z</time></trkpt>
<trkpt lat="48.426557" lon="2.6392"><ele></ele><time>2017-9-19T2:50:2Z</time></trkpt>
<trkpt lat="48.426568" lon="2.638961"><ele></ele><time>2017-9-19T2:50:5Z</time></trkpt>
<trkpt lat="48.426599" lon="2.638819"><ele></ele><time>2017-9-19T2:50:8Z</time></trkpt>
<trkpt lat="48.426677" lon="2.638659"><ele></ele><time>2017-9-19T2:50:11Z</time></trkpt>
<trkpt lat="48.426724" lon="2.63853"><ele></ele><time>2017-9-19T2:50:14Z</time></trkpt>
<trkpt lat="48.426728" lon="2.638351"><ele></ele><time>2017-9-19T2:50:17Z</time></trkpt>
<trkpt lat="48.426813" lon="2.638165"><ele></ele><time>2017-9-19T2:50:20Z</time></trkpt>
<trkpt lat="48.426867" lon="2.638054"><ele></ele><time>2017-9-19T2:50:23Z</time></trkpt>
<trkpt lat="48.426846" lon="2.637875"><ele></ele><time>2017-9-19T2:50:26Z</time></trkpt>
<trkpt lat="48.42687" lon="2.637732"><ele></ele><time>2017-9-19T2:50:29Z</time></trkpt>
<trkpt lat="48.426877" lon="2.637569"><ele></ele><time>2017-9-19T2:50:32Z</time></trkpt>
<trkpt lat="48.426909" lon="2.637259"><ele></ele><time>2017-9-19T2:50:35Z</time></trkpt>
<trkpt lat="48.42692" lon="2.637077"><ele></ele><time>2017-9-19T2:50:38Z</time></trkpt>
<trkpt lat="48.426963" lon="2.636956"><ele></ele><time>2017-9-19T2:50:41Z</time></trkpt>
<trkpt lat="48.426954" lon="2.636782"><ele></ele><time>2017-9-19T2:50:44Z</time></trkpt>
<trkpt lat="48.426955" lon="2.636588"><ele></ele><time>2017-9-19T2:50:47Z</time></trkpt>
<trkpt lat="48.427003" lon="2.636422"><ele></ele><time>2017-9-19T2:50:50Z</time></trkpt>
<trkpt lat="48.427024" lon="2.636248"><ele></ele><time>2017-9-19T2:50:53Z</time></trkpt>
<trkpt lat="48.427027" lon="2.636"><ele></ele><time>2017-9-19T2:50:56Z</time></trkpt>
<trkpt lat="48.427046" lon="2.635813"><ele></ele><time>2017-9-19T2:50:59Z</time></trkpt>
<trkpt lat="48.427039" lon="2.635653"><ele></ele><time>2017-9-19T2:51:2Z</time></trkpt>
<trkpt lat="48.427052" lon="2.635438"><ele></ele><time>2017-9-19T2:51:5Z</time></trkpt>
<trkpt lat="48.427088" lon="2.635289"><ele></ele><time>2017-9-19T2:51:8Z</time></trkpt>
<trkpt lat="48.427091" lon="2.635081"><ele></ele><time>2017-9-19T2:51:11Z</time></trkpt>
<trkpt lat="48.427147" lon="2.634912"><ele></ele><time>2017-9-19T2:51:14Z</time></trkpt>
<trkpt lat="48.427172" lon="2.634778"><ele></ele><time>2017-9-19T2:51:17Z</time></trkpt>
<trkpt lat="48.427235" lon="2.63461"><ele></ele><time>2017-9-19T2:51:20Z</time></trkpt>
<trkpt lat="48.427272" lon="2.634401"><ele></ele><time>2017-9-19T2:51:23Z</time></trkpt>
<trkpt lat="48.427266" lon="2.634247"><ele></ele><time>2017-9-19T2:51:26Z</time></trkpt>
<trkpt lat="48.427305" lon="2.634043"><ele></ele><time>2017-9-19T2:51:29Z</time></trkpt>
<trkpt lat="48.427336" lon="2.633887"><ele></ele><time>2017-9-19T2:51:32Z</time></trkpt>
<trkpt lat="48.427362" lon="2.633687"><ele></ele><time>2017-9-19T2:51:35Z</time></trkpt>
<trkpt lat="48.427376" lon="2.633391"><ele></ele><time>2017-9-19T2:51:38Z</time></trkpt>
<trkpt lat="48.427411" lon="2.633195"><ele></ele><time>2017-9-19T2:51:41Z</time></trkpt>
<trkpt lat="48.427433" lon="2.633055"><ele></ele><time>2017-9-19T2:51:44Z</time></trkpt>
<trkpt lat="48.427495" lon="2.632895"><ele></ele><time>2017-9-19T2:51:47Z</time></trkpt>
<trkpt lat="48.427526" lon="2.632726"><ele></ele><time>2017-9-19T2:51:50Z</time></trkpt>
<trkpt lat="48.427534" lon="2.632544"><ele></ele><time>2017-9-19T2:51:53Z</time></trkpt>
<trkpt lat="48.427522" lon="2.632408"><ele></ele><time>2017-9-19T2:51:56Z</time></trkpt>
<trkpt lat="48.427515" lon="2.632212"><ele></ele><time>2017-9-19T2:51:59Z</time></trkpt>
<trkpt lat="48.42751" lon="2.632015"><ele></ele><time>2017-9-19T2:52:2Z</time></trkpt>
<trkpt lat="48.42752" lon="2.63188"><ele></ele><time>2017-9-19T2:52:5Z</time></trkpt>
<trkpt lat="48.427513" lon="2.63174"><ele></ele><time>2017-9-19T2:52:8Z</time></trkpt>
<trkpt lat="48.427524" lon="2.631598"><ele></ele><time>2017-9-19T2:52:11Z</time></trkpt>
<trkpt lat="48.427585" lon="2.631436"><ele></ele><time>2017-9-19T2:52:14Z</time></trkpt>
<trkpt lat="48.427629" lon="2.631317"><ele></ele><time>2017-9-19T2:52:17Z</time></trkpt>
<trkpt lat="48.427633" lon="2.631111"><ele></ele><time>2017-9-19T2:52:20Z</time></trkpt>
<trkpt lat="48.427656" lon="2.630966"><ele></ele><time>2017-9-19T2:52:23Z</time></trkpt>
<trkpt lat="48.427688" lon="2.63078"><ele></ele><time>2017-9-19T2:52:26Z</time></trkpt>
<trkpt lat="48.427704" lon="2.630638"><ele></ele><time>2017-9-19T2:52:29Z</time></trkpt>
<trkpt lat="48.427739" lon="2.630504"><ele></ele><time>2017-9-19T2:52:32Z</time></trkpt>
<trkpt lat="48.427743" lon="2.63036"><ele></ele><time>2017-9-19T2:52:35Z</time></trkpt>
<trkpt lat="48.427759" lon="2.630221"><ele></ele><time>2017-9-19T2:52:38Z</time></trkpt>
<trkpt lat="48.427762" lon="2.630009"><ele></ele><time>2017-9-19T2:52:41Z</time></trkpt>
<trkpt lat="48.427778" lon="2.629859"><ele></ele><time>2017-9-19T2:52:44Z</time></trkpt>
<trkpt lat="48.427841" lon="2.629739"><ele></ele><time>2017-9-19T2:52:47Z</time></trkpt>
<trkpt lat="48.427747" lon="2.629605"><ele></ele><time>2017-9-19T2:52:50Z</time></trkpt>
<trkpt lat="48.427629" lon="2.629664"><ele></ele><time>2017-9-19T2:52:53Z</time></trkpt>
<trkpt lat="48.427536" lon="2.629689"><ele></ele><time>2017-9-19T2:52:56Z</time></trkpt>
<trkpt lat="48.427405" lon="2.629723"><ele></ele><time>2017-9-19T2:52:59Z</time></trkpt>
<trkpt lat="48.427305" lon="2.629787"><ele></ele><time>2017-9-19T2:53:2Z</time></trkpt>
<trkpt lat="48.427185" lon="2.629833"><ele></ele><time>2017-9-19T2:53:5Z</time></trkpt>
<trkpt lat="48.427083" lon="2.629853"><ele></ele><time>2017-9-19T2:53:8Z</time></trkpt>
<trkpt lat="48.426941" lon="2.629864"><ele></ele><time>2017-9-19T2:53:11Z</time></trkpt>
<trkpt lat="48.426839" lon="2.629876"><ele></ele><time>2017-9-19T2:53:14Z</time></trkpt>
<trkpt lat="48.426678" lon="2.629861"><ele></ele><time>2017-9-19T2:53:17Z</time></trkpt>
<trkpt lat="48.426567" lon="2.629896"><ele></ele><time>2017-9-19T2:53:20Z</time></trkpt>
<trkpt lat="48.426445" lon="2.62989"><ele></ele><time>2017-9-19T2:53:23Z</time></trkpt>
<trkpt lat="48.426317" lon="2.629939"><ele></ele><time>2017-9-19T2:53:26Z</time></trkpt>
<trkpt lat="48.426182" lon="2.629974"><ele></ele><time>2017-9-19T2:53:29Z</time></trkpt>
<trkpt lat="48.426087" lon="2.630043"><ele></ele><time>2017-9-19T2:53:32Z</time></trkpt>
<trkpt lat="48.425941" lon="2.630091"><ele></ele><time>2017-9-19T2:53:35Z</time></trkpt>
<trkpt lat="48.42585" lon="2.630105"><ele></ele><time>2017-9-19T2:53:38Z</time></trkpt>
<trkpt lat="48.425713" lon="2.63009"><ele></ele><time>2017-9-19T2:53:41Z</time></trkpt>
<trkpt lat="48.425591" lon="2.630119"><ele></ele><time>2017-9-19T2:53:44Z</time></trkpt>
<trkpt lat="48.425431" lon="2.630139"><ele></ele><time>2017-9-19T2:53:47Z</time></trkpt>
<trkpt lat="48.425174" lon="2.630194"><ele></ele><time>2017-9-19T2:53:50Z</time></trkpt>
<trkpt lat="48.424942" lon="2.630238"><ele></ele><time>2017-9-19T2:53:53Z</time></trkpt>
<trkpt lat="48.424831" lon="2.630278"><ele></ele><time>2017-9-19T2:53:56Z</time></trkpt>
<trkpt lat="48.424681" lon="2.630255"><ele></ele><time>2017-9-19T2:53:59Z</time></trkpt>
<trkpt lat="48.424552" lon="2.630259"><ele></ele><time>2017-9-19T2:54:2Z</time></trkpt>
<trkpt lat="48.424449" lon="2.630306"><ele></ele><time>2017-9-19T2:54:5Z</time></trkpt>
<trkpt lat="48.42432" lon="2.630296"><ele></ele><time>2017-9-19T2:54:8Z</time></trkpt>
<trkpt lat="48.42412" lon="2.630337"><ele></ele><time>2017-9-19T2:54:11Z</time></trkpt>
<trkpt lat="48.423908" lon="2.630382"><ele></ele><time>2017-9-19T2:54:14Z</time></trkpt>
<trkpt lat="48.423764" lon="2.630309"><ele></ele><time>2017-9-19T2:54:17Z</time></trkpt>
<trkpt lat="48.42367" lon="2.630338"><ele></ele><time>2017-9-19T2:54:20Z</time></trkpt>
<trkpt lat="48.423551" lon="2.630385"><ele></ele><time>2017-9-19T2:54:23Z</time></trkpt>
<trkpt lat="48.423403" lon="2.630415"><ele></ele><time>2017-9-19T2:54:26Z</time></trkpt>
<trkpt lat="48.423284" lon="2.630406"><ele></ele><time>2017-9-19T2:54:29Z</time></trkpt>
<trkpt lat="48.423137" lon="2.630424"><ele></ele><time>2017-9-19T2:54:32Z</time></trkpt>
<trkpt lat="48.423002" lon="2.630431"><ele></ele><time>2017-9-19T2:54:35Z</time></trkpt>
<trkpt lat="48.422811" lon="2.630499"><ele></ele><time>2017-9-19T2:54:38Z</time></trkpt>
<trkpt lat="48.422701" lon="2.630573"><ele></ele><time>2017-9-19T2:54:41Z</time></trkpt>
<trkpt lat="48.422591" lon="2.630576"><ele></ele><time>2017-9-19T2:54:44Z</time></trkpt>
<trkpt lat="48.422452" lon="2.63062"><ele></ele><time>2017-9-19T2:54:47Z</time></trkpt>
<trkpt lat="48.422329" lon="2.630627"><ele></ele><time>2017-9-19T2:54:50Z</time></trkpt>
<trkpt lat="48.422226" lon="2.630614"><ele></ele><time>2017-9-19T2:54:53Z</time></trkpt>
<trkpt lat="48.422118" lon="2.630652"><ele></ele><time>2017-9-19T2:54:56Z</time></trkpt>
<trkpt lat="48.422022" lon="2.630721"><ele></ele><time>2017-9-19T2:54:59Z</time></trkpt>
<trkpt lat="48.421873" lon="2.630744"><ele></ele><time>2017-9-19T2:55:2Z</time></trkpt>
<trkpt lat="48.421645" lon="2.630847"><ele></ele><time>2017-9-19T2:55:5Z</time></trkpt>
<trkpt lat="48.421505" lon="2.630887"><ele></ele><time>2017-9-19T2:55:8Z</time></trkpt>
<trkpt lat="48.421396" lon="2.630891"><ele></ele><time>2017-9-19T2:55:11Z</time></trkpt>
<trkpt lat="48.421279" lon="2.630918"><ele></ele><time>2017-9-19T2:55:14Z</time></trkpt>
<trkpt lat="48.421176" lon="2.630922"><ele></ele><time>2017-9-19T2:55:17Z</time></trkpt>
<trkpt lat="48.421041" lon="2.630974"><ele></ele><time>2017-9-19T2:55:20Z</time></trkpt>
<trkpt lat="48.420914" lon="2.630997"><ele></ele><time>2017-9-19T2:55:23Z</time></trkpt>
<trkpt lat="48.420811" lon="2.630978"><ele></ele><time>2017-9-19T2:55:26Z</time></trkpt>
<trkpt lat="48.420698" lon="2.630975"><ele></ele><time>2017-9-19T2:55:29Z</time></trkpt>
<trkpt lat="48.420594" lon="2.631014"><ele></ele><time>2017-9-19T2:55:32Z</time></trkpt>
<trkpt lat="48.420504" lon="2.631054"><ele></ele><time>2017-9-19T2:55:35Z</time></trkpt>
<trkpt lat="48.420349" lon="2.631057"><ele></ele><time>2017-9-19T2:55:38Z</time></trkpt>
<trkpt lat="48.420349" lon="2.630751"><ele></ele><time>2017-9-19T2:55:41Z</time></trkpt>
<trkpt lat="48.420365" lon="2.630534"><ele></ele><time>2017-9-19T2:55:44Z</time></trkpt>
<trkpt lat="48.420407" lon="2.63038"><ele></ele><time>2017-9-19T2:55:47Z</time></trkpt>
<trkpt lat="48.420401" lon="2.630199"><ele></ele><time>2017-9-19T2:55:50Z</time></trkpt>
<trkpt lat="48.420426" lon="2.630061"><ele></ele><time>2017-9-19T2:55:53Z</time></trkpt>
<trkpt lat="48.420439" lon="2.629857"><ele></ele><time>2017-9-19T2:55:56Z</time></trkpt>
<trkpt lat="48.420463" lon="2.62964"><ele></ele><time>2017-9-19T2:55:59Z</time></trkpt>
<trkpt lat="48.42052" lon="2.629506"><ele></ele><time>2017-9-19T2:56:2Z</time></trkpt>
<trkpt lat="48.420523" lon="2.629369"><ele></ele><time>2017-9-19T2:56:5Z</time></trkpt>
<trkpt lat="48.42058" lon="2.629219"><ele></ele><time>2017-9-19T2:56:8Z</time></trkpt>
<trkpt lat="48.420486" lon="2.629111"><ele></ele><time>2017-9-19T2:56:11Z</time></trkpt>
<trkpt lat="48.420396" lon="2.628985"><ele></ele><time>2017-9-19T2:56:14Z</time></trkpt>
<trkpt lat="48.420241" lon="2.628952"><ele></ele><time>2017-9-19T2:56:17Z</time></trkpt>
<trkpt lat="48.420139" lon="2.62888"><ele></ele><time>2017-9-19T2:56:20Z</time></trkpt>
<trkpt lat="48.419916" lon="2.628656"><ele></ele><time>2017-9-19T2:56:23Z</time></trkpt>
<trkpt lat="48.419805" lon="2.62867"><ele></ele><time>2017-9-19T2:56:26Z</time></trkpt>
<trkpt lat="48.4197" lon="2.62867"><ele></ele><time>2017-9-19T2:56:29Z</time></trkpt>
<trkpt lat="48.419597" lon="2.628721"><ele></ele><time>2017-9-19T2:56:32Z</time></trkpt>
<trkpt lat="48.419514" lon="2.62883"><ele></ele><time>2017-9-19T2:56:35Z</time></trkpt>
<trkpt lat="48.419435" lon="2.628911"><ele></ele><time>2017-9-19T2:56:38Z</time></trkpt>
<trkpt lat="48.419335" lon="2.629023"><ele></ele><time>2017-9-19T2:56:41Z</time></trkpt>
<trkpt lat="48.41929" lon="2.629144"><ele></ele><time>2017-9-19T2:56:44Z</time></trkpt>
<trkpt lat="48.419191" lon="2.629157"><ele></ele><time>2017-9-19T2:56:47Z</time></trkpt>
<trkpt lat="48.419021" lon="2.629116"><ele></ele><time>2017-9-19T2:56:50Z</time></trkpt>
<trkpt lat="48.41893" lon="2.628994"><ele></ele><time>2017-9-19T2:56:53Z</time></trkpt>
<trkpt lat="48.418858" lon="2.628879"><ele></ele><time>2017-9-19T2:56:56Z</time></trkpt>
<trkpt lat="48.418766" lon="2.628805"><ele></ele><time>2017-9-19T2:56:59Z</time></trkpt>
<trkpt lat="48.418665" lon="2.628734"><ele></ele><time>2017-9-19T2:57:2Z</time></trkpt>
<trkpt lat="48.41856" lon="2.628721"><ele></ele><time>2017-9-19T2:57:5Z</time></trkpt>
<trkpt lat="48.418476" lon="2.628656"><ele></ele><time>2017-9-19T2:57:8Z</time></trkpt>
<trkpt lat="48.418383" lon="2.628607"><ele></ele><time>2017-9-19T2:57:11Z</time></trkpt>
<trkpt lat="48.418193" lon="2.628524"><ele></ele><time>2017-9-19T2:57:14Z</time></trkpt>
<trkpt lat="48.418095" lon="2.628508"><ele></ele><time>2017-9-19T2:57:17Z</time></trkpt>
<trkpt lat="48.417994" lon="2.628507"><ele></ele><time>2017-9-19T2:57:20Z</time></trkpt>
<trkpt lat="48.417804" lon="2.628384"><ele></ele><time>2017-9-19T2:57:23Z</time></trkpt>
<trkpt lat="48.417694" lon="2.628377"><ele></ele><time>2017-9-19T2:57:26Z</time></trkpt>
<trkpt lat="48.417535" lon="2.628302"><ele></ele><time>2017-9-19T2:57:29Z</time></trkpt>
<trkpt lat="48.417427" lon="2.628237"><ele></ele><time>2017-9-19T2:57:32Z</time></trkpt>
<trkpt lat="48.417319" lon="2.628195"><ele></ele><time>2017-9-19T2:57:35Z</time></trkpt>
<trkpt lat="48.417212" lon="2.628109"><ele></ele><time>2017-9-19T2:57:38Z</time></trkpt>
<trkpt lat="48.41712" lon="2.628087"><ele></ele><time>2017-9-19T2:57:41Z</time></trkpt>
<trkpt lat="48.416965" lon="2.62802"><ele></ele><time>2017-9-19T2:57:44Z</time></trkpt>
<trkpt lat="48.416866" lon="2.62801"><ele></ele><time>2017-9-19T2:57:47Z</time></trkpt>
<trkpt lat="48.416747" lon="2.627938"><ele></ele><time>2017-9-19T2:57:50Z</time></trkpt>
<trkpt lat="48.41658" lon="2.6279"><ele></ele><time>2017-9-19T2:57:53Z</time></trkpt>
<trkpt lat="48.416471" lon="2.627789"><ele></ele><time>2017-9-19T2:57:56Z</time></trkpt>
<trkpt lat="48.416368" lon="2.627746"><ele></ele><time>2017-9-19T2:57:59Z</time></trkpt>
<trkpt lat="48.416302" lon="2.62762"><ele></ele><time>2017-9-19T2:58:2Z</time></trkpt>
<trkpt lat="48.416191" lon="2.627449"><ele></ele><time>2017-9-19T2:58:5Z</time></trkpt>
<trkpt lat="48.416006" lon="2.627186"><ele></ele><time>2017-9-19T2:58:8Z</time></trkpt>
<trkpt lat="48.415885" lon="2.626964"><ele></ele><time>2017-9-19T2:58:11Z</time></trkpt>
<trkpt lat="48.415776" lon="2.626757"><ele></ele><time>2017-9-19T2:58:14Z</time></trkpt>
<trkpt lat="48.41574" lon="2.626573"><ele></ele><time>2017-9-19T2:58:17Z</time></trkpt>
<trkpt lat="48.41572" lon="2.626437"><ele></ele><time>2017-9-19T2:58:20Z</time></trkpt>
<trkpt lat="48.415761" lon="2.626294"><ele></ele><time>2017-9-19T2:58:23Z</time></trkpt>
<trkpt lat="48.415829" lon="2.6261"><ele></ele><time>2017-9-19T2:58:26Z</time></trkpt>
<trkpt lat="48.415876" lon="2.625924"><ele></ele><time>2017-9-19T2:58:29Z</time></trkpt>
<trkpt lat="48.415942" lon="2.625773"><ele></ele><time>2017-9-19T2:58:32Z</time></trkpt>
<trkpt lat="48.415936" lon="2.625636"><ele></ele><time>2017-9-19T2:58:35Z</time></trkpt>
<trkpt lat="48.415909" lon="2.625469"><ele></ele><time>2017-9-19T2:58:38Z</time></trkpt>
<trkpt lat="48.415839" lon="2.625304"><ele></ele><time>2017-9-19T2:58:41Z</time></trkpt>
<trkpt lat="48.415764" lon="2.625171"><ele></ele><time>2017-9-19T2:58:44Z</time></trkpt>
<trkpt lat="48.41567" lon="2.625076"><ele></ele><time>2017-9-19T2:58:47Z</time></trkpt>
<trkpt lat="48.415691" lon="2.624924"><ele></ele><time>2017-9-19T2:58:50Z</time></trkpt>
<trkpt lat="48.415674" lon="2.624781"><ele></ele><time>2017-9-19T2:58:53Z</time></trkpt>
<trkpt lat="48.415571" lon="2.624741"><ele></ele><time>2017-9-19T2:58:56Z</time></trkpt>
<trkpt lat="48.415395" lon="2.624664"><ele></ele><time>2017-9-19T2:58:59Z</time></trkpt>
<trkpt lat="48.415304" lon="2.624689"><ele></ele><time>2017-9-19T2:59:2Z</time></trkpt>
<trkpt lat="48.415189" lon="2.624738"><ele></ele><time>2017-9-19T2:59:5Z</time></trkpt>
<trkpt lat="48.414999" lon="2.624783"><ele></ele><time>2017-9-19T2:59:8Z</time></trkpt>
<trkpt lat="48.414902" lon="2.624824"><ele></ele><time>2017-9-19T2:59:11Z</time></trkpt>
<trkpt lat="48.414798" lon="2.624884"><ele></ele><time>2017-9-19T2:59:14Z</time></trkpt>
<trkpt lat="48.414706" lon="2.624928"><ele></ele><time>2017-9-19T2:59:17Z</time></trkpt>
<trkpt lat="48.414613" lon="2.624956"><ele></ele><time>2017-9-19T2:59:20Z</time></trkpt>
<trkpt lat="48.414512" lon="2.625046"><ele></ele><time>2017-9-19T2:59:23Z</time></trkpt>
<trkpt lat="48.414393" lon="2.625094"><ele></ele><time>2017-9-19T2:59:26Z</time></trkpt>
<trkpt lat="48.4143" lon="2.62514"><ele></ele><time>2017-9-19T2:59:29Z</time></trkpt>
<trkpt lat="48.414207" lon="2.625181"><ele></ele><time>2017-9-19T2:59:32Z</time></trkpt>
<trkpt lat="48.414025" lon="2.62534"><ele></ele><time>2017-9-19T2:59:35Z</time></trkpt>
<trkpt lat="48.413957" lon="2.625442"><ele></ele><time>2017-9-19T2:59:38Z</time></trkpt>
<trkpt lat="48.413858" lon="2.625506"><ele></ele><time>2017-9-19T2:59:41Z</time></trkpt>
<trkpt lat="48.413794" lon="2.625618"><ele></ele><time>2017-9-19T2:59:44Z</time></trkpt>
<trkpt lat="48.413692" lon="2.625719"><ele></ele><time>2017-9-19T2:59:47Z</time></trkpt>
<trkpt lat="48.413626" lon="2.625833"><ele></ele><time>2017-9-19T2:59:50Z</time></trkpt>
<trkpt lat="48.413542" lon="2.625891"><ele></ele><time>2017-9-19T2:59:53Z</time></trkpt>
<trkpt lat="48.413437" lon="2.62599"><ele></ele><time>2017-9-19T2:59:56Z</time></trkpt>
<trkpt lat="48.413345" lon="2.626101"><ele></ele><time>2017-9-19T2:59:59Z</time></trkpt>
<trkpt lat="48.413148" lon="2.626302"><ele></ele><time>2017-9-19T3:0:2Z</time></trkpt>
<trkpt lat="48.413048" lon="2.626393"><ele></ele><time>2017-9-19T3:0:5Z</time></trkpt>
<trkpt lat="48.412999" lon="2.62652"><ele></ele><time>2017-9-19T3:0:8Z</time></trkpt>
<trkpt lat="48.412924" lon="2.626643"><ele></ele><time>2017-9-19T3:0:11Z</time></trkpt>
<trkpt lat="48.41286" lon="2.626749"><ele></ele><time>2017-9-19T3:0:14Z</time></trkpt>
<trkpt lat="48.412771" lon="2.626861"><ele></ele><time>2017-9-19T3:0:17Z</time></trkpt>
<trkpt lat="48.412714" lon="2.627013"><ele></ele><time>2017-9-19T3:0:20Z</time></trkpt>
<trkpt lat="48.412619" lon="2.627152"><ele></ele><time>2017-9-19T3:0:23Z</time></trkpt>
<trkpt lat="48.412527" lon="2.627245"><ele></ele><time>2017-9-19T3:0:26Z</time></trkpt>
<trkpt lat="48.412449" lon="2.627331"><ele></ele><time>2017-9-19T3:0:29Z</time></trkpt>
<trkpt lat="48.412366" lon="2.627467"><ele></ele><time>2017-9-19T3:0:32Z</time></trkpt>
<trkpt lat="48.412274" lon="2.627582"><ele></ele><time>2017-9-19T3:0:35Z</time></trkpt>
<trkpt lat="48.412156" lon="2.627687"><ele></ele><time>2017-9-19T3:0:38Z</time></trkpt>
<trkpt lat="48.411989" lon="2.627912"><ele></ele><time>2017-9-19T3:0:41Z</time></trkpt>
<trkpt lat="48.412006" lon="2.628055"><ele></ele><time>2017-9-19T3:0:44Z</time></trkpt>
<trkpt lat="48.411926" lon="2.628147"><ele></ele><time>2017-9-19T3:0:47Z</time></trkpt>
<trkpt lat="48.411791" lon="2.628311"><ele></ele><time>2017-9-19T3:0:50Z</time></trkpt>
<trkpt lat="48.411722" lon="2.628411"><ele></ele><time>2017-9-19T3:0:53Z</time></trkpt>
<trkpt lat="48.411597" lon="2.628507"><ele></ele><time>2017-9-19T3:0:56Z</time></trkpt>
<trkpt lat="48.411501" lon="2.628571"><ele></ele><time>2017-9-19T3:0:59Z</time></trkpt>
<trkpt lat="48.411431" lon="2.628658"><ele></ele><time>2017-9-19T3:1:2Z</time></trkpt>
<trkpt lat="48.411383" lon="2.628774"><ele></ele><time>2017-9-19T3:1:5Z</time></trkpt>
<trkpt lat="48.411316" lon="2.628911"><ele></ele><time>2017-9-19T3:1:8Z</time></trkpt>
<trkpt lat="48.411214" lon="2.629003"><ele></ele><time>2017-9-19T3:1:11Z</time></trkpt>
<trkpt lat="48.411134" lon="2.629103"><ele></ele><time>2017-9-19T3:1:14Z</time></trkpt>
<trkpt lat="48.411035" lon="2.629185"><ele></ele><time>2017-9-19T3:1:17Z</time></trkpt>
<trkpt lat="48.411001" lon="2.629314"><ele></ele><time>2017-9-19T3:1:20Z</time></trkpt>
<trkpt lat="48.41088" lon="2.629473"><ele></ele><time>2017-9-19T3:1:23Z</time></trkpt>
<trkpt lat="48.410826" lon="2.629606"><ele></ele><time>2017-9-19T3:1:26Z</time></trkpt>
<trkpt lat="48.410742" lon="2.629674"><ele></ele><time>2017-9-19T3:1:29Z</time></trkpt>
<trkpt lat="48.410643" lon="2.629802"><ele></ele><time>2017-9-19T3:1:32Z</time></trkpt>
<trkpt lat="48.410565" lon="2.629882"><ele></ele><time>2017-9-19T3:1:35Z</time></trkpt>
<trkpt lat="48.410464" lon="2.630001"><ele></ele><time>2017-9-19T3:1:38Z</time></trkpt>
<trkpt lat="48.41039" lon="2.630136"><ele></ele><time>2017-9-19T3:1:41Z</time></trkpt>
<trkpt lat="48.410197" lon="2.630429"><ele></ele><time>2017-9-19T3:1:44Z</time></trkpt>
<trkpt lat="48.410187" lon="2.630571"><ele></ele><time>2017-9-19T3:1:47Z</time></trkpt>
<trkpt lat="48.410127" lon="2.630436"><ele></ele><time>2017-9-19T3:1:50Z</time></trkpt>
<trkpt lat="48.410141" lon="2.630253"><ele></ele><time>2017-9-19T3:1:53Z</time></trkpt>
<trkpt lat="48.410089" lon="2.630101"><ele></ele><time>2017-9-19T3:1:56Z</time></trkpt>
<trkpt lat="48.410118" lon="2.629922"><ele></ele><time>2017-9-19T3:1:59Z</time></trkpt>
<trkpt lat="48.410063" lon="2.629742"><ele></ele><time>2017-9-19T3:2:2Z</time></trkpt>
<trkpt lat="48.41002" lon="2.629623"><ele></ele><time>2017-9-19T3:2:5Z</time></trkpt>
<trkpt lat="48.40999" lon="2.629464"><ele></ele><time>2017-9-19T3:2:8Z</time></trkpt>
<trkpt lat="48.409956" lon="2.62933"><ele></ele><time>2017-9-19T3:2:11Z</time></trkpt>
<trkpt lat="48.409924" lon="2.62919"><ele></ele><time>2017-9-19T3:2:14Z</time></trkpt>
<trkpt lat="48.409866" lon="2.629005"><ele></ele><time>2017-9-19T3:2:17Z</time></trkpt>
<trkpt lat="48.409848" lon="2.628862"><ele></ele><time>2017-9-19T3:2:20Z</time></trkpt>
<trkpt lat="48.409778" lon="2.628639"><ele></ele><time>2017-9-19T3:2:23Z</time></trkpt>
<trkpt lat="48.409746" lon="2.628481"><ele></ele><time>2017-9-19T3:2:26Z</time></trkpt>
<trkpt lat="48.40977" lon="2.62826"><ele></ele><time>2017-9-19T3:2:29Z</time></trkpt>
<trkpt lat="48.409773" lon="2.628112"><ele></ele><time>2017-9-19T3:2:32Z</time></trkpt>
<trkpt lat="48.409717" lon="2.627954"><ele></ele><time>2017-9-19T3:2:35Z</time></trkpt>
<trkpt lat="48.409654" lon="2.627539"><ele></ele><time>2017-9-19T3:2:38Z</time></trkpt>
<trkpt lat="48.40966" lon="2.627302"><ele></ele><time>2017-9-19T3:2:41Z</time></trkpt>
<trkpt lat="48.409639" lon="2.627146"><ele></ele><time>2017-9-19T3:2:44Z</time></trkpt>
<trkpt lat="48.409645" lon="2.626998"><ele></ele><time>2017-9-19T3:2:47Z</time></trkpt>
<trkpt lat="48.409554" lon="2.626721"><ele></ele><time>2017-9-19T3:2:50Z</time></trkpt>
<trkpt lat="48.409529" lon="2.626535"><ele></ele><time>2017-9-19T3:2:53Z</time></trkpt>
<trkpt lat="48.409533" lon="2.626349"><ele></ele><time>2017-9-19T3:2:56Z</time></trkpt>
<trkpt lat="48.40958" lon="2.62619"><ele></ele><time>2017-9-19T3:2:59Z</time></trkpt>
<trkpt lat="48.409642" lon="2.626091"><ele></ele><time>2017-9-19T3:3:2Z</time></trkpt>
<trkpt lat="48.409672" lon="2.625843"><ele></ele><time>2017-9-19T3:3:5Z</time></trkpt>
<trkpt lat="48.409707" lon="2.625716"><ele></ele><time>2017-9-19T3:3:8Z</time></trkpt>
<trkpt lat="48.409687" lon="2.625564"><ele></ele><time>2017-9-19T3:3:11Z</time></trkpt>
<trkpt lat="48.409711" lon="2.625341"><ele></ele><time>2017-9-19T3:3:14Z</time></trkpt>
<trkpt lat="48.409757" lon="2.625209"><ele></ele><time>2017-9-19T3:3:17Z</time></trkpt>
<trkpt lat="48.409795" lon="2.625073"><ele></ele><time>2017-9-19T3:3:20Z</time></trkpt>
<trkpt lat="48.409888" lon="2.62493"><ele></ele><time>2017-9-19T3:3:23Z</time></trkpt>
<trkpt lat="48.40993" lon="2.624802"><ele></ele><time>2017-9-19T3:3:26Z</time></trkpt>
<trkpt lat="48.410028" lon="2.624687"><ele></ele><time>2017-9-19T3:3:29Z</time></trkpt>
<trkpt lat="48.410124" lon="2.624543"><ele></ele><time>2017-9-19T3:3:32Z</time></trkpt>
<trkpt lat="48.410275" lon="2.624359"><ele></ele><time>2017-9-19T3:3:35Z</time></trkpt>
<trkpt lat="48.410355" lon="2.624156"><ele></ele><time>2017-9-19T3:3:38Z</time></trkpt>
<trkpt lat="48.410405" lon="2.623968"><ele></ele><time>2017-9-19T3:3:41Z</time></trkpt>
<trkpt lat="48.410474" lon="2.623848"><ele></ele><time>2017-9-19T3:3:44Z</time></trkpt>
<trkpt lat="48.41056" lon="2.623565"><ele></ele><time>2017-9-19T3:3:47Z</time></trkpt>
<trkpt lat="48.410656" lon="2.623398"><ele></ele><time>2017-9-19T3:3:50Z</time></trkpt>
<trkpt lat="48.410635" lon="2.622943"><ele></ele><time>2017-9-19T3:3:53Z</time></trkpt>
<trkpt lat="48.410608" lon="2.622775"><ele></ele><time>2017-9-19T3:3:56Z</time></trkpt>
<trkpt lat="48.410621" lon="2.622585"><ele></ele><time>2017-9-19T3:3:59Z</time></trkpt>
<trkpt lat="48.410627" lon="2.622415"><ele></ele><time>2017-9-19T3:4:2Z</time></trkpt>
<trkpt lat="48.410587" lon="2.622202"><ele></ele><time>2017-9-19T3:4:5Z</time></trkpt>
<trkpt lat="48.410564" lon="2.62199"><ele></ele><time>2017-9-19T3:4:8Z</time></trkpt>
<trkpt lat="48.410536" lon="2.621755"><ele></ele><time>2017-9-19T3:4:11Z</time></trkpt>
<trkpt lat="48.410531" lon="2.621498"><ele></ele><time>2017-9-19T3:4:14Z</time></trkpt>
<trkpt lat="48.410552" lon="2.621292"><ele></ele><time>2017-9-19T3:4:17Z</time></trkpt>
<trkpt lat="48.410557" lon="2.621074"><ele></ele><time>2017-9-19T3:4:20Z</time></trkpt>
<trkpt lat="48.410599" lon="2.620824"><ele></ele><time>2017-9-19T3:4:23Z</time></trkpt>
<trkpt lat="48.410669" lon="2.620596"><ele></ele><time>2017-9-19T3:4:26Z</time></trkpt>
<trkpt lat="48.410698" lon="2.62036"><ele></ele><time>2017-9-19T3:4:29Z</time></trkpt>
<trkpt lat="48.410726" lon="2.620214"><ele></ele><time>2017-9-19T3:4:32Z</time></trkpt>
<trkpt lat="48.4108" lon="2.61999"><ele></ele><time>2017-9-19T3:4:35Z</time></trkpt>
<trkpt lat="48.410822" lon="2.619785"><ele></ele><time>2017-9-19T3:4:38Z</time></trkpt>
<trkpt lat="48.410876" lon="2.619459"><ele></ele><time>2017-9-19T3:4:41Z</time></trkpt>
<trkpt lat="48.410841" lon="2.61933"><ele></ele><time>2017-9-19T3:4:44Z</time></trkpt>
<trkpt lat="48.410968" lon="2.618958"><ele></ele><time>2017-9-19T3:4:47Z</time></trkpt>
<trkpt lat="48.411045" lon="2.618599"><ele></ele><time>2017-9-19T3:4:50Z</time></trkpt>
<trkpt lat="48.411052" lon="2.618257"><ele></ele><time>2017-9-19T3:4:53Z</time></trkpt>
<trkpt lat="48.411042" lon="2.618034"><ele></ele><time>2017-9-19T3:4:56Z</time></trkpt>
<trkpt lat="48.411056" lon="2.617838"><ele></ele><time>2017-9-19T3:4:59Z</time></trkpt>
<trkpt lat="48.411098" lon="2.617716"><ele></ele><time>2017-9-19T3:5:2Z</time></trkpt>
<trkpt lat="48.411136" lon="2.617457"><ele></ele><time>2017-9-19T3:5:5Z</time></trkpt>
<trkpt lat="48.411171" lon="2.617247"><ele></ele><time>2017-9-19T3:5:8Z</time></trkpt>
<trkpt lat="48.411207" lon="2.617044"><ele></ele><time>2017-9-19T3:5:11Z</time></trkpt>
<trkpt lat="48.41126" lon="2.61686"><ele></ele><time>2017-9-19T3:5:14Z</time></trkpt>
<trkpt lat="48.411285" lon="2.616692"><ele></ele><time>2017-9-19T3:5:17Z</time></trkpt>
<trkpt lat="48.411391" lon="2.616407"><ele></ele><time>2017-9-19T3:5:20Z</time></trkpt>
<trkpt lat="48.411468" lon="2.616255"><ele></ele><time>2017-9-19T3:5:23Z</time></trkpt>
<trkpt lat="48.411515" lon="2.616099"><ele></ele><time>2017-9-19T3:5:26Z</time></trkpt>
<trkpt lat="48.411605" lon="2.615884"><ele></ele><time>2017-9-19T3:5:29Z</time></trkpt>
<trkpt lat="48.411684" lon="2.615651"><ele></ele><time>2017-9-19T3:5:32Z</time></trkpt>
<trkpt lat="48.411651" lon="2.615445"><ele></ele><time>2017-9-19T3:5:35Z</time></trkpt>
<trkpt lat="48.411675" lon="2.615313"><ele></ele><time>2017-9-19T3:5:38Z</time></trkpt>
<trkpt lat="48.411705" lon="2.615134"><ele></ele><time>2017-9-19T3:5:41Z</time></trkpt>
<trkpt lat="48.411786" lon="2.614912"><ele></ele><time>2017-9-19T3:5:44Z</time></trkpt>
<trkpt lat="48.411811" lon="2.614725"><ele></ele><time>2017-9-19T3:5:47Z</time></trkpt>
<trkpt lat="48.411732" lon="2.614573"><ele></ele><time>2017-9-19T3:5:50Z</time></trkpt>
<trkpt lat="48.41171" lon="2.614439"><ele></ele><time>2017-9-19T3:5:53Z</time></trkpt>
<trkpt lat="48.411754" lon="2.614295"><ele></ele><time>2017-9-19T3:5:56Z</time></trkpt>
<trkpt lat="48.411727" lon="2.614127"><ele></ele><time>2017-9-19T3:5:59Z</time></trkpt>
<trkpt lat="48.411679" lon="2.613961"><ele></ele><time>2017-9-19T3:6:2Z</time></trkpt>
<trkpt lat="48.411667" lon="2.613806"><ele></ele><time>2017-9-19T3:6:5Z</time></trkpt>
<trkpt lat="48.411638" lon="2.613606"><ele></ele><time>2017-9-19T3:6:8Z</time></trkpt>
<trkpt lat="48.411628" lon="2.613446"><ele></ele><time>2017-9-19T3:6:11Z</time></trkpt>
<trkpt lat="48.411629" lon="2.613303"><ele></ele><time>2017-9-19T3:6:14Z</time></trkpt>
<trkpt lat="48.411622" lon="2.613159"><ele></ele><time>2017-9-19T3:6:17Z</time></trkpt>
<trkpt lat="48.411599" lon="2.613006"><ele></ele><time>2017-9-19T3:6:20Z</time></trkpt>
<trkpt lat="48.411603" lon="2.612852"><ele></ele><time>2017-9-19T3:6:23Z</time></trkpt>
<trkpt lat="48.411587" lon="2.612701"><ele></ele><time>2017-9-19T3:6:26Z</time></trkpt>
<trkpt lat="48.411526" lon="2.612508"><ele></ele><time>2017-9-19T3:6:29Z</time></trkpt>
<trkpt lat="48.411517" lon="2.612327"><ele></ele><time>2017-9-19T3:6:32Z</time></trkpt>
<trkpt lat="48.411483" lon="2.612173"><ele></ele><time>2017-9-19T3:6:35Z</time></trkpt>
<trkpt lat="48.411437" lon="2.611993"><ele></ele><time>2017-9-19T3:6:38Z</time></trkpt>
<trkpt lat="48.4114" lon="2.611806"><ele></ele><time>2017-9-19T3:6:41Z</time></trkpt>
<trkpt lat="48.411389" lon="2.611525"><ele></ele><time>2017-9-19T3:6:44Z</time></trkpt>
<trkpt lat="48.411365" lon="2.611381"><ele></ele><time>2017-9-19T3:6:47Z</time></trkpt>
<trkpt lat="48.411323" lon="2.611221"><ele></ele><time>2017-9-19T3:6:50Z</time></trkpt>
<trkpt lat="48.411352" lon="2.611069"><ele></ele><time>2017-9-19T3:6:53Z</time></trkpt>
<trkpt lat="48.411323" lon="2.610928"><ele></ele><time>2017-9-19T3:6:56Z</time></trkpt>
<trkpt lat="48.411259" lon="2.610792"><ele></ele><time>2017-9-19T3:6:59Z</time></trkpt>
<trkpt lat="48.411275" lon="2.610654"><ele></ele><time>2017-9-19T3:7:2Z</time></trkpt>
<trkpt lat="48.411308" lon="2.610479"><ele></ele><time>2017-9-19T3:7:5Z</time></trkpt>
<trkpt lat="48.411296" lon="2.610341"><ele></ele><time>2017-9-19T3:7:8Z</time></trkpt>
<trkpt lat="48.411269" lon="2.610194"><ele></ele><time>2017-9-19T3:7:11Z</time></trkpt>
<trkpt lat="48.411265" lon="2.610036"><ele></ele><time>2017-9-19T3:7:14Z</time></trkpt>
<trkpt lat="48.411236" lon="2.609885"><ele></ele><time>2017-9-19T3:7:17Z</time></trkpt>
<trkpt lat="48.411226" lon="2.609695"><ele></ele><time>2017-9-19T3:7:20Z</time></trkpt>
<trkpt lat="48.411104" lon="2.609606"><ele></ele><time>2017-9-19T3:7:23Z</time></trkpt>
<trkpt lat="48.411007" lon="2.609597"><ele></ele><time>2017-9-19T3:7:26Z</time></trkpt>
<trkpt lat="48.410911" lon="2.60962"><ele></ele><time>2017-9-19T3:7:29Z</time></trkpt>
<trkpt lat="48.41081" lon="2.609663"><ele></ele><time>2017-9-19T3:7:32Z</time></trkpt>
<trkpt lat="48.410703" lon="2.609701"><ele></ele><time>2017-9-19T3:7:35Z</time></trkpt>
<trkpt lat="48.410594" lon="2.609729"><ele></ele><time>2017-9-19T3:7:38Z</time></trkpt>
<trkpt lat="48.410487" lon="2.609752"><ele></ele><time>2017-9-19T3:7:41Z</time></trkpt>
<trkpt lat="48.410385" lon="2.60977"><ele></ele><time>2017-9-19T3:7:44Z</time></trkpt>
<trkpt lat="48.410177" lon="2.609831"><ele></ele><time>2017-9-19T3:7:47Z</time></trkpt>
<trkpt lat="48.410082" lon="2.609788"><ele></ele><time>2017-9-19T3:7:50Z</time></trkpt>
<trkpt lat="48.409983" lon="2.609733"><ele></ele><time>2017-9-19T3:7:53Z</time></trkpt>
<trkpt lat="48.409879" lon="2.609705"><ele></ele><time>2017-9-19T3:7:56Z</time></trkpt>
<trkpt lat="48.409776" lon="2.60972"><ele></ele><time>2017-9-19T3:7:59Z</time></trkpt>
<trkpt lat="48.409647" lon="2.60972"><ele></ele><time>2017-9-19T3:8:2Z</time></trkpt>
<trkpt lat="48.409532" lon="2.609774"><ele></ele><time>2017-9-19T3:8:5Z</time></trkpt>
<trkpt lat="48.409442" lon="2.609818"><ele></ele><time>2017-9-19T3:8:8Z</time></trkpt>
<trkpt lat="48.409298" lon="2.610017"><ele></ele><time>2017-9-19T3:8:11Z</time></trkpt>
<trkpt lat="48.409206" lon="2.610114"><ele></ele><time>2017-9-19T3:8:14Z</time></trkpt>
<trkpt lat="48.409129" lon="2.610201"><ele></ele><time>2017-9-19T3:8:17Z</time></trkpt>
<trkpt lat="48.409054" lon="2.610306"><ele></ele><time>2017-9-19T3:8:20Z</time></trkpt>
<trkpt lat="48.408944" lon="2.610401"><ele></ele><time>2017-9-19T3:8:23Z</time></trkpt>
<trkpt lat="48.40884" lon="2.610525"><ele></ele><time>2017-9-19T3:8:26Z</time></trkpt>
<trkpt lat="48.408773" lon="2.610623"><ele></ele><time>2017-9-19T3:8:29Z</time></trkpt>
<trkpt lat="48.408711" lon="2.610819"><ele></ele><time>2017-9-19T3:8:32Z</time></trkpt>
<trkpt lat="48.408687" lon="2.610975"><ele></ele><time>2017-9-19T3:8:35Z</time></trkpt>
<trkpt lat="48.408701" lon="2.611217"><ele></ele><time>2017-9-19T3:8:38Z</time></trkpt>
<trkpt lat="48.408752" lon="2.611431"><ele></ele><time>2017-9-19T3:8:41Z</time></trkpt>
<trkpt lat="48.408753" lon="2.611644"><ele></ele><time>2017-9-19T3:8:44Z</time></trkpt>
<trkpt lat="48.408732" lon="2.611851"><ele></ele><time>2017-9-19T3:8:47Z</time></trkpt>
<trkpt lat="48.408709" lon="2.612031"><ele></ele><time>2017-9-19T3:8:50Z</time></trkpt>
<trkpt lat="48.408712" lon="2.612252"><ele></ele><time>2017-9-19T3:8:53Z</time></trkpt>
<trkpt lat="48.408758" lon="2.612445"><ele></ele><time>2017-9-19T3:8:56Z</time></trkpt>
<trkpt lat="48.408813" lon="2.612587"><ele></ele><time>2017-9-19T3:8:59Z</time></trkpt>
<trkpt lat="48.408861" lon="2.612732"><ele></ele><time>2017-9-19T3:9:2Z</time></trkpt>
<trkpt lat="48.408865" lon="2.612931"><ele></ele><time>2017-9-19T3:9:5Z</time></trkpt>
<trkpt lat="48.408884" lon="2.613142"><ele></ele><time>2017-9-19T3:9:8Z</time></trkpt>
<trkpt lat="48.408966" lon="2.613285"><ele></ele><time>2017-9-19T3:9:11Z</time></trkpt>
<trkpt lat="48.409047" lon="2.613626"><ele></ele><time>2017-9-19T3:9:14Z</time></trkpt>
<trkpt lat="48.409043" lon="2.613784"><ele></ele><time>2017-9-19T3:9:17Z</time></trkpt>
<trkpt lat="48.409065" lon="2.613929"><ele></ele><time>2017-9-19T3:9:20Z</time></trkpt>
<trkpt lat="48.4091" lon="2.61406"><ele></ele><time>2017-9-19T3:9:23Z</time></trkpt>
<trkpt lat="48.409092" lon="2.61422"><ele></ele><time>2017-9-19T3:9:26Z</time></trkpt>
<trkpt lat="48.409088" lon="2.61437"><ele></ele><time>2017-9-19T3:9:29Z</time></trkpt>
<trkpt lat="48.409093" lon="2.614524"><ele></ele><time>2017-9-19T3:9:32Z</time></trkpt>
<trkpt lat="48.409055" lon="2.614659"><ele></ele><time>2017-9-19T3:9:35Z</time></trkpt>
<trkpt lat="48.409012" lon="2.614818"><ele></ele><time>2017-9-19T3:9:38Z</time></trkpt>
<trkpt lat="48.40893" lon="2.614946"><ele></ele><time>2017-9-19T3:9:41Z</time></trkpt>
<trkpt lat="48.408888" lon="2.61509"><ele></ele><time>2017-9-19T3:9:44Z</time></trkpt>
<trkpt lat="48.408774" lon="2.61519"><ele></ele><time>2017-9-19T3:9:47Z</time></trkpt>
<trkpt lat="48.408748" lon="2.615324"><ele></ele><time>2017-9-19T3:9:50Z</time></trkpt>
<trkpt lat="48.40873" lon="2.615478"><ele></ele><time>2017-9-19T3:9:53Z</time></trkpt>
<trkpt lat="48.408617" lon="2.61555"><ele></ele><time>2017-9-19T3:9:56Z</time></trkpt>
<trkpt lat="48.408579" lon="2.615705"><ele></ele><time>2017-9-19T3:9:59Z</time></trkpt>
<trkpt lat="48.408517" lon="2.61606"><ele></ele><time>2017-9-19T3:10:2Z</time></trkpt>
<trkpt lat="48.40853" lon="2.616213"><ele></ele><time>2017-9-19T3:10:5Z</time></trkpt>
<trkpt lat="48.40854" lon="2.616355"><ele></ele><time>2017-9-19T3:10:8Z</time></trkpt>
<trkpt lat="48.408539" lon="2.616496"><ele></ele><time>2017-9-19T3:10:11Z</time></trkpt>
<trkpt lat="48.40847" lon="2.616607"><ele></ele><time>2017-9-19T3:10:14Z</time></trkpt>
<trkpt lat="48.408389" lon="2.616745"><ele></ele><time>2017-9-19T3:10:17Z</time></trkpt>
<trkpt lat="48.408358" lon="2.616884"><ele></ele><time>2017-9-19T3:10:20Z</time></trkpt>
<trkpt lat="48.408447" lon="2.617084"><ele></ele><time>2017-9-19T3:10:23Z</time></trkpt>
<trkpt lat="48.408379" lon="2.617256"><ele></ele><time>2017-9-19T3:10:26Z</time></trkpt>
<trkpt lat="48.408383" lon="2.617392"><ele></ele><time>2017-9-19T3:10:29Z</time></trkpt>
<trkpt lat="48.408305" lon="2.617493"><ele></ele><time>2017-9-19T3:10:32Z</time></trkpt>
<trkpt lat="48.408284" lon="2.617636"><ele></ele><time>2017-9-19T3:10:35Z</time></trkpt>
<trkpt lat="48.408177" lon="2.617796"><ele></ele><time>2017-9-19T3:10:38Z</time></trkpt>
<trkpt lat="48.408114" lon="2.617942"><ele></ele><time>2017-9-19T3:10:41Z</time></trkpt>
<trkpt lat="48.408137" lon="2.618119"><ele></ele><time>2017-9-19T3:10:44Z</time></trkpt>
<trkpt lat="48.408046" lon="2.618219"><ele></ele><time>2017-9-19T3:10:47Z</time></trkpt>
<trkpt lat="48.408063" lon="2.618369"><ele></ele><time>2017-9-19T3:10:50Z</time></trkpt>
<trkpt lat="48.408046" lon="2.618525"><ele></ele><time>2017-9-19T3:10:53Z</time></trkpt>
<trkpt lat="48.407993" lon="2.618836"><ele></ele><time>2017-9-19T3:10:56Z</time></trkpt>
<trkpt lat="48.407969" lon="2.619005"><ele></ele><time>2017-9-19T3:10:59Z</time></trkpt>
<trkpt lat="48.407967" lon="2.619155"><ele></ele><time>2017-9-19T3:11:2Z</time></trkpt>
<trkpt lat="48.40796" lon="2.619348"><ele></ele><time>2017-9-19T3:11:5Z</time></trkpt>
<trkpt lat="48.407982" lon="2.619499"><ele></ele><time>2017-9-19T3:11:8Z</time></trkpt>
<trkpt lat="48.408024" lon="2.619638"><ele></ele><time>2017-9-19T3:11:11Z</time></trkpt>
<trkpt lat="48.408049" lon="2.619855"><ele></ele><time>2017-9-19T3:11:14Z</time></trkpt>
<trkpt lat="48.408049" lon="2.619993"><ele></ele><time>2017-9-19T3:11:17Z</time></trkpt>
<trkpt lat="48.408057" lon="2.620171"><ele></ele><time>2017-9-19T3:11:20Z</time></trkpt>
<trkpt lat="48.408043" lon="2.620337"><ele></ele><time>2017-9-19T3:11:23Z</time></trkpt>
<trkpt lat="48.408036" lon="2.62054"><ele></ele><time>2017-9-19T3:11:26Z</time></trkpt>
<trkpt lat="48.408096" lon="2.620696"><ele></ele><time>2017-9-19T3:11:29Z</time></trkpt>
<trkpt lat="48.408122" lon="2.620865"><ele></ele><time>2017-9-19T3:11:32Z</time></trkpt>
<trkpt lat="48.40816" lon="2.621026"><ele></ele><time>2017-9-19T3:11:35Z</time></trkpt>
<trkpt lat="48.408086" lon="2.621152"><ele></ele><time>2017-9-19T3:11:38Z</time></trkpt>
<trkpt lat="48.408054" lon="2.621317"><ele></ele><time>2017-9-19T3:11:41Z</time></trkpt>
<trkpt lat="48.408015" lon="2.621508"><ele></ele><time>2017-9-19T3:11:44Z</time></trkpt>
<trkpt lat="48.408" lon="2.62168"><ele></ele><time>2017-9-19T3:11:47Z</time></trkpt>
<trkpt lat="48.407912" lon="2.621964"><ele></ele><time>2017-9-19T3:11:50Z</time></trkpt>
<trkpt lat="48.407859" lon="2.622088"><ele></ele><time>2017-9-19T3:11:53Z</time></trkpt>
<trkpt lat="48.407816" lon="2.622242"><ele></ele><time>2017-9-19T3:11:56Z</time></trkpt>
<trkpt lat="48.407737" lon="2.62239"><ele></ele><time>2017-9-19T3:11:59Z</time></trkpt>
<trkpt lat="48.407705" lon="2.622554"><ele></ele><time>2017-9-19T3:12:2Z</time></trkpt>
<trkpt lat="48.407647" lon="2.62267"><ele></ele><time>2017-9-19T3:12:5Z</time></trkpt>
<trkpt lat="48.407553" lon="2.622801"><ele></ele><time>2017-9-19T3:12:8Z</time></trkpt>
<trkpt lat="48.407515" lon="2.622933"><ele></ele><time>2017-9-19T3:12:11Z</time></trkpt>
<trkpt lat="48.407463" lon="2.623097"><ele></ele><time>2017-9-19T3:12:14Z</time></trkpt>
<trkpt lat="48.407379" lon="2.623256"><ele></ele><time>2017-9-19T3:12:17Z</time></trkpt>
<trkpt lat="48.40735" lon="2.623391"><ele></ele><time>2017-9-19T3:12:20Z</time></trkpt>
<trkpt lat="48.407249" lon="2.623512"><ele></ele><time>2017-9-19T3:12:23Z</time></trkpt>
<trkpt lat="48.407222" lon="2.623668"><ele></ele><time>2017-9-19T3:12:26Z</time></trkpt>
<trkpt lat="48.407212" lon="2.623842"><ele></ele><time>2017-9-19T3:12:29Z</time></trkpt>
<trkpt lat="48.407175" lon="2.623998"><ele></ele><time>2017-9-19T3:12:32Z</time></trkpt>
<trkpt lat="48.407124" lon="2.624125"><ele></ele><time>2017-9-19T3:12:35Z</time></trkpt>
<trkpt lat="48.407107" lon="2.624258"><ele></ele><time>2017-9-19T3:12:38Z</time></trkpt>
<trkpt lat="48.407048" lon="2.6244"><ele></ele><time>2017-9-19T3:12:41Z</time></trkpt>
<trkpt lat="48.407037" lon="2.624582"><ele></ele><time>2017-9-19T3:12:44Z</time></trkpt>
<trkpt lat="48.407051" lon="2.624802"><ele></ele><time>2017-9-19T3:12:47Z</time></trkpt>
<trkpt lat="48.407092" lon="2.62511"><ele></ele><time>2017-9-19T3:12:50Z</time></trkpt>
<trkpt lat="48.407079" lon="2.625352"><ele></ele><time>2017-9-19T3:12:53Z</time></trkpt>
<trkpt lat="48.407095" lon="2.625497"><ele></ele><time>2017-9-19T3:12:56Z</time></trkpt>
<trkpt lat="48.407098" lon="2.625687"><ele></ele><time>2017-9-19T3:12:59Z</time></trkpt>
<trkpt lat="48.407114" lon="2.625868"><ele></ele><time>2017-9-19T3:13:2Z</time></trkpt>
<trkpt lat="48.407078" lon="2.62601"><ele></ele><time>2017-9-19T3:13:5Z</time></trkpt>
<trkpt lat="48.407106" lon="2.626152"><ele></ele><time>2017-9-19T3:13:8Z</time></trkpt>
<trkpt lat="48.407095" lon="2.626323"><ele></ele><time>2017-9-19T3:13:11Z</time></trkpt>
<trkpt lat="48.407067" lon="2.626499"><ele></ele><time>2017-9-19T3:13:14Z</time></trkpt>
<trkpt lat="48.407079" lon="2.626642"><ele></ele><time>2017-9-19T3:13:17Z</time></trkpt>
<trkpt lat="48.406988" lon="2.626664"><ele></ele><time>2017-9-19T3:13:20Z</time></trkpt>
<trkpt lat="48.406906" lon="2.626606"><ele></ele><time>2017-9-19T3:13:23Z</time></trkpt>
<trkpt lat="48.406827" lon="2.626485"><ele></ele><time>2017-9-19T3:13:26Z</time></trkpt>
<trkpt lat="48.406749" lon="2.62639"><ele></ele><time>2017-9-19T3:13:29Z</time></trkpt>
<trkpt lat="48.406676" lon="2.626273"><ele></ele><time>2017-9-19T3:13:32Z</time></trkpt>
<trkpt lat="48.406629" lon="2.626148"><ele></ele><time>2017-9-19T3:13:35Z</time></trkpt>
<trkpt lat="48.406639" lon="2.62606"><ele></ele><time>2017-9-19T3:13:38Z</time></trkpt>
<trkpt lat="48.406568" lon="2.625956"><ele></ele><time>2017-9-19T3:13:41Z</time></trkpt>
<trkpt lat="48.40647" lon="2.625892"><ele></ele><time>2017-9-19T3:13:44Z</time></trkpt>
<trkpt lat="48.406379" lon="2.625857"><ele></ele><time>2017-9-19T3:13:47Z</time></trkpt>
<trkpt lat="48.406201" lon="2.625718"><ele></ele><time>2017-9-19T3:13:50Z</time></trkpt>
<trkpt lat="48.406087" lon="2.625663"><ele></ele><time>2017-9-19T3:13:53Z</time></trkpt>
<trkpt lat="48.405977" lon="2.625627"><ele></ele><time>2017-9-19T3:13:56Z</time></trkpt>
<trkpt lat="48.405892" lon="2.625557"><ele></ele><time>2017-9-19T3:13:59Z</time></trkpt>
<trkpt lat="48.405724" lon="2.625574"><ele></ele><time>2017-9-19T3:14:2Z</time></trkpt>
<trkpt lat="48.405614" lon="2.625609"><ele></ele><time>2017-9-19T3:14:5Z</time></trkpt>
<trkpt lat="48.405503" lon="2.625688"><ele></ele><time>2017-9-19T3:14:8Z</time></trkpt>
<trkpt lat="48.405481" lon="2.625841"><ele></ele><time>2017-9-19T3:14:11Z</time></trkpt>
<trkpt lat="48.405464" lon="2.626044"><ele></ele><time>2017-9-19T3:14:14Z</time></trkpt>
<trkpt lat="48.405462" lon="2.626187"><ele></ele><time>2017-9-19T3:14:17Z</time></trkpt>
<trkpt lat="48.405423" lon="2.626328"><ele></ele><time>2017-9-19T3:14:20Z</time></trkpt>
<trkpt lat="48.405346" lon="2.626673"><ele></ele><time>2017-9-19T3:14:23Z</time></trkpt>
<trkpt lat="48.405333" lon="2.626845"><ele></ele><time>2017-9-19T3:14:26Z</time></trkpt>
<trkpt lat="48.405337" lon="2.627011"><ele></ele><time>2017-9-19T3:14:29Z</time></trkpt>
<trkpt lat="48.405302" lon="2.627177"><ele></ele><time>2017-9-19T3:14:32Z</time></trkpt>
<trkpt lat="48.405276" lon="2.627319"><ele></ele><time>2017-9-19T3:14:35Z</time></trkpt>
<trkpt lat="48.405266" lon="2.627488"><ele></ele><time>2017-9-19T3:14:38Z</time></trkpt>
<trkpt lat="48.405265" lon="2.627625"><ele></ele><time>2017-9-19T3:14:41Z</time></trkpt>
<trkpt lat="48.405207" lon="2.627758"><ele></ele><time>2017-9-19T3:14:44Z</time></trkpt>
<trkpt lat="48.405181" lon="2.627947"><ele></ele><time>2017-9-19T3:14:47Z</time></trkpt>
<trkpt lat="48.405137" lon="2.628092"><ele></ele><time>2017-9-19T3:14:50Z</time></trkpt>
<trkpt lat="48.405099" lon="2.628217"><ele></ele><time>2017-9-19T3:14:53Z</time></trkpt>
<trkpt lat="48.405088" lon="2.628371"><ele></ele><time>2017-9-19T3:14:56Z</time></trkpt>
<trkpt lat="48.405081" lon="2.628528"><ele></ele><time>2017-9-19T3:14:59Z</time></trkpt>
<trkpt lat="48.405116" lon="2.628697"><ele></ele><time>2017-9-19T3:15:2Z</time></trkpt>
<trkpt lat="48.405137" lon="2.62884"><ele></ele><time>2017-9-19T3:15:5Z</time></trkpt>
<trkpt lat="48.405121" lon="2.628994"><ele></ele><time>2017-9-19T3:15:8Z</time></trkpt>
<trkpt lat="48.405113" lon="2.629171"><ele></ele><time>2017-9-19T3:15:11Z</time></trkpt>
<trkpt lat="48.405044" lon="2.629464"><ele></ele><time>2017-9-19T3:15:14Z</time></trkpt>
<trkpt lat="48.405083" lon="2.629632"><ele></ele><time>2017-9-19T3:15:17Z</time></trkpt>
<trkpt lat="48.405104" lon="2.629778"><ele></ele><time>2017-9-19T3:15:20Z</time></trkpt>
<trkpt lat="48.405141" lon="2.62991"><ele></ele><time>2017-9-19T3:15:23Z</time></trkpt>
<trkpt lat="48.405168" lon="2.630048"><ele></ele><time>2017-9-19T3:15:26Z</time></trkpt>
<trkpt lat="48.405151" lon="2.6302"><ele></ele><time>2017-9-19T3:15:29Z</time></trkpt>
<trkpt lat="48.405121" lon="2.630346"><ele></ele><time>2017-9-19T3:15:32Z</time></trkpt>
<trkpt lat="48.405147" lon="2.6305"><ele></ele><time>2017-9-19T3:15:35Z</time></trkpt>
<trkpt lat="48.405128" lon="2.630661"><ele></ele><time>2017-9-19T3:15:38Z</time></trkpt>
<trkpt lat="48.405071" lon="2.630788"><ele></ele><time>2017-9-19T3:15:41Z</time></trkpt>
<trkpt lat="48.404977" lon="2.630832"><ele></ele><time>2017-9-19T3:15:44Z</time></trkpt>
<trkpt lat="48.404998" lon="2.630973"><ele></ele><time>2017-9-19T3:15:47Z</time></trkpt>
<trkpt lat="48.405031" lon="2.631105"><ele></ele><time>2017-9-19T3:15:50Z</time></trkpt>
<trkpt lat="48.405025" lon="2.631267"><ele></ele><time>2017-9-19T3:15:53Z</time></trkpt>
<trkpt lat="48.40507" lon="2.631586"><ele></ele><time>2017-9-19T3:15:56Z</time></trkpt>
<trkpt lat="48.40503" lon="2.631715"><ele></ele><time>2017-9-19T3:15:59Z</time></trkpt>
<trkpt lat="48.405004" lon="2.631889"><ele></ele><time>2017-9-19T3:16:2Z</time></trkpt>
<trkpt lat="48.404965" lon="2.632023"><ele></ele><time>2017-9-19T3:16:5Z</time></trkpt>
<trkpt lat="48.404936" lon="2.632174"><ele></ele><time>2017-9-19T3:16:8Z</time></trkpt>
<trkpt lat="48.404951" lon="2.632328"><ele></ele><time>2017-9-19T3:16:11Z</time></trkpt>
<trkpt lat="48.404933" lon="2.632477"><ele></ele><time>2017-9-19T3:16:14Z</time></trkpt>
<trkpt lat="48.40491" lon="2.632637"><ele></ele><time>2017-9-19T3:16:17Z</time></trkpt>
<trkpt lat="48.404877" lon="2.632772"><ele></ele><time>2017-9-19T3:16:20Z</time></trkpt>
<trkpt lat="48.404852" lon="2.632945"><ele></ele><time>2017-9-19T3:16:23Z</time></trkpt>
<trkpt lat="48.404844" lon="2.633109"><ele></ele><time>2017-9-19T3:16:26Z</time></trkpt>
<trkpt lat="48.404842" lon="2.633274"><ele></ele><time>2017-9-19T3:16:29Z</time></trkpt>
<trkpt lat="48.404799" lon="2.63341"><ele></ele><time>2017-9-19T3:16:32Z</time></trkpt>
<trkpt lat="48.404731" lon="2.633552"><ele></ele><time>2017-9-19T3:16:35Z</time></trkpt>
<trkpt lat="48.404707" lon="2.633724"><ele></ele><time>2017-9-19T3:16:38Z</time></trkpt>
<trkpt lat="48.404661" lon="2.633853"><ele></ele><time>2017-9-19T3:16:41Z</time></trkpt>
<trkpt lat="48.404637" lon="2.634054"><ele></ele><time>2017-9-19T3:16:44Z</time></trkpt>
<trkpt lat="48.404653" lon="2.634257"><ele></ele><time>2017-9-19T3:16:47Z</time></trkpt>
<trkpt lat="48.404646" lon="2.634417"><ele></ele><time>2017-9-19T3:16:50Z</time></trkpt>
<trkpt lat="48.404778" lon="2.634669"><ele></ele><time>2017-9-19T3:16:53Z</time></trkpt>
<trkpt lat="48.404844" lon="2.634762"><ele></ele><time>2017-9-19T3:16:56Z</time></trkpt>
<trkpt lat="48.404955" lon="2.634869"><ele></ele><time>2017-9-19T3:16:59Z</time></trkpt>
<trkpt lat="48.405023" lon="2.634968"><ele></ele><time>2017-9-19T3:17:2Z</time></trkpt>
<trkpt lat="48.405034" lon="2.635111"><ele></ele><time>2017-9-19T3:17:5Z</time></trkpt>
<trkpt lat="48.405134" lon="2.635169"><ele></ele><time>2017-9-19T3:17:8Z</time></trkpt>
<trkpt lat="48.405222" lon="2.635199"><ele></ele><time>2017-9-19T3:17:11Z</time></trkpt>
<trkpt lat="48.405327" lon="2.635279"><ele></ele><time>2017-9-19T3:17:14Z</time></trkpt>
<trkpt lat="48.40542" lon="2.635353"><ele></ele><time>2017-9-19T3:17:17Z</time></trkpt>
<trkpt lat="48.405498" lon="2.635457"><ele></ele><time>2017-9-19T3:17:20Z</time></trkpt>
<trkpt lat="48.40554" lon="2.635579"><ele></ele><time>2017-9-19T3:17:23Z</time></trkpt>
<trkpt lat="48.405635" lon="2.635707"><ele></ele><time>2017-9-19T3:17:26Z</time></trkpt>
<trkpt lat="48.405711" lon="2.635795"><ele></ele><time>2017-9-19T3:17:29Z</time></trkpt>
<trkpt lat="48.405828" lon="2.635853"><ele></ele><time>2017-9-19T3:17:32Z</time></trkpt>
<trkpt lat="48.405931" lon="2.635915"><ele></ele><time>2017-9-19T3:17:35Z</time></trkpt>
<trkpt lat="48.405939" lon="2.636067"><ele></ele><time>2017-9-19T3:17:38Z</time></trkpt>
<trkpt lat="48.405911" lon="2.63624"><ele></ele><time>2017-9-19T3:17:41Z</time></trkpt>
<trkpt lat="48.405818" lon="2.636524"><ele></ele><time>2017-9-19T3:17:44Z</time></trkpt>
<trkpt lat="48.405818" lon="2.636691"><ele></ele><time>2017-9-19T3:17:47Z</time></trkpt>
<trkpt lat="48.405801" lon="2.636826"><ele></ele><time>2017-9-19T3:17:50Z</time></trkpt>
<trkpt lat="48.405799" lon="2.636968"><ele></ele><time>2017-9-19T3:17:53Z</time></trkpt>
<trkpt lat="48.405814" lon="2.637146"><ele></ele><time>2017-9-19T3:17:56Z</time></trkpt>
<trkpt lat="48.405772" lon="2.637302"><ele></ele><time>2017-9-19T3:17:59Z</time></trkpt>
<trkpt lat="48.405749" lon="2.637483"><ele></ele><time>2017-9-19T3:18:2Z</time></trkpt>
<trkpt lat="48.405763" lon="2.637685"><ele></ele><time>2017-9-19T3:18:5Z</time></trkpt>
<trkpt lat="48.405784" lon="2.63787"><ele></ele><time>2017-9-19T3:18:8Z</time></trkpt>
<trkpt lat="48.405719" lon="2.638004"><ele></ele><time>2017-9-19T3:18:11Z</time></trkpt>
<trkpt lat="48.405739" lon="2.638165"><ele></ele><time>2017-9-19T3:18:14Z</time></trkpt>
<trkpt lat="48.405806" lon="2.63829"><ele></ele><time>2017-9-19T3:18:17Z</time></trkpt>
<trkpt lat="48.405831" lon="2.638424"><ele></ele><time>2017-9-19T3:18:20Z</time></trkpt>
<trkpt lat="48.405873" lon="2.638607"><ele></ele><time>2017-9-19T3:18:23Z</time></trkpt>
<trkpt lat="48.405911" lon="2.63876"><ele></ele><time>2017-9-19T3:18:26Z</time></trkpt>
<trkpt lat="48.405948" lon="2.638901"><ele></ele><time>2017-9-19T3:18:29Z</time></trkpt>
<trkpt lat="48.405996" lon="2.639033"><ele></ele><time>2017-9-19T3:18:32Z</time></trkpt>
<trkpt lat="48.405983" lon="2.639186"><ele></ele><time>2017-9-19T3:18:35Z</time></trkpt>
<trkpt lat="48.406027" lon="2.639495"><ele></ele><time>2017-9-19T3:18:38Z</time></trkpt>
<trkpt lat="48.406075" lon="2.639628"><ele></ele><time>2017-9-19T3:18:41Z</time></trkpt>
<trkpt lat="48.40612" lon="2.639774"><ele></ele><time>2017-9-19T3:18:44Z</time></trkpt>
<trkpt lat="48.406152" lon="2.639941"><ele></ele><time>2017-9-19T3:18:47Z</time></trkpt>
<trkpt lat="48.406174" lon="2.640103"><ele></ele><time>2017-9-19T3:18:50Z</time></trkpt>
<trkpt lat="48.406204" lon="2.64027"><ele></ele><time>2017-9-19T3:18:53Z</time></trkpt>
<trkpt lat="48.406246" lon="2.640411"><ele></ele><time>2017-9-19T3:18:56Z</time></trkpt>
<trkpt lat="48.406303" lon="2.640562"><ele></ele><time>2017-9-19T3:18:59Z</time></trkpt>
<trkpt lat="48.406345" lon="2.640726"><ele></ele><time>2017-9-19T3:19:2Z</time></trkpt>
<trkpt lat="48.406398" lon="2.640854"><ele></ele><time>2017-9-19T3:19:5Z</time></trkpt>
<trkpt lat="48.406403" lon="2.641021"><ele></ele><time>2017-9-19T3:19:8Z</time></trkpt>
<trkpt lat="48.406416" lon="2.641164"><ele></ele><time>2017-9-19T3:19:11Z</time></trkpt>
<trkpt lat="48.406435" lon="2.641309"><ele></ele><time>2017-9-19T3:19:14Z</time></trkpt>
<trkpt lat="48.40641" lon="2.641457"><ele></ele><time>2017-9-19T3:19:17Z</time></trkpt>
<trkpt lat="48.406454" lon="2.641599"><ele></ele><time>2017-9-19T3:19:20Z</time></trkpt>
<trkpt lat="48.40649" lon="2.641739"><ele></ele><time>2017-9-19T3:19:23Z</time></trkpt>
<trkpt lat="48.40654" lon="2.641907"><ele></ele><time>2017-9-19T3:19:26Z</time></trkpt>
<trkpt lat="48.406547" lon="2.642216"><ele></ele><time>2017-9-19T3:19:29Z</time></trkpt>
<trkpt lat="48.406552" lon="2.64236"><ele></ele><time>2017-9-19T3:19:32Z</time></trkpt>
<trkpt lat="48.406525" lon="2.642529"><ele></ele><time>2017-9-19T3:19:35Z</time></trkpt>
<trkpt lat="48.406439" lon="2.642603"><ele></ele><time>2017-9-19T3:19:38Z</time></trkpt>
<trkpt lat="48.406337" lon="2.642668"><ele></ele><time>2017-9-19T3:19:41Z</time></trkpt>
<trkpt lat="48.406269" lon="2.64279"><ele></ele><time>2017-9-19T3:19:44Z</time></trkpt>
<trkpt lat="48.406274" lon="2.642929"><ele></ele><time>2017-9-19T3:19:47Z</time></trkpt>
<trkpt lat="48.406289" lon="2.643081"><ele></ele><time>2017-9-19T3:19:50Z</time></trkpt>
<trkpt lat="48.406289" lon="2.643252"><ele></ele><time>2017-9-19T3:19:53Z</time></trkpt>
<trkpt lat="48.406317" lon="2.643434"><ele></ele><time>2017-9-19T3:19:56Z</time></trkpt>
<trkpt lat="48.406315" lon="2.643619"><ele></ele><time>2017-9-19T3:19:59Z</time></trkpt>
<trkpt lat="48.406343" lon="2.643756"><ele></ele><time>2017-9-19T3:20:2Z</time></trkpt>
<trkpt lat="48.406245" lon="2.643979"><ele></ele><time>2017-9-19T3:20:5Z</time></trkpt>
<trkpt lat="48.406193" lon="2.644132"><ele></ele><time>2017-9-19T3:20:8Z</time></trkpt>
<trkpt lat="48.406106" lon="2.644243"><ele></ele><time>2017-9-19T3:20:11Z</time></trkpt>
<trkpt lat="48.406011" lon="2.644334"><ele></ele><time>2017-9-19T3:20:14Z</time></trkpt>
<trkpt lat="48.405934" lon="2.644443"><ele></ele><time>2017-9-19T3:20:17Z</time></trkpt>
<trkpt lat="48.405882" lon="2.644587"><ele></ele><time>2017-9-19T3:20:20Z</time></trkpt>
<trkpt lat="48.405889" lon="2.644781"><ele></ele><time>2017-9-19T3:20:23Z</time></trkpt>
<trkpt lat="48.405909" lon="2.645001"><ele></ele><time>2017-9-19T3:20:26Z</time></trkpt>
<trkpt lat="48.405952" lon="2.645122"><ele></ele><time>2017-9-19T3:20:29Z</time></trkpt>
<trkpt lat="48.406061" lon="2.645461"><ele></ele><time>2017-9-19T3:20:32Z</time></trkpt>
<trkpt lat="48.4061" lon="2.64562"><ele></ele><time>2017-9-19T3:20:35Z</time></trkpt>
<trkpt lat="48.406092" lon="2.645779"><ele></ele><time>2017-9-19T3:20:38Z</time></trkpt>
<trkpt lat="48.406121" lon="2.645929"><ele></ele><time>2017-9-19T3:20:41Z</time></trkpt>
<trkpt lat="48.406174" lon="2.646069"><ele></ele><time>2017-9-19T3:20:44Z</time></trkpt>
<trkpt lat="48.406138" lon="2.646227"><ele></ele><time>2017-9-19T3:20:47Z</time></trkpt>
<trkpt lat="48.406075" lon="2.646358"><ele></ele><time>2017-9-19T3:20:50Z</time></trkpt>
<trkpt lat="48.406026" lon="2.646499"><ele></ele><time>2017-9-19T3:20:53Z</time></trkpt>
<trkpt lat="48.405961" lon="2.64662"><ele></ele><time>2017-9-19T3:20:56Z</time></trkpt>
<trkpt lat="48.405925" lon="2.646797"><ele></ele><time>2017-9-19T3:20:59Z</time></trkpt>
<trkpt lat="48.405947" lon="2.646938"><ele></ele><time>2017-9-19T3:21:2Z</time></trkpt>
<trkpt lat="48.405929" lon="2.647139"><ele></ele><time>2017-9-19T3:21:5Z</time></trkpt>
<trkpt lat="48.405874" lon="2.647344"><ele></ele><time>2017-9-19T3:21:8Z</time></trkpt>
<trkpt lat="48.405841" lon="2.647472"><ele></ele><time>2017-9-19T3:21:11Z</time></trkpt>
<trkpt lat="48.405775" lon="2.647642"><ele></ele><time>2017-9-19T3:21:14Z</time></trkpt>
<trkpt lat="48.40579" lon="2.647819"><ele></ele><time>2017-9-19T3:21:17Z</time></trkpt>
<trkpt lat="48.405887" lon="2.647852"><ele></ele><time>2017-9-19T3:21:20Z</time></trkpt>
<trkpt lat="48.405964" lon="2.647939"><ele></ele><time>2017-9-19T3:21:23Z</time></trkpt>
<trkpt lat="48.406143" lon="2.648052"><ele></ele><time>2017-9-19T3:21:26Z</time></trkpt>
<trkpt lat="48.406233" lon="2.648077"><ele></ele><time>2017-9-19T3:21:29Z</time></trkpt>
<trkpt lat="48.406319" lon="2.64812"><ele></ele><time>2017-9-19T3:21:32Z</time></trkpt>
<trkpt lat="48.406402" lon="2.648176"><ele></ele><time>2017-9-19T3:21:35Z</time></trkpt>
<trkpt lat="48.406462" lon="2.648283"><ele></ele><time>2017-9-19T3:21:38Z</time></trkpt>
<trkpt lat="48.406506" lon="2.648434"><ele></ele><time>2017-9-19T3:21:41Z</time></trkpt>
<trkpt lat="48.406556" lon="2.648588"><ele></ele><time>2017-9-19T3:21:44Z</time></trkpt>
<trkpt lat="48.406605" lon="2.648739"><ele></ele><time>2017-9-19T3:21:47Z</time></trkpt>
<trkpt lat="48.406642" lon="2.648928"><ele></ele><time>2017-9-19T3:21:50Z</time></trkpt>
<trkpt lat="48.406653" lon="2.649159"><ele></ele><time>2017-9-19T3:21:53Z</time></trkpt>
<trkpt lat="48.406642" lon="2.649324"><ele></ele><time>2017-9-19T3:21:56Z</time></trkpt>
<trkpt lat="48.406773" lon="2.649561"><ele></ele><time>2017-9-19T3:21:59Z</time></trkpt>
<trkpt lat="48.406846" lon="2.649656"><ele></ele><time>2017-9-19T3:22:2Z</time></trkpt>
<trkpt lat="48.406914" lon="2.649791"><ele></ele><time>2017-9-19T3:22:5Z</time></trkpt>
<trkpt lat="48.40698" lon="2.649911"><ele></ele><time>2017-9-19T3:22:8Z</time></trkpt>
<trkpt lat="48.407018" lon="2.650038"><ele></ele><time>2017-9-19T3:22:11Z</time></trkpt>
<trkpt lat="48.407086" lon="2.65014"><ele></ele><time>2017-9-19T3:22:14Z</time></trkpt>
<trkpt lat="48.407152" lon="2.650244"><ele></ele><time>2017-9-19T3:22:17Z</time></trkpt>
<trkpt lat="48.40715" lon="2.650397"><ele></ele><time>2017-9-19T3:22:20Z</time></trkpt>
<trkpt lat="48.407207" lon="2.650513"><ele></ele><time>2017-9-19T3:22:23Z</time></trkpt>
<trkpt lat="48.407266" lon="2.650643"><ele></ele><time>2017-9-19T3:22:26Z</time></trkpt>
<trkpt lat="48.40734" lon="2.650757"><ele></ele><time>2017-9-19T3:22:29Z</time></trkpt>
<trkpt lat="48.407433" lon="2.650837"><ele></ele><time>2017-9-19T3:22:32Z</time></trkpt>
<trkpt lat="48.407607" lon="2.650982"><ele></ele><time>2017-9-19T3:22:35Z</time></trkpt>
<trkpt lat="48.407697" lon="2.65105"><ele></ele><time>2017-9-19T3:22:38Z</time></trkpt>
<trkpt lat="48.407763" lon="2.651145"><ele></ele><time>2017-9-19T3:22:41Z</time></trkpt>
<trkpt lat="48.407844" lon="2.651231"><ele></ele><time>2017-9-19T3:22:44Z</time></trkpt>
<trkpt lat="48.407924" lon="2.651303"><ele></ele><time>2017-9-19T3:22:47Z</time></trkpt>
<trkpt lat="48.408" lon="2.651384"><ele></ele><time>2017-9-19T3:22:50Z</time></trkpt>
<trkpt lat="48.408028" lon="2.651515"><ele></ele><time>2017-9-19T3:22:53Z</time></trkpt>
<trkpt lat="48.407997" lon="2.651651"><ele></ele><time>2017-9-19T3:22:56Z</time></trkpt>
<trkpt lat="48.407958" lon="2.651785"><ele></ele><time>2017-9-19T3:22:59Z</time></trkpt>
<trkpt lat="48.408004" lon="2.651915"><ele></ele><time>2017-9-19T3:23:2Z</time></trkpt>
<trkpt lat="48.407997" lon="2.652108"><ele></ele><time>2017-9-19T3:23:5Z</time></trkpt>
<trkpt lat="48.408005" lon="2.652262"><ele></ele><time>2017-9-19T3:23:8Z</time></trkpt>
<trkpt lat="48.407958" lon="2.652394"><ele></ele><time>2017-9-19T3:23:11Z</time></trkpt>
<trkpt lat="48.407949" lon="2.652548"><ele></ele><time>2017-9-19T3:23:14Z</time></trkpt>
<trkpt lat="48.407958" lon="2.652837"><ele></ele><time>2017-9-19T3:23:17Z</time></trkpt>
<trkpt lat="48.407955" lon="2.652989"><ele></ele><time>2017-9-19T3:23:20Z</time></trkpt>
<trkpt lat="48.407946" lon="2.653141"><ele></ele><time>2017-9-19T3:23:23Z</time></trkpt>
<trkpt lat="48.407928" lon="2.653277"><ele></ele><time>2017-9-19T3:23:26Z</time></trkpt>
<trkpt lat="48.407908" lon="2.65341"><ele></ele><time>2017-9-19T3:23:29Z</time></trkpt>
<trkpt lat="48.407909" lon="2.653564"><ele></ele><time>2017-9-19T3:23:32Z</time></trkpt>
<trkpt lat="48.407837" lon="2.653783"><ele></ele><time>2017-9-19T3:23:35Z</time></trkpt>
<trkpt lat="48.407826" lon="2.653953"><ele></ele><time>2017-9-19T3:23:38Z</time></trkpt>
<trkpt lat="48.407826" lon="2.654115"><ele></ele><time>2017-9-19T3:23:41Z</time></trkpt>
<trkpt lat="48.40785" lon="2.654249"><ele></ele><time>2017-9-19T3:23:44Z</time></trkpt>
<trkpt lat="48.407807" lon="2.654389"><ele></ele><time>2017-9-19T3:23:47Z</time></trkpt>
<trkpt lat="48.408" lon="2.654553"><ele></ele><time>2017-9-19T3:23:50Z</time></trkpt>
<trkpt lat="48.408087" lon="2.654595"><ele></ele><time>2017-9-19T3:23:53Z</time></trkpt>
<trkpt lat="48.408191" lon="2.654613"><ele></ele><time>2017-9-19T3:23:56Z</time></trkpt>
<trkpt lat="48.408291" lon="2.654655"><ele></ele><time>2017-9-19T3:23:59Z</time></trkpt>
<trkpt lat="48.408398" lon="2.654696"><ele></ele><time>2017-9-19T3:24:2Z</time></trkpt>
<trkpt lat="48.408517" lon="2.654762"><ele></ele><time>2017-9-19T3:24:5Z</time></trkpt>
<trkpt lat="48.408613" lon="2.654801"><ele></ele><time>2017-9-19T3:24:8Z</time></trkpt>
<trkpt lat="48.40875" lon="2.654881"><ele></ele><time>2017-9-19T3:24:11Z</time></trkpt>
<trkpt lat="48.408861" lon="2.654944"><ele></ele><time>2017-9-19T3:24:14Z</time></trkpt>
<trkpt lat="48.408983" lon="2.654978"><ele></ele><time>2017-9-19T3:24:17Z</time></trkpt>
<trkpt lat="48.409097" lon="2.65503"><ele></ele><time>2017-9-19T3:24:20Z</time></trkpt>
<trkpt lat="48.409203" lon="2.655073"><ele></ele><time>2017-9-19T3:24:23Z</time></trkpt>
<trkpt lat="48.409331" lon="2.655125"><ele></ele><time>2017-9-19T3:24:26Z</time></trkpt>
<trkpt lat="48.409426" lon="2.655183"><ele></ele><time>2017-9-19T3:24:29Z</time></trkpt>
<trkpt lat="48.409531" lon="2.65524"><ele></ele><time>2017-9-19T3:24:32Z</time></trkpt>
<trkpt lat="48.409618" lon="2.655275"><ele></ele><time>2017-9-19T3:24:35Z</time></trkpt>
<trkpt lat="48.409741" lon="2.655315"><ele></ele><time>2017-9-19T3:24:38Z</time></trkpt>
<trkpt lat="48.409831" lon="2.655346"><ele></ele><time>2017-9-19T3:24:41Z</time></trkpt>
<trkpt lat="48.409929" lon="2.655377"><ele></ele><time>2017-9-19T3:24:44Z</time></trkpt>
<trkpt lat="48.410027" lon="2.655411"><ele></ele><time>2017-9-19T3:24:47Z</time></trkpt>
<trkpt lat="48.410213" lon="2.655484"><ele></ele><time>2017-9-19T3:24:50Z</time></trkpt>
<trkpt lat="48.410305" lon="2.655518"><ele></ele><time>2017-9-19T3:24:53Z</time></trkpt>
<trkpt lat="48.410396" lon="2.655551"><ele></ele><time>2017-9-19T3:24:56Z</time></trkpt>
<trkpt lat="48.410487" lon="2.65559"><ele></ele><time>2017-9-19T3:24:59Z</time></trkpt>
<trkpt lat="48.410614" lon="2.655639"><ele></ele><time>2017-9-19T3:25:2Z</time></trkpt>
<trkpt lat="48.410744" lon="2.655688"><ele></ele><time>2017-9-19T3:25:5Z</time></trkpt>
<trkpt lat="48.410832" lon="2.655725"><ele></ele><time>2017-9-19T3:25:8Z</time></trkpt>
<trkpt lat="48.41092" lon="2.655758"><ele></ele><time>2017-9-19T3:25:11Z</time></trkpt>
<trkpt lat="48.411012" lon="2.655795"><ele></ele><time>2017-9-19T3:25:14Z</time></trkpt>
<trkpt lat="48.411134" lon="2.655843"><ele></ele><time>2017-9-19T3:25:17Z</time></trkpt>
<trkpt lat="48.411252" lon="2.655891"><ele></ele><time>2017-9-19T3:25:20Z</time></trkpt>
<trkpt lat="48.411345" lon="2.655929"><ele></ele><time>2017-9-19T3:25:23Z</time></trkpt>
<trkpt lat="48.411457" lon="2.655945"><ele></ele><time>2017-9-19T3:25:26Z</time></trkpt>
<trkpt lat="48.411571" lon="2.656009"><ele></ele><time>2017-9-19T3:25:29Z</time></trkpt>
<trkpt lat="48.41162" lon="2.656193"><ele></ele><time>2017-9-19T3:25:32Z</time></trkpt>
<trkpt lat="48.411682" lon="2.65631"><ele></ele><time>2017-9-19T3:25:35Z</time></trkpt>
<trkpt lat="48.41177" lon="2.656368"><ele></ele><time>2017-9-19T3:25:38Z</time></trkpt>
<trkpt lat="48.411836" lon="2.656463"><ele></ele><time>2017-9-19T3:25:41Z</time></trkpt>
<trkpt lat="48.411934" lon="2.656388"><ele></ele><time>2017-9-19T3:25:44Z</time></trkpt>
<trkpt lat="48.412126" lon="2.656161"><ele></ele><time>2017-9-19T3:25:47Z</time></trkpt>
<trkpt lat="48.412226" lon="2.656033"><ele></ele><time>2017-9-19T3:25:50Z</time></trkpt>
<trkpt lat="48.412295" lon="2.655916"><ele></ele><time>2017-9-19T3:25:53Z</time></trkpt>
<trkpt lat="48.41238" lon="2.655751"><ele></ele><time>2017-9-19T3:25:56Z</time></trkpt>
<trkpt lat="48.412436" lon="2.655627"><ele></ele><time>2017-9-19T3:25:59Z</time></trkpt>
<trkpt lat="48.412526" lon="2.655505"><ele></ele><time>2017-9-19T3:26:2Z</time></trkpt>
<trkpt lat="48.4126" lon="2.655368"><ele></ele><time>2017-9-19T3:26:5Z</time></trkpt>
<trkpt lat="48.412685" lon="2.655228"><ele></ele><time>2017-9-19T3:26:8Z</time></trkpt>
<trkpt lat="48.412764" lon="2.655131"><ele></ele><time>2017-9-19T3:26:11Z</time></trkpt>
<trkpt lat="48.412839" lon="2.655049"><ele></ele><time>2017-9-19T3:26:14Z</time></trkpt>
<trkpt lat="48.412916" lon="2.654933"><ele></ele><time>2017-9-19T3:26:17Z</time></trkpt>
<trkpt lat="48.412932" lon="2.654771"><ele></ele><time>2017-9-19T3:26:20Z</time></trkpt>
<trkpt lat="48.413017" lon="2.654672"><ele></ele><time>2017-9-19T3:26:23Z</time></trkpt>
<trkpt lat="48.413055" lon="2.654533"><ele></ele><time>2017-9-19T3:26:26Z</time></trkpt>
<trkpt lat="48.413126" lon="2.654431"><ele></ele><time>2017-9-19T3:26:29Z</time></trkpt>
<trkpt lat="48.413158" lon="2.654297"><ele></ele><time>2017-9-19T3:26:32Z</time></trkpt>
<trkpt lat="48.41328" lon="2.654035"><ele></ele><time>2017-9-19T3:26:35Z</time></trkpt>
<trkpt lat="48.413362" lon="2.653916"><ele></ele><time>2017-9-19T3:26:38Z</time></trkpt>
<trkpt lat="48.413441" lon="2.653786"><ele></ele><time>2017-9-19T3:26:41Z</time></trkpt>
<trkpt lat="48.413537" lon="2.653685"><ele></ele><time>2017-9-19T3:26:44Z</time></trkpt>
<trkpt lat="48.413637" lon="2.653544"><ele></ele><time>2017-9-19T3:26:47Z</time></trkpt>
<trkpt lat="48.413711" lon="2.653403"><ele></ele><time>2017-9-19T3:26:50Z</time></trkpt>
<trkpt lat="48.413778" lon="2.653291"><ele></ele><time>2017-9-19T3:26:53Z</time></trkpt>
<trkpt lat="48.413855" lon="2.653185"><ele></ele><time>2017-9-19T3:26:56Z</time></trkpt>
<trkpt lat="48.413931" lon="2.653089"><ele></ele><time>2017-9-19T3:26:59Z</time></trkpt>
<trkpt lat="48.414013" lon="2.652955"><ele></ele><time>2017-9-19T3:27:2Z</time></trkpt>
<trkpt lat="48.414081" lon="2.652813"><ele></ele><time>2017-9-19T3:27:5Z</time></trkpt>
<trkpt lat="48.414149" lon="2.652721"><ele></ele><time>2017-9-19T3:27:8Z</time></trkpt>
<trkpt lat="48.414227" lon="2.652578"><ele></ele><time>2017-9-19T3:27:11Z</time></trkpt>
<trkpt lat="48.414293" lon="2.652476"><ele></ele><time>2017-9-19T3:27:14Z</time></trkpt>
<trkpt lat="48.414368" lon="2.652372"><ele></ele><time>2017-9-19T3:27:17Z</time></trkpt>
<trkpt lat="48.414455" lon="2.652242"><ele></ele><time>2017-9-19T3:27:20Z</time></trkpt>
<trkpt lat="48.414525" lon="2.652112"><ele></ele><time>2017-9-19T3:27:23Z</time></trkpt>
<trkpt lat="48.414599" lon="2.65201"><ele></ele><time>2017-9-19T3:27:26Z</time></trkpt>
<trkpt lat="48.41475" lon="2.651801"><ele></ele><time>2017-9-19T3:27:29Z</time></trkpt>
<trkpt lat="48.414816" lon="2.6517"><ele></ele><time>2017-9-19T3:27:32Z</time></trkpt>
<trkpt lat="48.414899" lon="2.651602"><ele></ele><time>2017-9-19T3:27:35Z</time></trkpt>
<trkpt lat="48.414971" lon="2.651488"><ele></ele><time>2017-9-19T3:27:38Z</time></trkpt>
<trkpt lat="48.415058" lon="2.651392"><ele></ele><time>2017-9-19T3:27:41Z</time></trkpt>
<trkpt lat="48.41515" lon="2.651284"><ele></ele><time>2017-9-19T3:27:44Z</time></trkpt>
<trkpt lat="48.415234" lon="2.651151"><ele></ele><time>2017-9-19T3:27:47Z</time></trkpt>
<trkpt lat="48.415301" lon="2.651052"><ele></ele><time>2017-9-19T3:27:50Z</time></trkpt>
<trkpt lat="48.415367" lon="2.650927"><ele></ele><time>2017-9-19T3:27:53Z</time></trkpt>
<trkpt lat="48.415424" lon="2.650799"><ele></ele><time>2017-9-19T3:27:56Z</time></trkpt>
<trkpt lat="48.415507" lon="2.650669"><ele></ele><time>2017-9-19T3:27:59Z</time></trkpt>
<trkpt lat="48.415562" lon="2.65055"><ele></ele><time>2017-9-19T3:28:2Z</time></trkpt>
<trkpt lat="48.415644" lon="2.650435"><ele></ele><time>2017-9-19T3:28:5Z</time></trkpt>
<trkpt lat="48.415728" lon="2.650349"><ele></ele><time>2017-9-19T3:28:8Z</time></trkpt>
<trkpt lat="48.415807" lon="2.65021"><ele></ele><time>2017-9-19T3:28:11Z</time></trkpt>
<trkpt lat="48.415892" lon="2.650071"><ele></ele><time>2017-9-19T3:28:14Z</time></trkpt>
<trkpt lat="48.415973" lon="2.649931"><ele></ele><time>2017-9-19T3:28:17Z</time></trkpt>
<trkpt lat="48.41603" lon="2.649782"><ele></ele><time>2017-9-19T3:28:20Z</time></trkpt>
<trkpt lat="48.416104" lon="2.649662"><ele></ele><time>2017-9-19T3:28:23Z</time></trkpt>
<trkpt lat="48.416185" lon="2.64951"><ele></ele><time>2017-9-19T3:28:26Z</time></trkpt>
<trkpt lat="48.416359" lon="2.649312"><ele></ele><time>2017-9-19T3:28:29Z</time></trkpt>
<trkpt lat="48.416422" lon="2.649194"><ele></ele><time>2017-9-19T3:28:32Z</time></trkpt>
<trkpt lat="48.416489" lon="2.64906"><ele></ele><time>2017-9-19T3:28:35Z</time></trkpt>
<trkpt lat="48.41656" lon="2.648943"><ele></ele><time>2017-9-19T3:28:38Z</time></trkpt>
<trkpt lat="48.416647" lon="2.648807"><ele></ele><time>2017-9-19T3:28:41Z</time></trkpt>
<trkpt lat="48.416744" lon="2.648679"><ele></ele><time>2017-9-19T3:28:44Z</time></trkpt>
<trkpt lat="48.416838" lon="2.648565"><ele></ele><time>2017-9-19T3:28:47Z</time></trkpt>
<trkpt lat="48.416919" lon="2.648473"><ele></ele><time>2017-9-19T3:28:50Z</time></trkpt>
<trkpt lat="48.416993" lon="2.648374"><ele></ele><time>2017-9-19T3:28:53Z</time></trkpt>
<trkpt lat="48.417077" lon="2.648266"><ele></ele><time>2017-9-19T3:28:56Z</time></trkpt>
<trkpt lat="48.417128" lon="2.648128"><ele></ele><time>2017-9-19T3:28:59Z</time></trkpt>
<trkpt lat="48.417197" lon="2.648031"><ele></ele><time>2017-9-19T3:29:2Z</time></trkpt>
<trkpt lat="48.417252" lon="2.647921"><ele></ele><time>2017-9-19T3:29:5Z</time></trkpt>
<trkpt lat="48.41747" lon="2.647622"><ele></ele><time>2017-9-19T3:29:8Z</time></trkpt>
<trkpt lat="48.417564" lon="2.647469"><ele></ele><time>2017-9-19T3:29:11Z</time></trkpt>
<trkpt lat="48.417622" lon="2.647309"><ele></ele><time>2017-9-19T3:29:14Z</time></trkpt>
<trkpt lat="48.417687" lon="2.64718"><ele></ele><time>2017-9-19T3:29:17Z</time></trkpt>
<trkpt lat="48.417719" lon="2.647044"><ele></ele><time>2017-9-19T3:29:20Z</time></trkpt>
<trkpt lat="48.417781" lon="2.646878"><ele></ele><time>2017-9-19T3:29:23Z</time></trkpt>
<trkpt lat="48.41786" lon="2.646663"><ele></ele><time>2017-9-19T3:29:26Z</time></trkpt>
<trkpt lat="48.417938" lon="2.646545"><ele></ele><time>2017-9-19T3:29:29Z</time></trkpt>
<trkpt lat="48.418016" lon="2.646391"><ele></ele><time>2017-9-19T3:29:32Z</time></trkpt>
<trkpt lat="48.418093" lon="2.646225"><ele></ele><time>2017-9-19T3:29:35Z</time></trkpt>
<trkpt lat="48.418187" lon="2.646048"><ele></ele><time>2017-9-19T3:29:38Z</time></trkpt>
<trkpt lat="48.418196" lon="2.645871"><ele></ele><time>2017-9-19T3:29:41Z</time></trkpt>
<trkpt lat="48.418254" lon="2.645765"><ele></ele><time>2017-9-19T3:29:44Z</time></trkpt>
<trkpt lat="48.418299" lon="2.645638"><ele></ele><time>2017-9-19T3:29:47Z</time></trkpt>
<trkpt lat="48.418363" lon="2.645515"><ele></ele><time>2017-9-19T3:29:50Z</time></trkpt>
<trkpt lat="48.418426" lon="2.645405"><ele></ele><time>2017-9-19T3:29:53Z</time></trkpt>
<trkpt lat="48.418493" lon="2.645294"><ele></ele><time>2017-9-19T3:29:56Z</time></trkpt>
<trkpt lat="48.418554" lon="2.645178"><ele></ele><time>2017-9-19T3:29:59Z</time></trkpt>
<trkpt lat="48.418626" lon="2.644988"><ele></ele><time>2017-9-19T3:30:2Z</time></trkpt>
<trkpt lat="48.418776" lon="2.644742"><ele></ele><time>2017-9-19T3:30:5Z</time></trkpt>
<trkpt lat="48.418838" lon="2.644637"><ele></ele><time>2017-9-19T3:30:8Z</time></trkpt>
<trkpt lat="48.418903" lon="2.644529"><ele></ele><time>2017-9-19T3:30:11Z</time></trkpt>
<trkpt lat="48.418963" lon="2.644409"><ele></ele><time>2017-9-19T3:30:14Z</time></trkpt>
<trkpt lat="48.419044" lon="2.644251"><ele></ele><time>2017-9-19T3:30:17Z</time></trkpt>
<trkpt lat="48.419102" lon="2.644083"><ele></ele><time>2017-9-19T3:30:20Z</time></trkpt>
<trkpt lat="48.419158" lon="2.643948"><ele></ele><time>2017-9-19T3:30:23Z</time></trkpt>
<trkpt lat="48.419249" lon="2.643798"><ele></ele><time>2017-9-19T3:30:26Z</time></trkpt>
<trkpt lat="48.419308" lon="2.643684"><ele></ele><time>2017-9-19T3:30:29Z</time></trkpt>
<trkpt lat="48.419425" lon="2.643521"><ele></ele><time>2017-9-19T3:30:32Z</time></trkpt>
<trkpt lat="48.419485" lon="2.643418"><ele></ele><time>2017-9-19T3:30:35Z</time></trkpt>
<trkpt lat="48.419574" lon="2.643242"><ele></ele><time>2017-9-19T3:30:38Z</time></trkpt>
<trkpt lat="48.419646" lon="2.64307"><ele></ele><time>2017-9-19T3:30:41Z</time></trkpt>
<trkpt lat="48.419734" lon="2.642936"><ele></ele><time>2017-9-19T3:30:44Z</time></trkpt>
<trkpt lat="48.419835" lon="2.642794"><ele></ele><time>2017-9-19T3:30:47Z</time></trkpt>
<trkpt lat="48.419882" lon="2.642661"><ele></ele><time>2017-9-19T3:30:50Z</time></trkpt>
<trkpt lat="48.419951" lon="2.642508"><ele></ele><time>2017-9-19T3:30:53Z</time></trkpt>
<trkpt lat="48.420022" lon="2.642324"><ele></ele><time>2017-9-19T3:30:56Z</time></trkpt>
<trkpt lat="48.420094" lon="2.642137"><ele></ele><time>2017-9-19T3:30:59Z</time></trkpt>
<trkpt lat="48.420177" lon="2.642003"><ele></ele><time>2017-9-19T3:31:2Z</time></trkpt>
<trkpt lat="48.420237" lon="2.641867"><ele></ele><time>2017-9-19T3:31:5Z</time></trkpt>
<trkpt lat="48.420295" lon="2.641723"><ele></ele><time>2017-9-19T3:31:8Z</time></trkpt>
<trkpt lat="48.420409" lon="2.641436"><ele></ele><time>2017-9-19T3:31:11Z</time></trkpt>
<trkpt lat="48.420478" lon="2.641298"><ele></ele><time>2017-9-19T3:31:14Z</time></trkpt>
<trkpt lat="48.420521" lon="2.641442"><ele></ele><time>2017-9-19T3:31:17Z</time></trkpt>
<trkpt lat="48.420625" lon="2.641542"><ele></ele><time>2017-9-19T3:31:20Z</time></trkpt>
<trkpt lat="48.42076" lon="2.641621"><ele></ele><time>2017-9-19T3:31:23Z</time></trkpt>
<trkpt lat="48.420838" lon="2.64173"><ele></ele><time>2017-9-19T3:31:26Z</time></trkpt>
<trkpt lat="48.420901" lon="2.641858"><ele></ele><time>2017-9-19T3:31:29Z</time></trkpt>
<trkpt lat="48.421007" lon="2.641983"><ele></ele><time>2017-9-19T3:31:32Z</time></trkpt>
<trkpt lat="48.421116" lon="2.642109"><ele></ele><time>2017-9-19T3:31:35Z</time></trkpt>
<trkpt lat="48.421197" lon="2.642183"><ele></ele><time>2017-9-19T3:31:38Z</time></trkpt>
<trkpt lat="48.421368" lon="2.642265"><ele></ele><time>2017-9-19T3:31:41Z</time></trkpt>
<trkpt lat="48.421462" lon="2.642352"><ele></ele><time>2017-9-19T3:31:44Z</time></trkpt>
<trkpt lat="48.421553" lon="2.642605"><ele></ele><time>2017-9-19T3:31:47Z</time></trkpt>
<trkpt lat="48.421619" lon="2.642716"><ele></ele><time>2017-9-19T3:31:50Z</time></trkpt>
<trkpt lat="48.421799" lon="2.642721"><ele></ele><time>2017-9-19T3:31:53Z</time></trkpt>
<trkpt lat="48.421895" lon="2.642777"><ele></ele><time>2017-9-19T3:31:56Z</time></trkpt>
<trkpt lat="48.421997" lon="2.642847"><ele></ele><time>2017-9-19T3:31:59Z</time></trkpt>
<trkpt lat="48.422091" lon="2.642926"><ele></ele><time>2017-9-19T3:32:2Z</time></trkpt>
<trkpt lat="48.422255" lon="2.643027"><ele></ele><time>2017-9-19T3:32:5Z</time></trkpt>
<trkpt lat="48.422364" lon="2.643082"><ele></ele><time>2017-9-19T3:32:8Z</time></trkpt>
<trkpt lat="48.422439" lon="2.643168"><ele></ele><time>2017-9-19T3:32:11Z</time></trkpt>
<trkpt lat="48.422595" lon="2.643223"><ele></ele><time>2017-9-19T3:32:14Z</time></trkpt>
<trkpt lat="48.422701" lon="2.643286"><ele></ele><time>2017-9-19T3:32:17Z</time></trkpt>
<trkpt lat="48.422814" lon="2.643347"><ele></ele><time>2017-9-19T3:32:20Z</time></trkpt>
<trkpt lat="48.422913" lon="2.643488"><ele></ele><time>2017-9-19T3:32:23Z</time></trkpt>
<trkpt lat="48.422993" lon="2.643651"><ele></ele><time>2017-9-19T3:32:26Z</time></trkpt>
<trkpt lat="48.42308" lon="2.643709"><ele></ele><time>2017-9-19T3:32:29Z</time></trkpt>
<trkpt lat="48.423246" lon="2.643784"><ele></ele><time>2017-9-19T3:32:32Z</time></trkpt>
<trkpt lat="48.423378" lon="2.64383"><ele></ele><time>2017-9-19T3:32:35Z</time></trkpt>
<trkpt lat="48.423454" lon="2.64393"><ele></ele><time>2017-9-19T3:32:38Z</time></trkpt>
<trkpt lat="48.423578" lon="2.644042"><ele></ele><time>2017-9-19T3:32:41Z</time></trkpt>
<trkpt lat="48.423671" lon="2.644109"><ele></ele><time>2017-9-19T3:32:44Z</time></trkpt>
<trkpt lat="48.423757" lon="2.644202"><ele></ele><time>2017-9-19T3:32:47Z</time></trkpt>
<trkpt lat="48.423852" lon="2.644272"><ele></ele><time>2017-9-19T3:32:50Z</time></trkpt>
<trkpt lat="48.423948" lon="2.644366"><ele></ele><time>2017-9-19T3:32:53Z</time></trkpt>
<trkpt lat="48.424096" lon="2.644518"><ele></ele><time>2017-9-19T3:32:56Z</time></trkpt>
<trkpt lat="48.424224" lon="2.644636"><ele></ele><time>2017-9-19T3:32:59Z</time></trkpt>
<trkpt lat="48.424305" lon="2.644741"><ele></ele><time>2017-9-19T3:33:2Z</time></trkpt>
<trkpt lat="48.424467" lon="2.644934"><ele></ele><time>2017-9-19T3:33:5Z</time></trkpt>
<trkpt lat="48.424535" lon="2.645028"><ele></ele><time>2017-9-19T3:33:8Z</time></trkpt>
<trkpt lat="48.424597" lon="2.645143"><ele></ele><time>2017-9-19T3:33:11Z</time></trkpt>
<trkpt lat="48.424647" lon="2.645262"><ele></ele><time>2017-9-19T3:33:14Z</time></trkpt>
<trkpt lat="48.424711" lon="2.645361"><ele></ele><time>2017-9-19T3:33:17Z</time></trkpt>
<trkpt lat="48.424768" lon="2.645474"><ele></ele><time>2017-9-19T3:33:20Z</time></trkpt>
<trkpt lat="48.424837" lon="2.645567"><ele></ele><time>2017-9-19T3:33:23Z</time></trkpt>
<trkpt lat="48.424912" lon="2.645676"><ele></ele><time>2017-9-19T3:33:26Z</time></trkpt>
<trkpt lat="48.424978" lon="2.645813"><ele></ele><time>2017-9-19T3:33:29Z</time></trkpt>
<trkpt lat="48.425036" lon="2.645921"><ele></ele><time>2017-9-19T3:33:32Z</time></trkpt>
<trkpt lat="48.425081" lon="2.646043"><ele></ele><time>2017-9-19T3:33:35Z</time></trkpt>
<trkpt lat="48.425146" lon="2.646178"><ele></ele><time>2017-9-19T3:33:38Z</time></trkpt>
<trkpt lat="48.425201" lon="2.646288"><ele></ele><time>2017-9-19T3:33:41Z</time></trkpt>
<trkpt lat="48.425251" lon="2.646401"><ele></ele><time>2017-9-19T3:33:44Z</time></trkpt>
<trkpt lat="48.425305" lon="2.646523"><ele></ele><time>2017-9-19T3:33:47Z</time></trkpt>
<trkpt lat="48.425378" lon="2.646645"><ele></ele><time>2017-9-19T3:33:50Z</time></trkpt>
<trkpt lat="48.425434" lon="2.646765"><ele></ele><time>2017-9-19T3:33:53Z</time></trkpt>
<trkpt lat="48.425505" lon="2.646874"><ele></ele><time>2017-9-19T3:33:56Z</time></trkpt>
<trkpt lat="48.425573" lon="2.646994"><ele></ele><time>2017-9-19T3:33:59Z</time></trkpt>
<trkpt lat="48.425611" lon="2.647118"><ele></ele><time>2017-9-19T3:34:2Z</time></trkpt>
<trkpt lat="48.425731" lon="2.64736"><ele></ele><time>2017-9-19T3:34:5Z</time></trkpt>
<trkpt lat="48.425794" lon="2.647485"><ele></ele><time>2017-9-19T3:34:8Z</time></trkpt>
<trkpt lat="48.425828" lon="2.647613"><ele></ele><time>2017-9-19T3:34:11Z</time></trkpt>
<trkpt lat="48.425832" lon="2.647767"><ele></ele><time>2017-9-19T3:34:14Z</time></trkpt>
<trkpt lat="48.42583" lon="2.64794"><ele></ele><time>2017-9-19T3:34:17Z</time></trkpt>
<trkpt lat="48.42586" lon="2.647806"><ele></ele><time>2017-9-19T3:34:20Z</time></trkpt>
<trkpt lat="48.42595" lon="2.648145"><ele></ele><time>2017-9-19T3:34:23Z</time></trkpt>
<trkpt lat="48.426023" lon="2.648256"><ele></ele><time>2017-9-19T3:34:26Z</time></trkpt>
<trkpt lat="48.426076" lon="2.648369"><ele></ele><time>2017-9-19T3:34:29Z</time></trkpt>
<trkpt lat="48.42612" lon="2.64849"><ele></ele><time>2017-9-19T3:34:32Z</time></trkpt>
<trkpt lat="48.426181" lon="2.648626"><ele></ele><time>2017-9-19T3:34:35Z</time></trkpt>
<trkpt lat="48.42622" lon="2.648762"><ele></ele><time>2017-9-19T3:34:38Z</time></trkpt>
<trkpt lat="48.426259" lon="2.648892"><ele></ele><time>2017-9-19T3:34:41Z</time></trkpt>
<trkpt lat="48.426344" lon="2.649112"><ele></ele><time>2017-9-19T3:34:44Z</time></trkpt>
<trkpt lat="48.426398" lon="2.649283"><ele></ele><time>2017-9-19T3:34:47Z</time></trkpt>
<trkpt lat="48.426443" lon="2.649401"><ele></ele><time>2017-9-19T3:34:50Z</time></trkpt>
<trkpt lat="48.42648" lon="2.649545"><ele></ele><time>2017-9-19T3:34:53Z</time></trkpt>
<trkpt lat="48.426539" lon="2.649671"><ele></ele><time>2017-9-19T3:34:56Z</time></trkpt>
<trkpt lat="48.426577" lon="2.649801"><ele></ele><time>2017-9-19T3:34:59Z</time></trkpt>
<trkpt lat="48.426636" lon="2.649915"><ele></ele><time>2017-9-19T3:35:2Z</time></trkpt>
<trkpt lat="48.426701" lon="2.650051"><ele></ele><time>2017-9-19T3:35:5Z</time></trkpt>
<trkpt lat="48.426829" lon="2.650282"><ele></ele><time>2017-9-19T3:35:8Z</time></trkpt>
<trkpt lat="48.426919" lon="2.650399"><ele></ele><time>2017-9-19T3:35:11Z</time></trkpt>
<trkpt lat="48.42699" lon="2.650486"><ele></ele><time>2017-9-19T3:35:14Z</time></trkpt>
<trkpt lat="48.427067" lon="2.650645"><ele></ele><time>2017-9-19T3:35:17Z</time></trkpt>
<trkpt lat="48.427113" lon="2.650782"><ele></ele><time>2017-9-19T3:35:20Z</time></trkpt>
<trkpt lat="48.427176" lon="2.650913"><ele></ele><time>2017-9-19T3:35:23Z</time></trkpt>
<trkpt lat="48.427235" lon="2.651018"><ele></ele><time>2017-9-19T3:35:26Z</time></trkpt>
<trkpt lat="48.427286" lon="2.651145"><ele></ele><time>2017-9-19T3:35:29Z</time></trkpt>
<trkpt lat="48.42733" lon="2.651292"><ele></ele><time>2017-9-19T3:35:32Z</time></trkpt>
<trkpt lat="48.427378" lon="2.651408"><ele></ele><time>2017-9-19T3:35:35Z</time></trkpt>
<trkpt lat="48.427379" lon="2.651547"><ele></ele><time>2017-9-19T3:35:38Z</time></trkpt>
<trkpt lat="48.427416" lon="2.651697"><ele></ele><time>2017-9-19T3:35:41Z</time></trkpt>
<trkpt lat="48.427417" lon="2.651848"><ele></ele><time>2017-9-19T3:35:44Z</time></trkpt>
<trkpt lat="48.427431" lon="2.652015"><ele></ele><time>2017-9-19T3:35:47Z</time></trkpt>
<trkpt lat="48.427441" lon="2.65216"><ele></ele><time>2017-9-19T3:35:50Z</time></trkpt>
<trkpt lat="48.427402" lon="2.652476"><ele></ele><time>2017-9-19T3:35:53Z</time></trkpt>
<trkpt lat="48.42739" lon="2.652634"><ele></ele><time>2017-9-19T3:35:56Z</time></trkpt>
<trkpt lat="48.427393" lon="2.652804"><ele></ele><time>2017-9-19T3:35:59Z</time></trkpt>
<trkpt lat="48.427374" lon="2.65296"><ele></ele><time>2017-9-19T3:36:2Z</time></trkpt>
<trkpt lat="48.427388" lon="2.653134"><ele></ele><time>2017-9-19T3:36:5Z</time></trkpt>
<trkpt lat="48.4274" lon="2.653353"><ele></ele><time>2017-9-19T3:36:8Z</time></trkpt>
<trkpt lat="48.427383" lon="2.653561"><ele></ele><time>2017-9-19T3:36:11Z</time></trkpt>
<trkpt lat="48.427363" lon="2.653707"><ele></ele><time>2017-9-19T3:36:14Z</time></trkpt>
<trkpt lat="48.427349" lon="2.653911"><ele></ele><time>2017-9-19T3:36:17Z</time></trkpt>
<trkpt lat="48.427326" lon="2.654075"><ele></ele><time>2017-9-19T3:36:20Z</time></trkpt>
<trkpt lat="48.427292" lon="2.654213"><ele></ele><time>2017-9-19T3:36:23Z</time></trkpt>
<trkpt lat="48.427286" lon="2.654399"><ele></ele><time>2017-9-19T3:36:26Z</time></trkpt>
<trkpt lat="48.427314" lon="2.654541"><ele></ele><time>2017-9-19T3:36:29Z</time></trkpt>
<trkpt lat="48.42733" lon="2.654727"><ele></ele><time>2017-9-19T3:36:32Z</time></trkpt>
<trkpt lat="48.427348" lon="2.654895"><ele></ele><time>2017-9-19T3:36:35Z</time></trkpt>
<trkpt lat="48.427388" lon="2.655066"><ele></ele><time>2017-9-19T3:36:38Z</time></trkpt>
<trkpt lat="48.427432" lon="2.655206"><ele></ele><time>2017-9-19T3:36:41Z</time></trkpt>
<trkpt lat="48.42748" lon="2.655364"><ele></ele><time>2017-9-19T3:36:44Z</time></trkpt>
<trkpt lat="48.427489" lon="2.655694"><ele></ele><time>2017-9-19T3:36:47Z</time></trkpt>
<trkpt lat="48.42749" lon="2.655852"><ele></ele><time>2017-9-19T3:36:50Z</time></trkpt>
<trkpt lat="48.427534" lon="2.656037"><ele></ele><time>2017-9-19T3:36:53Z</time></trkpt>
<trkpt lat="48.427564" lon="2.656165"><ele></ele><time>2017-9-19T3:36:56Z</time></trkpt>
<trkpt lat="48.427619" lon="2.656277"><ele></ele><time>2017-9-19T3:36:59Z</time></trkpt>
<trkpt lat="48.427652" lon="2.656436"><ele></ele><time>2017-9-19T3:37:2Z</time></trkpt>
<trkpt lat="48.427703" lon="2.656571"><ele></ele><time>2017-9-19T3:37:5Z</time></trkpt>
<trkpt lat="48.427733" lon="2.656711"><ele></ele><time>2017-9-19T3:37:8Z</time></trkpt>
<trkpt lat="48.427764" lon="2.656905"><ele></ele><time>2017-9-19T3:37:11Z</time></trkpt>
<trkpt lat="48.42779" lon="2.65704"><ele></ele><time>2017-9-19T3:37:14Z</time></trkpt>
<trkpt lat="48.427817" lon="2.657178"><ele></ele><time>2017-9-19T3:37:17Z</time></trkpt>
<trkpt lat="48.427848" lon="2.657366"><ele></ele><time>2017-9-19T3:37:20Z</time></trkpt>
<trkpt lat="48.427899" lon="2.657546"><ele></ele><time>2017-9-19T3:37:23Z</time></trkpt>
<trkpt lat="48.427899" lon="2.657699"><ele></ele><time>2017-9-19T3:37:26Z</time></trkpt>
<trkpt lat="48.427923" lon="2.657861"><ele></ele><time>2017-9-19T3:37:29Z</time></trkpt>
<trkpt lat="48.427942" lon="2.657998"><ele></ele><time>2017-9-19T3:37:32Z</time></trkpt>
<trkpt lat="48.427931" lon="2.658178"><ele></ele><time>2017-9-19T3:37:35Z</time></trkpt>
<trkpt lat="48.427942" lon="2.658355"><ele></ele><time>2017-9-19T3:37:38Z</time></trkpt>
<trkpt lat="48.428003" lon="2.65851"><ele></ele><time>2017-9-19T3:37:41Z</time></trkpt>
<trkpt lat="48.428028" lon="2.658684"><ele></ele><time>2017-9-19T3:37:44Z</time></trkpt>
<trkpt lat="48.428042" lon="2.658835"><ele></ele><time>2017-9-19T3:37:47Z</time></trkpt>
<trkpt lat="48.428046" lon="2.658996"><ele></ele><time>2017-9-19T3:37:50Z</time></trkpt>
<trkpt lat="48.428015" lon="2.659167"><ele></ele><time>2017-9-19T3:37:53Z</time></trkpt>
<trkpt lat="48.428056" lon="2.659476"><ele></ele><time>2017-9-19T3:37:56Z</time></trkpt>
<trkpt lat="48.428074" lon="2.659615"><ele></ele><time>2017-9-19T3:37:59Z</time></trkpt>
<trkpt lat="48.428117" lon="2.659755"><ele></ele><time>2017-9-19T3:38:2Z</time></trkpt>
<trkpt lat="48.428174" lon="2.65986"><ele></ele><time>2017-9-19T3:38:5Z</time></trkpt>
<trkpt lat="48.428241" lon="2.659964"><ele></ele><time>2017-9-19T3:38:8Z</time></trkpt>
<trkpt lat="48.428339" lon="2.66007"><ele></ele><time>2017-9-19T3:38:11Z</time></trkpt>
<trkpt lat="48.428408" lon="2.660164"><ele></ele><time>2017-9-19T3:38:14Z</time></trkpt>
<trkpt lat="48.428503" lon="2.660288"><ele></ele><time>2017-9-19T3:38:17Z</time></trkpt>
<trkpt lat="48.42862" lon="2.660368"><ele></ele><time>2017-9-19T3:38:20Z</time></trkpt>
<trkpt lat="48.428725" lon="2.660494"><ele></ele><time>2017-9-19T3:38:23Z</time></trkpt>
<trkpt lat="48.428806" lon="2.660582"><ele></ele><time>2017-9-19T3:38:26Z</time></trkpt>
<trkpt lat="48.428881" lon="2.660675"><ele></ele><time>2017-9-19T3:38:29Z</time></trkpt>
<trkpt lat="48.428961" lon="2.660764"><ele></ele><time>2017-9-19T3:38:32Z</time></trkpt>
<trkpt lat="48.429066" lon="2.660831"><ele></ele><time>2017-9-19T3:38:35Z</time></trkpt>
<trkpt lat="48.42917" lon="2.660864"><ele></ele><time>2017-9-19T3:38:38Z</time></trkpt>
<trkpt lat="48.429286" lon="2.660917"><ele></ele><time>2017-9-19T3:38:41Z</time></trkpt>
<trkpt lat="48.4294" lon="2.660974"><ele></ele><time>2017-9-19T3:38:44Z</time></trkpt>
<trkpt lat="48.429515" lon="2.660974"><ele></ele><time>2017-9-19T3:38:47Z</time></trkpt>
<trkpt lat="48.429645" lon="2.660951"><ele></ele><time>2017-9-19T3:38:50Z</time></trkpt>
<trkpt lat="48.429737" lon="2.660937"><ele></ele><time>2017-9-19T3:38:53Z</time></trkpt>
<trkpt lat="48.429919" lon="2.660967"><ele></ele><time>2017-9-19T3:38:56Z</time></trkpt>
<trkpt lat="48.430008" lon="2.660998"><ele></ele><time>2017-9-19T3:38:59Z</time></trkpt>
<trkpt lat="48.430049" lon="2.661152"><ele></ele><time>2017-9-19T3:39:2Z</time></trkpt>
<trkpt lat="48.430049" lon="2.661303"><ele></ele><time>2017-9-19T3:39:5Z</time></trkpt>
<trkpt lat="48.430045" lon="2.661452"><ele></ele><time>2017-9-19T3:39:8Z</time></trkpt>
<trkpt lat="48.430124" lon="2.661561"><ele></ele><time>2017-9-19T3:39:11Z</time></trkpt>
<trkpt lat="48.430199" lon="2.661689"><ele></ele><time>2017-9-19T3:39:14Z</time></trkpt>
<trkpt lat="48.430287" lon="2.661776"><ele></ele><time>2017-9-19T3:39:17Z</time></trkpt>
<trkpt lat="48.430323" lon="2.661906"><ele></ele><time>2017-9-19T3:39:20Z</time></trkpt>
<trkpt lat="48.430321" lon="2.662069"><ele></ele><time>2017-9-19T3:39:23Z</time></trkpt>
<trkpt lat="48.430341" lon="2.662246"><ele></ele><time>2017-9-19T3:39:26Z</time></trkpt>
<trkpt lat="48.430358" lon="2.662393"><ele></ele><time>2017-9-19T3:39:29Z</time></trkpt>
<trkpt lat="48.430354" lon="2.66255"><ele></ele><time>2017-9-19T3:39:32Z</time></trkpt>
<trkpt lat="48.430369" lon="2.662786"><ele></ele><time>2017-9-19T3:39:35Z</time></trkpt>
<trkpt lat="48.430393" lon="2.662958"><ele></ele><time>2017-9-19T3:39:38Z</time></trkpt>
<trkpt lat="48.43042" lon="2.663288"><ele></ele><time>2017-9-19T3:39:41Z</time></trkpt>
<trkpt lat="48.430426" lon="2.663474"><ele></ele><time>2017-9-19T3:39:44Z</time></trkpt>
<trkpt lat="48.430447" lon="2.663629"><ele></ele><time>2017-9-19T3:39:47Z</time></trkpt>
<trkpt lat="48.430449" lon="2.663796"><ele></ele><time>2017-9-19T3:39:50Z</time></trkpt>
<trkpt lat="48.430446" lon="2.663948"><ele></ele><time>2017-9-19T3:39:53Z</time></trkpt>
<trkpt lat="48.430453" lon="2.664089"><ele></ele><time>2017-9-19T3:39:56Z</time></trkpt>
<trkpt lat="48.430464" lon="2.664227"><ele></ele><time>2017-9-19T3:39:59Z</time></trkpt>
<trkpt lat="48.430486" lon="2.664396"><ele></ele><time>2017-9-19T3:40:2Z</time></trkpt>
<trkpt lat="48.43051" lon="2.664574"><ele></ele><time>2017-9-19T3:40:5Z</time></trkpt>
<trkpt lat="48.430518" lon="2.664725"><ele></ele><time>2017-9-19T3:40:8Z</time></trkpt>
<trkpt lat="48.430575" lon="2.664949"><ele></ele><time>2017-9-19T3:40:11Z</time></trkpt>
<trkpt lat="48.430652" lon="2.665039"><ele></ele><time>2017-9-19T3:40:14Z</time></trkpt>
<trkpt lat="48.430763" lon="2.665015"><ele></ele><time>2017-9-19T3:40:17Z</time></trkpt>
<trkpt lat="48.430898" lon="2.665047"><ele></ele><time>2017-9-19T3:40:20Z</time></trkpt>
<trkpt lat="48.430991" lon="2.665056"><ele></ele><time>2017-9-19T3:40:23Z</time></trkpt>
<trkpt lat="48.431106" lon="2.665083"><ele></ele><time>2017-9-19T3:40:26Z</time></trkpt>
<trkpt lat="48.431222" lon="2.665117"><ele></ele><time>2017-9-19T3:40:29Z</time></trkpt>
<trkpt lat="48.431344" lon="2.665129"><ele></ele><time>2017-9-19T3:40:32Z</time></trkpt>
<trkpt lat="48.431501" lon="2.66517"><ele></ele><time>2017-9-19T3:40:35Z</time></trkpt>
<trkpt lat="48.431626" lon="2.665198"><ele></ele><time>2017-9-19T3:40:38Z</time></trkpt>
<trkpt lat="48.431717" lon="2.665221"><ele></ele><time>2017-9-19T3:40:41Z</time></trkpt>
<trkpt lat="48.431815" lon="2.665226"><ele></ele><time>2017-9-19T3:40:44Z</time></trkpt>
<trkpt lat="48.431978" lon="2.665257"><ele></ele><time>2017-9-19T3:40:47Z</time></trkpt>
<trkpt lat="48.432096" lon="2.665281"><ele></ele><time>2017-9-19T3:40:50Z</time></trkpt>
<trkpt lat="48.432325" lon="2.665353"><ele></ele><time>2017-9-19T3:40:53Z</time></trkpt>
<trkpt lat="48.432454" lon="2.665358"><ele></ele><time>2017-9-19T3:40:56Z</time></trkpt>
<trkpt lat="48.432593" lon="2.665348"><ele></ele><time>2017-9-19T3:40:59Z</time></trkpt>
<trkpt lat="48.432696" lon="2.665363"><ele></ele><time>2017-9-19T3:41:2Z</time></trkpt>
<trkpt lat="48.432814" lon="2.665409"><ele></ele><time>2017-9-19T3:41:5Z</time></trkpt>
<trkpt lat="48.432915" lon="2.665449"><ele></ele><time>2017-9-19T3:41:8Z</time></trkpt>
<trkpt lat="48.433026" lon="2.665503"><ele></ele><time>2017-9-19T3:41:11Z</time></trkpt>
<trkpt lat="48.433137" lon="2.665521"><ele></ele><time>2017-9-19T3:41:14Z</time></trkpt>
<trkpt lat="48.433255" lon="2.665556"><ele></ele><time>2017-9-19T3:41:17Z</time></trkpt>
<trkpt lat="48.433356" lon="2.665551"><ele></ele><time>2017-9-19T3:41:20Z</time></trkpt>
<trkpt lat="48.433484" lon="2.66557"><ele></ele><time>2017-9-19T3:41:23Z</time></trkpt>
<trkpt lat="48.433614" lon="2.665629"><ele></ele><time>2017-9-19T3:41:26Z</time></trkpt>
<trkpt lat="48.433707" lon="2.66565"><ele></ele><time>2017-9-19T3:41:29Z</time></trkpt>
<trkpt lat="48.433816" lon="2.665662"><ele></ele><time>2017-9-19T3:41:32Z</time></trkpt>
<trkpt lat="48.433934" lon="2.665708"><ele></ele><time>2017-9-19T3:41:35Z</time></trkpt>
<trkpt lat="48.434045" lon="2.665741"><ele></ele><time>2017-9-19T3:41:38Z</time></trkpt>
<trkpt lat="48.434156" lon="2.665778"><ele></ele><time>2017-9-19T3:41:41Z</time></trkpt>
<trkpt lat="48.43425" lon="2.665799"><ele></ele><time>2017-9-19T3:41:44Z</time></trkpt>
<trkpt lat="48.434365" lon="2.665839"><ele></ele><time>2017-9-19T3:41:47Z</time></trkpt>
<trkpt lat="48.434502" lon="2.665892"><ele></ele><time>2017-9-19T3:41:50Z</time></trkpt>
<trkpt lat="48.434619" lon="2.66592"><ele></ele><time>2017-9-19T3:41:53Z</time></trkpt>
<trkpt lat="48.434722" lon="2.665955"><ele></ele><time>2017-9-19T3:41:56Z</time></trkpt>
<trkpt lat="48.434845" lon="2.665995"><ele></ele><time>2017-9-19T3:41:59Z</time></trkpt>
<trkpt lat="48.434958" lon="2.66605"><ele></ele><time>2017-9-19T3:42:2Z</time></trkpt>
<trkpt lat="48.435198" lon="2.666095"><ele></ele><time>2017-9-19T3:42:5Z</time></trkpt>
<trkpt lat="48.435303" lon="2.666161"><ele></ele><time>2017-9-19T3:42:8Z</time></trkpt>
<trkpt lat="48.435407" lon="2.666165"><ele></ele><time>2017-9-19T3:42:11Z</time></trkpt>
<trkpt lat="48.435533" lon="2.666179"><ele></ele><time>2017-9-19T3:42:14Z</time></trkpt>
<trkpt lat="48.435672" lon="2.66622"><ele></ele><time>2017-9-19T3:42:17Z</time></trkpt>
<trkpt lat="48.435776" lon="2.666244"><ele></ele><time>2017-9-19T3:42:20Z</time></trkpt>
<trkpt lat="48.435896" lon="2.666255"><ele></ele><time>2017-9-19T3:42:23Z</time></trkpt>
<trkpt lat="48.435996" lon="2.666269"><ele></ele><time>2017-9-19T3:42:26Z</time></trkpt>
<trkpt lat="48.43611" lon="2.666308"><ele></ele><time>2017-9-19T3:42:29Z</time></trkpt>
<trkpt lat="48.436201" lon="2.666328"><ele></ele><time>2017-9-19T3:42:32Z</time></trkpt>
<trkpt lat="48.436291" lon="2.666348"><ele></ele><time>2017-9-19T3:42:35Z</time></trkpt>
<trkpt lat="48.436382" lon="2.666346"><ele></ele><time>2017-9-19T3:42:38Z</time></trkpt>
<trkpt lat="48.436485" lon="2.666383"><ele></ele><time>2017-9-19T3:42:41Z</time></trkpt>
<trkpt lat="48.436583" lon="2.666403"><ele></ele><time>2017-9-19T3:42:44Z</time></trkpt>
<trkpt lat="48.436677" lon="2.666438"><ele></ele><time>2017-9-19T3:42:47Z</time></trkpt>
<trkpt lat="48.436769" lon="2.666477"><ele></ele><time>2017-9-19T3:42:50Z</time></trkpt>
<trkpt lat="48.436937" lon="2.666528"><ele></ele><time>2017-9-19T3:42:53Z</time></trkpt>
<trkpt lat="48.437048" lon="2.66657"><ele></ele><time>2017-9-19T3:42:56Z</time></trkpt>
<trkpt lat="48.437106" lon="2.666677"><ele></ele><time>2017-9-19T3:42:59Z</time></trkpt>
<trkpt lat="48.437222" lon="2.666765"><ele></ele><time>2017-9-19T3:43:2Z</time></trkpt>
<trkpt lat="48.437322" lon="2.666806"><ele></ele><time>2017-9-19T3:43:5Z</time></trkpt>
<trkpt lat="48.437458" lon="2.666823"><ele></ele><time>2017-9-19T3:43:8Z</time></trkpt>
<trkpt lat="48.437576" lon="2.66687"><ele></ele><time>2017-9-19T3:43:11Z</time></trkpt>
<trkpt lat="48.437743" lon="2.666919"><ele></ele><time>2017-9-19T3:43:14Z</time></trkpt>
<trkpt lat="48.437838" lon="2.666952"><ele></ele><time>2017-9-19T3:43:17Z</time></trkpt>
<trkpt lat="48.437936" lon="2.666983"><ele></ele><time>2017-9-19T3:43:20Z</time></trkpt>
<trkpt lat="48.438037" lon="2.667024"><ele></ele><time>2017-9-19T3:43:23Z</time></trkpt>
<trkpt lat="48.438178" lon="2.667104"><ele></ele><time>2017-9-19T3:43:26Z</time></trkpt>
<trkpt lat="48.438396" lon="2.667211"><ele></ele><time>2017-9-19T3:43:29Z</time></trkpt>
<trkpt lat="48.4385" lon="2.667245"><ele></ele><time>2017-9-19T3:43:32Z</time></trkpt>
<trkpt lat="48.438587" lon="2.667283"><ele></ele><time>2017-9-19T3:43:35Z</time></trkpt>
<trkpt lat="48.438688" lon="2.667313"><ele></ele><time>2017-9-19T3:43:38Z</time></trkpt>
<trkpt lat="48.438795" lon="2.667396"><ele></ele><time>2017-9-19T3:43:41Z</time></trkpt>
<trkpt lat="48.43889" lon="2.667428"><ele></ele><time>2017-9-19T3:43:44Z</time></trkpt>
<trkpt lat="48.438986" lon="2.667481"><ele></ele><time>2017-9-19T3:43:47Z</time></trkpt>
<trkpt lat="48.439106" lon="2.667547"><ele></ele><time>2017-9-19T3:43:50Z</time></trkpt>
<trkpt lat="48.439214" lon="2.667632"><ele></ele><time>2017-9-19T3:43:53Z</time></trkpt>
<trkpt lat="48.439335" lon="2.667706"><ele></ele><time>2017-9-19T3:43:56Z</time></trkpt>
<trkpt lat="48.439452" lon="2.667774"><ele></ele><time>2017-9-19T3:43:59Z</time></trkpt>
<trkpt lat="48.439549" lon="2.667814"><ele></ele><time>2017-9-19T3:44:2Z</time></trkpt>
<trkpt lat="48.439672" lon="2.66786"><ele></ele><time>2017-9-19T3:44:5Z</time></trkpt>
<trkpt lat="48.439789" lon="2.667931"><ele></ele><time>2017-9-19T3:44:8Z</time></trkpt>
<trkpt lat="48.439875" lon="2.667977"><ele></ele><time>2017-9-19T3:44:11Z</time></trkpt>
<trkpt lat="48.439954" lon="2.668044"><ele></ele><time>2017-9-19T3:44:14Z</time></trkpt>
<trkpt lat="48.440064" lon="2.668105"><ele></ele><time>2017-9-19T3:44:17Z</time></trkpt>
<trkpt lat="48.440178" lon="2.668155"><ele></ele><time>2017-9-19T3:44:20Z</time></trkpt>
<trkpt lat="48.440277" lon="2.668205"><ele></ele><time>2017-9-19T3:44:23Z</time></trkpt>
<trkpt lat="48.440394" lon="2.668251"><ele></ele><time>2017-9-19T3:44:26Z</time></trkpt>
<trkpt lat="48.440488" lon="2.668288"><ele></ele><time>2017-9-19T3:44:29Z</time></trkpt>
<trkpt lat="48.440575" lon="2.668336"><ele></ele><time>2017-9-19T3:44:32Z</time></trkpt>
<trkpt lat="48.440685" lon="2.668418"><ele></ele><time>2017-9-19T3:44:35Z</time></trkpt>
<trkpt lat="48.440884" lon="2.66853"><ele></ele><time>2017-9-19T3:44:38Z</time></trkpt>
<trkpt lat="48.441011" lon="2.668604"><ele></ele><time>2017-9-19T3:44:41Z</time></trkpt>
<trkpt lat="48.441133" lon="2.668656"><ele></ele><time>2017-9-19T3:44:44Z</time></trkpt>
<trkpt lat="48.441233" lon="2.668729"><ele></ele><time>2017-9-19T3:44:47Z</time></trkpt>
<trkpt lat="48.441344" lon="2.668821"><ele></ele><time>2017-9-19T3:44:50Z</time></trkpt>
<trkpt lat="48.441461" lon="2.668877"><ele></ele><time>2017-9-19T3:44:53Z</time></trkpt>
<trkpt lat="48.441576" lon="2.668936"><ele></ele><time>2017-9-19T3:44:56Z</time></trkpt>
<trkpt lat="48.441676" lon="2.669014"><ele></ele><time>2017-9-19T3:44:59Z</time></trkpt>
<trkpt lat="48.441797" lon="2.669071"><ele></ele><time>2017-9-19T3:45:2Z</time></trkpt>
<trkpt lat="48.441911" lon="2.669209"><ele></ele><time>2017-9-19T3:45:5Z</time></trkpt>
<trkpt lat="48.44201" lon="2.669273"><ele></ele><time>2017-9-19T3:45:8Z</time></trkpt>
<trkpt lat="48.442114" lon="2.669227"><ele></ele><time>2017-9-19T3:45:11Z</time></trkpt>
<trkpt lat="48.442197" lon="2.669301"><ele></ele><time>2017-9-19T3:45:14Z</time></trkpt>
<trkpt lat="48.442304" lon="2.669358"><ele></ele><time>2017-9-19T3:45:17Z</time></trkpt>
<trkpt lat="48.442391" lon="2.669401"><ele></ele><time>2017-9-19T3:45:20Z</time></trkpt>
<trkpt lat="48.442588" lon="2.669447"><ele></ele><time>2017-9-19T3:45:23Z</time></trkpt>
<trkpt lat="48.442688" lon="2.669406"><ele></ele><time>2017-9-19T3:45:26Z</time></trkpt>
<trkpt lat="48.44279" lon="2.669372"><ele></ele><time>2017-9-19T3:45:29Z</time></trkpt>
<trkpt lat="48.442944" lon="2.669369"><ele></ele><time>2017-9-19T3:45:32Z</time></trkpt>
<trkpt lat="48.443045" lon="2.669418"><ele></ele><time>2017-9-19T3:45:35Z</time></trkpt>
<trkpt lat="48.443161" lon="2.669457"><ele></ele><time>2017-9-19T3:45:38Z</time></trkpt>
<trkpt lat="48.443269" lon="2.669474"><ele></ele><time>2017-9-19T3:45:41Z</time></trkpt>
<trkpt lat="48.443372" lon="2.669534"><ele></ele><time>2017-9-19T3:45:44Z</time></trkpt>
<trkpt lat="48.443463" lon="2.669557"><ele></ele><time>2017-9-19T3:45:47Z</time></trkpt>
<trkpt lat="48.443553" lon="2.669685"><ele></ele><time>2017-9-19T3:45:50Z</time></trkpt>
<trkpt lat="48.443618" lon="2.66978"><ele></ele><time>2017-9-19T3:45:53Z</time></trkpt>
<trkpt lat="48.443737" lon="2.669723"><ele></ele><time>2017-9-19T3:45:56Z</time></trkpt>
<trkpt lat="48.443765" lon="2.669586"><ele></ele><time>2017-9-19T3:45:59Z</time></trkpt>
<trkpt lat="48.443779" lon="2.669445"><ele></ele><time>2017-9-19T3:46:2Z</time></trkpt>
<trkpt lat="48.4438" lon="2.669303"><ele></ele><time>2017-9-19T3:46:5Z</time></trkpt>
<trkpt lat="48.443948" lon="2.669096"><ele></ele><time>2017-9-19T3:46:8Z</time></trkpt>
<trkpt lat="48.444037" lon="2.669001"><ele></ele><time>2017-9-19T3:46:11Z</time></trkpt>
<trkpt lat="48.444119" lon="2.668934"><ele></ele><time>2017-9-19T3:46:14Z</time></trkpt>
<trkpt lat="48.444181" lon="2.668799"><ele></ele><time>2017-9-19T3:46:17Z</time></trkpt>
<trkpt lat="48.444254" lon="2.668692"><ele></ele><time>2017-9-19T3:46:20Z</time></trkpt>
<trkpt lat="48.444342" lon="2.668612"><ele></ele><time>2017-9-19T3:46:23Z</time></trkpt>
<trkpt lat="48.444417" lon="2.668506"><ele></ele><time>2017-9-19T3:46:26Z</time></trkpt>
<trkpt lat="48.444519" lon="2.668383"><ele></ele><time>2017-9-19T3:46:29Z</time></trkpt>
<trkpt lat="48.444669" lon="2.668251"><ele></ele><time>2017-9-19T3:46:32Z</time></trkpt>
<trkpt lat="48.444745" lon="2.668157"><ele></ele><time>2017-9-19T3:46:35Z</time></trkpt>
<trkpt lat="48.44483" lon="2.668071"><ele></ele><time>2017-9-19T3:46:38Z</time></trkpt>
<trkpt lat="48.444896" lon="2.667974"><ele></ele><time>2017-9-19T3:46:41Z</time></trkpt>
<trkpt lat="48.444997" lon="2.667855"><ele></ele><time>2017-9-19T3:46:44Z</time></trkpt>
<trkpt lat="48.445072" lon="2.667773"><ele></ele><time>2017-9-19T3:46:47Z</time></trkpt>
<trkpt lat="48.445152" lon="2.667682"><ele></ele><time>2017-9-19T3:46:50Z</time></trkpt>
<trkpt lat="48.44522" lon="2.667589"><ele></ele><time>2017-9-19T3:46:53Z</time></trkpt>
<trkpt lat="48.445327" lon="2.667457"><ele></ele><time>2017-9-19T3:46:56Z</time></trkpt>
<trkpt lat="48.445426" lon="2.667328"><ele></ele><time>2017-9-19T3:46:59Z</time></trkpt>
<trkpt lat="48.445543" lon="2.667199"><ele></ele><time>2017-9-19T3:47:2Z</time></trkpt>
<trkpt lat="48.44571" lon="2.667024"><ele></ele><time>2017-9-19T3:47:5Z</time></trkpt>
<trkpt lat="48.445803" lon="2.666924"><ele></ele><time>2017-9-19T3:47:8Z</time></trkpt>
<trkpt lat="48.445902" lon="2.666796"><ele></ele><time>2017-9-19T3:47:11Z</time></trkpt>
<trkpt lat="48.445987" lon="2.666693"><ele></ele><time>2017-9-19T3:47:14Z</time></trkpt>
<trkpt lat="48.446066" lon="2.666595"><ele></ele><time>2017-9-19T3:47:17Z</time></trkpt>
<trkpt lat="48.446159" lon="2.66646"><ele></ele><time>2017-9-19T3:47:20Z</time></trkpt>
<trkpt lat="48.446254" lon="2.666341"><ele></ele><time>2017-9-19T3:47:23Z</time></trkpt>
<trkpt lat="48.446356" lon="2.666247"><ele></ele><time>2017-9-19T3:47:26Z</time></trkpt>
<trkpt lat="48.446446" lon="2.666144"><ele></ele><time>2017-9-19T3:47:29Z</time></trkpt>
<trkpt lat="48.44652" lon="2.666043"><ele></ele><time>2017-9-19T3:47:32Z</time></trkpt>
<trkpt lat="48.446621" lon="2.665915"><ele></ele><time>2017-9-19T3:47:35Z</time></trkpt>
<trkpt lat="48.446726" lon="2.665799"><ele></ele><time>2017-9-19T3:47:38Z</time></trkpt>
<trkpt lat="48.446822" lon="2.665676"><ele></ele><time>2017-9-19T3:47:41Z</time></trkpt>
<trkpt lat="48.446921" lon="2.665547"><ele></ele><time>2017-9-19T3:47:44Z</time></trkpt>
<trkpt lat="48.447016" lon="2.665415"><ele></ele><time>2017-9-19T3:47:47Z</time></trkpt>
<trkpt lat="48.447109" lon="2.665292"><ele></ele><time>2017-9-19T3:47:50Z</time></trkpt>
<trkpt lat="48.447204" lon="2.665195"><ele></ele><time>2017-9-19T3:47:53Z</time></trkpt>
<trkpt lat="48.447298" lon="2.665067"><ele></ele><time>2017-9-19T3:47:56Z</time></trkpt>
<trkpt lat="48.44738" lon="2.664963"><ele></ele><time>2017-9-19T3:47:59Z</time></trkpt>
<trkpt lat="48.447489" lon="2.664794"><ele></ele><time>2017-9-19T3:48:2Z</time></trkpt>
<trkpt lat="48.447587" lon="2.664706"><ele></ele><time>2017-9-19T3:48:5Z</time></trkpt>
<trkpt lat="48.447796" lon="2.664496"><ele></ele><time>2017-9-19T3:48:8Z</time></trkpt>
<trkpt lat="48.447872" lon="2.664335"><ele></ele><time>2017-9-19T3:48:11Z</time></trkpt>
<trkpt lat="48.447937" lon="2.664216"><ele></ele><time>2017-9-19T3:48:14Z</time></trkpt>
<trkpt lat="48.447971" lon="2.664069"><ele></ele><time>2017-9-19T3:48:17Z</time></trkpt>
<trkpt lat="48.448027" lon="2.663917"><ele></ele><time>2017-9-19T3:48:20Z</time></trkpt>
<trkpt lat="48.448086" lon="2.663721"><ele></ele><time>2017-9-19T3:48:23Z</time></trkpt>
<trkpt lat="48.448129" lon="2.663579"><ele></ele><time>2017-9-19T3:48:26Z</time></trkpt>
<trkpt lat="48.448178" lon="2.663421"><ele></ele><time>2017-9-19T3:48:29Z</time></trkpt>
<trkpt lat="48.44822" lon="2.663263"><ele></ele><time>2017-9-19T3:48:32Z</time></trkpt>
<trkpt lat="48.44833" lon="2.663005"><ele></ele><time>2017-9-19T3:48:35Z</time></trkpt>
<trkpt lat="48.448372" lon="2.662852"><ele></ele><time>2017-9-19T3:48:38Z</time></trkpt>
<trkpt lat="48.448404" lon="2.662693"><ele></ele><time>2017-9-19T3:48:41Z</time></trkpt>
<trkpt lat="48.448451" lon="2.662545"><ele></ele><time>2017-9-19T3:48:44Z</time></trkpt>
<trkpt lat="48.448505" lon="2.662365"><ele></ele><time>2017-9-19T3:48:47Z</time></trkpt>
<trkpt lat="48.448532" lon="2.662195"><ele></ele><time>2017-9-19T3:48:50Z</time></trkpt>
<trkpt lat="48.448601" lon="2.662038"><ele></ele><time>2017-9-19T3:48:53Z</time></trkpt>
<trkpt lat="48.448653" lon="2.661855"><ele></ele><time>2017-9-19T3:48:56Z</time></trkpt>
<trkpt lat="48.448707" lon="2.66171"><ele></ele><time>2017-9-19T3:48:59Z</time></trkpt>
<trkpt lat="48.448763" lon="2.661591"><ele></ele><time>2017-9-19T3:49:2Z</time></trkpt>
<trkpt lat="48.448873" lon="2.661258"><ele></ele><time>2017-9-19T3:49:5Z</time></trkpt>
<trkpt lat="48.448917" lon="2.661097"><ele></ele><time>2017-9-19T3:49:8Z</time></trkpt>
<trkpt lat="48.44898" lon="2.660984"><ele></ele><time>2017-9-19T3:49:11Z</time></trkpt>
<trkpt lat="48.449034" lon="2.660794"><ele></ele><time>2017-9-19T3:49:14Z</time></trkpt>
<trkpt lat="48.449095" lon="2.660633"><ele></ele><time>2017-9-19T3:49:17Z</time></trkpt>
<trkpt lat="48.449171" lon="2.660503"><ele></ele><time>2017-9-19T3:49:20Z</time></trkpt>
<trkpt lat="48.449176" lon="2.660345"><ele></ele><time>2017-9-19T3:49:23Z</time></trkpt>
<trkpt lat="48.449261" lon="2.660189"><ele></ele><time>2017-9-19T3:49:26Z</time></trkpt>
<trkpt lat="48.449332" lon="2.660056"><ele></ele><time>2017-9-19T3:49:29Z</time></trkpt>
<trkpt lat="48.449383" lon="2.659894"><ele></ele><time>2017-9-19T3:49:32Z</time></trkpt>
<trkpt lat="48.449422" lon="2.659767"><ele></ele><time>2017-9-19T3:49:35Z</time></trkpt>
<trkpt lat="48.44945" lon="2.659623"><ele></ele><time>2017-9-19T3:49:38Z</time></trkpt>
<trkpt lat="48.449511" lon="2.659487"><ele></ele><time>2017-9-19T3:49:41Z</time></trkpt>
<trkpt lat="48.449549" lon="2.659337"><ele></ele><time>2017-9-19T3:49:44Z</time></trkpt>
<trkpt lat="48.449644" lon="2.659263"><ele></ele><time>2017-9-19T3:49:47Z</time></trkpt>
<trkpt lat="48.449664" lon="2.659121"><ele></ele><time>2017-9-19T3:49:50Z</time></trkpt>
<trkpt lat="48.449752" lon="2.659019"><ele></ele><time>2017-9-19T3:49:53Z</time></trkpt>
<trkpt lat="48.449848" lon="2.65903"><ele></ele><time>2017-9-19T3:49:56Z</time></trkpt>
<trkpt lat="48.450065" lon="2.659053"><ele></ele><time>2017-9-19T3:49:59Z</time></trkpt>
<trkpt lat="48.450227" lon="2.65908"><ele></ele><time>2017-9-19T3:50:2Z</time></trkpt>
<trkpt lat="48.450336" lon="2.659127"><ele></ele><time>2017-9-19T3:50:5Z</time></trkpt>
<trkpt lat="48.450436" lon="2.659143"><ele></ele><time>2017-9-19T3:50:8Z</time></trkpt>
<trkpt lat="48.450608" lon="2.659163"><ele></ele><time>2017-9-19T3:50:11Z</time></trkpt>
<trkpt lat="48.450729" lon="2.659193"><ele></ele><time>2017-9-19T3:50:14Z</time></trkpt>
<trkpt lat="48.450846" lon="2.659215"><ele></ele><time>2017-9-19T3:50:17Z</time></trkpt>
<trkpt lat="48.45095" lon="2.659264"><ele></ele><time>2017-9-19T3:50:20Z</time></trkpt>
<trkpt lat="48.451037" lon="2.659314"><ele></ele><time>2017-9-19T3:50:23Z</time></trkpt>
<trkpt lat="48.451152" lon="2.659332"><ele></ele><time>2017-9-19T3:50:26Z</time></trkpt>
<trkpt lat="48.451282" lon="2.659401"><ele></ele><time>2017-9-19T3:50:29Z</time></trkpt>
<trkpt lat="48.451377" lon="2.659405"><ele></ele><time>2017-9-19T3:50:32Z</time></trkpt>
<trkpt lat="48.451491" lon="2.659392"><ele></ele><time>2017-9-19T3:50:35Z</time></trkpt>
<trkpt lat="48.451642" lon="2.659422"><ele></ele><time>2017-9-19T3:50:38Z</time></trkpt>
<trkpt lat="48.451757" lon="2.659443"><ele></ele><time>2017-9-19T3:50:41Z</time></trkpt>
<trkpt lat="48.451948" lon="2.65944"><ele></ele><time>2017-9-19T3:50:44Z</time></trkpt>
<trkpt lat="48.452072" lon="2.659447"><ele></ele><time>2017-9-19T3:50:47Z</time></trkpt>
<trkpt lat="48.452166" lon="2.659477"><ele></ele><time>2017-9-19T3:50:50Z</time></trkpt>
<trkpt lat="48.45237" lon="2.659487"><ele></ele><time>2017-9-19T3:50:53Z</time></trkpt>
<trkpt lat="48.452501" lon="2.659508"><ele></ele><time>2017-9-19T3:50:56Z</time></trkpt>
<trkpt lat="48.452621" lon="2.659513"><ele></ele><time>2017-9-19T3:50:59Z</time></trkpt>
<trkpt lat="48.452743" lon="2.659527"><ele></ele><time>2017-9-19T3:51:2Z</time></trkpt>
<trkpt lat="48.452845" lon="2.659541"><ele></ele><time>2017-9-19T3:51:5Z</time></trkpt>
<trkpt lat="48.452935" lon="2.659556"><ele></ele><time>2017-9-19T3:51:8Z</time></trkpt>
<trkpt lat="48.45303" lon="2.659575"><ele></ele><time>2017-9-19T3:51:11Z</time></trkpt>
<trkpt lat="48.453118" lon="2.659606"><ele></ele><time>2017-9-19T3:51:14Z</time></trkpt>
<trkpt lat="48.453233" lon="2.659627"><ele></ele><time>2017-9-19T3:51:17Z</time></trkpt>
<trkpt lat="48.453359" lon="2.659668"><ele></ele><time>2017-9-19T3:51:20Z</time></trkpt>
<trkpt lat="48.453469" lon="2.659684"><ele></ele><time>2017-9-19T3:51:23Z</time></trkpt>
<trkpt lat="48.453601" lon="2.659677"><ele></ele><time>2017-9-19T3:51:26Z</time></trkpt>
<trkpt lat="48.453697" lon="2.6597"><ele></ele><time>2017-9-19T3:51:29Z</time></trkpt>
<trkpt lat="48.453805" lon="2.659722"><ele></ele><time>2017-9-19T3:51:32Z</time></trkpt>
<trkpt lat="48.453939" lon="2.659768"><ele></ele><time>2017-9-19T3:51:35Z</time></trkpt>
<trkpt lat="48.454039" lon="2.659799"><ele></ele><time>2017-9-19T3:51:38Z</time></trkpt>
<trkpt lat="48.45417" lon="2.659812"><ele></ele><time>2017-9-19T3:51:41Z</time></trkpt>
<trkpt lat="48.45426" lon="2.659815"><ele></ele><time>2017-9-19T3:51:44Z</time></trkpt>
<trkpt lat="48.454375" lon="2.65983"><ele></ele><time>2017-9-19T3:51:47Z</time></trkpt>
<trkpt lat="48.454486" lon="2.659839"><ele></ele><time>2017-9-19T3:51:50Z</time></trkpt>
<trkpt lat="48.454583" lon="2.659872"><ele></ele><time>2017-9-19T3:51:53Z</time></trkpt>
<trkpt lat="48.454707" lon="2.659898"><ele></ele><time>2017-9-19T3:51:56Z</time></trkpt>
<trkpt lat="48.454797" lon="2.659903"><ele></ele><time>2017-9-19T3:51:59Z</time></trkpt>
<trkpt lat="48.45491" lon="2.659931"><ele></ele><time>2017-9-19T3:52:2Z</time></trkpt>
<trkpt lat="48.455018" lon="2.659942"><ele></ele><time>2017-9-19T3:52:5Z</time></trkpt>
<trkpt lat="48.455108" lon="2.659955"><ele></ele><time>2017-9-19T3:52:8Z</time></trkpt>
<trkpt lat="48.455225" lon="2.660008"><ele></ele><time>2017-9-19T3:52:11Z</time></trkpt>
<trkpt lat="48.455424" lon="2.660068"><ele></ele><time>2017-9-19T3:52:14Z</time></trkpt>
<trkpt lat="48.455514" lon="2.660091"><ele></ele><time>2017-9-19T3:52:17Z</time></trkpt>
<trkpt lat="48.455606" lon="2.660102"><ele></ele><time>2017-9-19T3:52:20Z</time></trkpt>
<trkpt lat="48.455747" lon="2.660115"><ele></ele><time>2017-9-19T3:52:23Z</time></trkpt>
<trkpt lat="48.455848" lon="2.660123"><ele></ele><time>2017-9-19T3:52:26Z</time></trkpt>
<trkpt lat="48.455961" lon="2.660128"><ele></ele><time>2017-9-19T3:52:29Z</time></trkpt>
<trkpt lat="48.456055" lon="2.660129"><ele></ele><time>2017-9-19T3:52:32Z</time></trkpt>
<trkpt lat="48.456156" lon="2.660101"><ele></ele><time>2017-9-19T3:52:35Z</time></trkpt>
<trkpt lat="48.456221" lon="2.659988"><ele></ele><time>2017-9-19T3:52:38Z</time></trkpt>
<trkpt lat="48.456268" lon="2.659836"><ele></ele><time>2017-9-19T3:52:41Z</time></trkpt>
<trkpt lat="48.456289" lon="2.659628"><ele></ele><time>2017-9-19T3:52:44Z</time></trkpt>
<trkpt lat="48.456298" lon="2.659438"><ele></ele><time>2017-9-19T3:52:47Z</time></trkpt>
<trkpt lat="48.456328" lon="2.659253"><ele></ele><time>2017-9-19T3:52:50Z</time></trkpt>
<trkpt lat="48.456367" lon="2.659081"><ele></ele><time>2017-9-19T3:52:53Z</time></trkpt>
<trkpt lat="48.456381" lon="2.65894"><ele></ele><time>2017-9-19T3:52:56Z</time></trkpt>
<trkpt lat="48.456464" lon="2.658728"><ele></ele><time>2017-9-19T3:52:59Z</time></trkpt>
<trkpt lat="48.456525" lon="2.658549"><ele></ele><time>2017-9-19T3:53:2Z</time></trkpt>
<trkpt lat="48.456593" lon="2.658379"><ele></ele><time>2017-9-19T3:53:5Z</time></trkpt>
<trkpt lat="48.456663" lon="2.658233"><ele></ele><time>2017-9-19T3:53:8Z</time></trkpt>
<trkpt lat="48.456748" lon="2.658081"><ele></ele><time>2017-9-19T3:53:11Z</time></trkpt>
<trkpt lat="48.456823" lon="2.657958"><ele></ele><time>2017-9-19T3:53:14Z</time></trkpt>
<trkpt lat="48.456914" lon="2.657861"><ele></ele><time>2017-9-19T3:53:17Z</time></trkpt>
<trkpt lat="48.457" lon="2.657801"><ele></ele><time>2017-9-19T3:53:20Z</time></trkpt>
<trkpt lat="48.457089" lon="2.657766"><ele></ele><time>2017-9-19T3:53:23Z</time></trkpt>
<trkpt lat="48.457184" lon="2.657726"><ele></ele><time>2017-9-19T3:53:26Z</time></trkpt>
<trkpt lat="48.45727" lon="2.657682"><ele></ele><time>2017-9-19T3:53:29Z</time></trkpt>
<trkpt lat="48.45739" lon="2.657637"><ele></ele><time>2017-9-19T3:53:32Z</time></trkpt>
<trkpt lat="48.457587" lon="2.657853"><ele></ele><time>2017-9-19T3:53:35Z</time></trkpt>
<trkpt lat="48.457635" lon="2.657995"><ele></ele><time>2017-9-19T3:53:38Z</time></trkpt>
<trkpt lat="48.457718" lon="2.658089"><ele></ele><time>2017-9-19T3:53:41Z</time></trkpt>
<trkpt lat="48.457829" lon="2.65816"><ele></ele><time>2017-9-19T3:53:44Z</time></trkpt>
<trkpt lat="48.457919" lon="2.658259"><ele></ele><time>2017-9-19T3:53:47Z</time></trkpt>
<trkpt lat="48.458021" lon="2.658421"><ele></ele><time>2017-9-19T3:53:50Z</time></trkpt>
<trkpt lat="48.458111" lon="2.658618"><ele></ele><time>2017-9-19T3:53:53Z</time></trkpt>
<trkpt lat="48.458196" lon="2.65879"><ele></ele><time>2017-9-19T3:53:56Z</time></trkpt>
<trkpt lat="48.458269" lon="2.658937"><ele></ele><time>2017-9-19T3:53:59Z</time></trkpt>
<trkpt lat="48.458345" lon="2.659042"><ele></ele><time>2017-9-19T3:54:2Z</time></trkpt>
<trkpt lat="48.458412" lon="2.659169"><ele></ele><time>2017-9-19T3:54:5Z</time></trkpt>
<trkpt lat="48.458447" lon="2.659325"><ele></ele><time>2017-9-19T3:54:8Z</time></trkpt>
<trkpt lat="48.458483" lon="2.659474"><ele></ele><time>2017-9-19T3:54:11Z</time></trkpt>
<trkpt lat="48.458477" lon="2.65969"><ele></ele><time>2017-9-19T3:54:14Z</time></trkpt>
<trkpt lat="48.458461" lon="2.659865"><ele></ele><time>2017-9-19T3:54:17Z</time></trkpt>
<trkpt lat="48.458479" lon="2.660018"><ele></ele><time>2017-9-19T3:54:20Z</time></trkpt>
<trkpt lat="48.458498" lon="2.66015"><ele></ele><time>2017-9-19T3:54:23Z</time></trkpt>
<trkpt lat="48.458515" lon="2.660324"><ele></ele><time>2017-9-19T3:54:26Z</time></trkpt>
<trkpt lat="48.458569" lon="2.660506"><ele></ele><time>2017-9-19T3:54:29Z</time></trkpt>
<trkpt lat="48.458643" lon="2.660675"><ele></ele><time>2017-9-19T3:54:32Z</time></trkpt>
<trkpt lat="48.458719" lon="2.660803"><ele></ele><time>2017-9-19T3:54:35Z</time></trkpt>
<trkpt lat="48.458847" lon="2.660916"><ele></ele><time>2017-9-19T3:54:38Z</time></trkpt>
<trkpt lat="48.458927" lon="2.661001"><ele></ele><time>2017-9-19T3:54:41Z</time></trkpt>
<trkpt lat="48.459112" lon="2.661111"><ele></ele><time>2017-9-19T3:54:44Z</time></trkpt>
<trkpt lat="48.459214" lon="2.661181"><ele></ele><time>2017-9-19T3:54:47Z</time></trkpt>
<trkpt lat="48.459319" lon="2.66125"><ele></ele><time>2017-9-19T3:54:50Z</time></trkpt>
<trkpt lat="48.459524" lon="2.661393"><ele></ele><time>2017-9-19T3:54:53Z</time></trkpt>
<trkpt lat="48.45964" lon="2.661399"><ele></ele><time>2017-9-19T3:54:56Z</time></trkpt>
<trkpt lat="48.459729" lon="2.661433"><ele></ele><time>2017-9-19T3:54:59Z</time></trkpt>
<trkpt lat="48.459827" lon="2.661456"><ele></ele><time>2017-9-19T3:55:2Z</time></trkpt>
<trkpt lat="48.459941" lon="2.661434"><ele></ele><time>2017-9-19T3:55:5Z</time></trkpt>
<trkpt lat="48.460052" lon="2.661375"><ele></ele><time>2017-9-19T3:55:8Z</time></trkpt>
<trkpt lat="48.460152" lon="2.66133"><ele></ele><time>2017-9-19T3:55:11Z</time></trkpt>
<trkpt lat="48.460267" lon="2.661284"><ele></ele><time>2017-9-19T3:55:14Z</time></trkpt>
<trkpt lat="48.460389" lon="2.661184"><ele></ele><time>2017-9-19T3:55:17Z</time></trkpt>
<trkpt lat="48.460471" lon="2.66102"><ele></ele><time>2017-9-19T3:55:20Z</time></trkpt>
<trkpt lat="48.460548" lon="2.660899"><ele></ele><time>2017-9-19T3:55:23Z</time></trkpt>
<trkpt lat="48.460643" lon="2.660805"><ele></ele><time>2017-9-19T3:55:26Z</time></trkpt>
<trkpt lat="48.460734" lon="2.66067"><ele></ele><time>2017-9-19T3:55:29Z</time></trkpt>
<trkpt lat="48.46083" lon="2.660577"><ele></ele><time>2017-9-19T3:55:32Z</time></trkpt>
<trkpt lat="48.460922" lon="2.660505"><ele></ele><time>2017-9-19T3:55:35Z</time></trkpt>
<trkpt lat="48.461024" lon="2.660459"><ele></ele><time>2017-9-19T3:55:38Z</time></trkpt>
<trkpt lat="48.461148" lon="2.660491"><ele></ele><time>2017-9-19T3:55:41Z</time></trkpt>
<trkpt lat="48.461275" lon="2.660512"><ele></ele><time>2017-9-19T3:55:44Z</time></trkpt>
<trkpt lat="48.461376" lon="2.66054"><ele></ele><time>2017-9-19T3:55:47Z</time></trkpt>
<trkpt lat="48.461501" lon="2.660553"><ele></ele><time>2017-9-19T3:55:50Z</time></trkpt>
<trkpt lat="48.461709" lon="2.660489"><ele></ele><time>2017-9-19T3:55:53Z</time></trkpt>
<trkpt lat="48.461825" lon="2.660465"><ele></ele><time>2017-9-19T3:55:56Z</time></trkpt>
<trkpt lat="48.46193" lon="2.660437"><ele></ele><time>2017-9-19T3:55:59Z</time></trkpt>
<trkpt lat="48.462058" lon="2.660398"><ele></ele><time>2017-9-19T3:56:2Z</time></trkpt>
<trkpt lat="48.462164" lon="2.660324"><ele></ele><time>2017-9-19T3:56:5Z</time></trkpt>
<trkpt lat="48.462249" lon="2.660249"><ele></ele><time>2017-9-19T3:56:8Z</time></trkpt>
<trkpt lat="48.462389" lon="2.660143"><ele></ele><time>2017-9-19T3:56:11Z</time></trkpt>
<trkpt lat="48.462488" lon="2.660081"><ele></ele><time>2017-9-19T3:56:14Z</time></trkpt>
<trkpt lat="48.462583" lon="2.659998"><ele></ele><time>2017-9-19T3:56:17Z</time></trkpt>
<trkpt lat="48.462692" lon="2.659941"><ele></ele><time>2017-9-19T3:56:20Z</time></trkpt>
<trkpt lat="48.462788" lon="2.65988"><ele></ele><time>2017-9-19T3:56:23Z</time></trkpt>
<trkpt lat="48.462881" lon="2.659817"><ele></ele><time>2017-9-19T3:56:26Z</time></trkpt>
<trkpt lat="48.46298" lon="2.659736"><ele></ele><time>2017-9-19T3:56:29Z</time></trkpt>
<trkpt lat="48.463085" lon="2.659648"><ele></ele><time>2017-9-19T3:56:32Z</time></trkpt>
<trkpt lat="48.463192" lon="2.659543"><ele></ele><time>2017-9-19T3:56:35Z</time></trkpt>
<trkpt lat="48.46331" lon="2.65945"><ele></ele><time>2017-9-19T3:56:38Z</time></trkpt>
<trkpt lat="48.463395" lon="2.659392"><ele></ele><time>2017-9-19T3:56:41Z</time></trkpt>
<trkpt lat="48.463491" lon="2.659312"><ele></ele><time>2017-9-19T3:56:44Z</time></trkpt>
<trkpt lat="48.463584" lon="2.659239"><ele></ele><time>2017-9-19T3:56:47Z</time></trkpt>
<trkpt lat="48.463671" lon="2.659172"><ele></ele><time>2017-9-19T3:56:50Z</time></trkpt>
<trkpt lat="48.463767" lon="2.659103"><ele></ele><time>2017-9-19T3:56:53Z</time></trkpt>
<trkpt lat="48.463836" lon="2.659009"><ele></ele><time>2017-9-19T3:56:56Z</time></trkpt>
<trkpt lat="48.463953" lon="2.65892"><ele></ele><time>2017-9-19T3:56:59Z</time></trkpt>
<trkpt lat="48.464042" lon="2.658862"><ele></ele><time>2017-9-19T3:57:2Z</time></trkpt>
<trkpt lat="48.464128" lon="2.658781"><ele></ele><time>2017-9-19T3:57:5Z</time></trkpt>
<trkpt lat="48.464231" lon="2.658717"><ele></ele><time>2017-9-19T3:57:8Z</time></trkpt>
<trkpt lat="48.464306" lon="2.658636"><ele></ele><time>2017-9-19T3:57:11Z</time></trkpt>
<trkpt lat="48.4645" lon="2.658507"><ele></ele><time>2017-9-19T3:57:14Z</time></trkpt>
<trkpt lat="48.464612" lon="2.658496"><ele></ele><time>2017-9-19T3:57:17Z</time></trkpt>
<trkpt lat="48.464703" lon="2.658508"><ele></ele><time>2017-9-19T3:57:20Z</time></trkpt>
<trkpt lat="48.46482" lon="2.658512"><ele></ele><time>2017-9-19T3:57:23Z</time></trkpt>
<trkpt lat="48.46494" lon="2.658484"><ele></ele><time>2017-9-19T3:57:26Z</time></trkpt>
<trkpt lat="48.465055" lon="2.658491"><ele></ele><time>2017-9-19T3:57:29Z</time></trkpt>
<trkpt lat="48.465148" lon="2.658494"><ele></ele><time>2017-9-19T3:57:32Z</time></trkpt>
<trkpt lat="48.465244" lon="2.658458"><ele></ele><time>2017-9-19T3:57:35Z</time></trkpt>
<trkpt lat="48.465373" lon="2.658458"><ele></ele><time>2017-9-19T3:57:38Z</time></trkpt>
<trkpt lat="48.465468" lon="2.658476"><ele></ele><time>2017-9-19T3:57:41Z</time></trkpt>
<trkpt lat="48.465583" lon="2.658517"><ele></ele><time>2017-9-19T3:57:44Z</time></trkpt>
<trkpt lat="48.46569" lon="2.658531"><ele></ele><time>2017-9-19T3:57:47Z</time></trkpt>
<trkpt lat="48.465796" lon="2.658455"><ele></ele><time>2017-9-19T3:57:50Z</time></trkpt>
<trkpt lat="48.465896" lon="2.658405"><ele></ele><time>2017-9-19T3:57:53Z</time></trkpt>
<trkpt lat="48.466017" lon="2.65837"><ele></ele><time>2017-9-19T3:57:56Z</time></trkpt>
<trkpt lat="48.466125" lon="2.658413"><ele></ele><time>2017-9-19T3:57:59Z</time></trkpt>
<trkpt lat="48.466217" lon="2.658442"><ele></ele><time>2017-9-19T3:58:2Z</time></trkpt>
<trkpt lat="48.466325" lon="2.658448"><ele></ele><time>2017-9-19T3:58:5Z</time></trkpt>
<trkpt lat="48.466428" lon="2.658459"><ele></ele><time>2017-9-19T3:58:8Z</time></trkpt>
<trkpt lat="48.466549" lon="2.658487"><ele></ele><time>2017-9-19T3:58:11Z</time></trkpt>
<trkpt lat="48.466651" lon="2.658483"><ele></ele><time>2017-9-19T3:58:14Z</time></trkpt>
<trkpt lat="48.466756" lon="2.658479"><ele></ele><time>2017-9-19T3:58:17Z</time></trkpt>
<trkpt lat="48.466864" lon="2.658496"><ele></ele><time>2017-9-19T3:58:20Z</time></trkpt>
<trkpt lat="48.466961" lon="2.658525"><ele></ele><time>2017-9-19T3:58:23Z</time></trkpt>
<trkpt lat="48.467097" lon="2.658541"><ele></ele><time>2017-9-19T3:58:26Z</time></trkpt>
<trkpt lat="48.467376" lon="2.658554"><ele></ele><time>2017-9-19T3:58:29Z</time></trkpt>
<trkpt lat="48.467479" lon="2.658533"><ele></ele><time>2017-9-19T3:58:32Z</time></trkpt>
<trkpt lat="48.467583" lon="2.658541"><ele></ele><time>2017-9-19T3:58:35Z</time></trkpt>
<trkpt lat="48.467699" lon="2.658522"><ele></ele><time>2017-9-19T3:58:38Z</time></trkpt>
<trkpt lat="48.467795" lon="2.658534"><ele></ele><time>2017-9-19T3:58:41Z</time></trkpt>
<trkpt lat="48.467892" lon="2.658543"><ele></ele><time>2017-9-19T3:58:44Z</time></trkpt>
<trkpt lat="48.467993" lon="2.658523"><ele></ele><time>2017-9-19T3:58:47Z</time></trkpt>
<trkpt lat="48.46809" lon="2.658573"><ele></ele><time>2017-9-19T3:58:50Z</time></trkpt>
<trkpt lat="48.468192" lon="2.658599"><ele></ele><time>2017-9-19T3:58:53Z</time></trkpt>
<trkpt lat="48.468302" lon="2.658632"><ele></ele><time>2017-9-19T3:58:56Z</time></trkpt>
<trkpt lat="48.468404" lon="2.658646"><ele></ele><time>2017-9-19T3:58:59Z</time></trkpt>
<trkpt lat="48.468502" lon="2.658647"><ele></ele><time>2017-9-19T3:59:2Z</time></trkpt>
<trkpt lat="48.468593" lon="2.658675"><ele></ele><time>2017-9-19T3:59:5Z</time></trkpt>
<trkpt lat="48.468694" lon="2.658724"><ele></ele><time>2017-9-19T3:59:8Z</time></trkpt>
<trkpt lat="48.468853" lon="2.658705"><ele></ele><time>2017-9-19T3:59:11Z</time></trkpt>
<trkpt lat="48.468962" lon="2.658701"><ele></ele><time>2017-9-19T3:59:14Z</time></trkpt>
<trkpt lat="48.469088" lon="2.658739"><ele></ele><time>2017-9-19T3:59:17Z</time></trkpt>
<trkpt lat="48.469227" lon="2.658735"><ele></ele><time>2017-9-19T3:59:20Z</time></trkpt>
<trkpt lat="48.469327" lon="2.658742"><ele></ele><time>2017-9-19T3:59:23Z</time></trkpt>
<trkpt lat="48.469421" lon="2.658761"><ele></ele><time>2017-9-19T3:59:26Z</time></trkpt>
<trkpt lat="48.469522" lon="2.658769"><ele></ele><time>2017-9-19T3:59:29Z</time></trkpt>
<trkpt lat="48.469767" lon="2.658756"><ele></ele><time>2017-9-19T3:59:32Z</time></trkpt>
<trkpt lat="48.469866" lon="2.658761"><ele></ele><time>2017-9-19T3:59:35Z</time></trkpt>
<trkpt lat="48.470025" lon="2.65877"><ele></ele><time>2017-9-19T3:59:38Z</time></trkpt>
<trkpt lat="48.470116" lon="2.658781"><ele></ele><time>2017-9-19T3:59:41Z</time></trkpt>
<trkpt lat="48.470235" lon="2.658795"><ele></ele><time>2017-9-19T3:59:44Z</time></trkpt>
<trkpt lat="48.470364" lon="2.658824"><ele></ele><time>2017-9-19T3:59:47Z</time></trkpt>
<trkpt lat="48.470482" lon="2.658851"><ele></ele><time>2017-9-19T3:59:50Z</time></trkpt>
<trkpt lat="48.470605" lon="2.658892"><ele></ele><time>2017-9-19T3:59:53Z</time></trkpt>
<trkpt lat="48.47076" lon="2.658915"><ele></ele><time>2017-9-19T3:59:56Z</time></trkpt>
<trkpt lat="48.470898" lon="2.658916"><ele></ele><time>2017-9-19T3:59:59Z</time></trkpt>
<trkpt lat="48.471002" lon="2.65889"><ele></ele><time>2017-9-19T4:0:2Z</time></trkpt>
<trkpt lat="48.47112" lon="2.658834"><ele></ele><time>2017-9-19T4:0:5Z</time></trkpt>
<trkpt lat="48.471234" lon="2.658721"><ele></ele><time>2017-9-19T4:0:8Z</time></trkpt>
<trkpt lat="48.47132" lon="2.658654"><ele></ele><time>2017-9-19T4:0:11Z</time></trkpt>
<trkpt lat="48.47141" lon="2.658597"><ele></ele><time>2017-9-19T4:0:14Z</time></trkpt>
<trkpt lat="48.471545" lon="2.658495"><ele></ele><time>2017-9-19T4:0:17Z</time></trkpt>
<trkpt lat="48.471668" lon="2.6584"><ele></ele><time>2017-9-19T4:0:20Z</time></trkpt>
<trkpt lat="48.471752" lon="2.658325"><ele></ele><time>2017-9-19T4:0:23Z</time></trkpt>
<trkpt lat="48.471844" lon="2.658238"><ele></ele><time>2017-9-19T4:0:26Z</time></trkpt>
<trkpt lat="48.471964" lon="2.658124"><ele></ele><time>2017-9-19T4:0:29Z</time></trkpt>
<trkpt lat="48.472044" lon="2.658033"><ele></ele><time>2017-9-19T4:0:32Z</time></trkpt>
<trkpt lat="48.472176" lon="2.657928"><ele></ele><time>2017-9-19T4:0:35Z</time></trkpt>
<trkpt lat="48.472293" lon="2.657827"><ele></ele><time>2017-9-19T4:0:38Z</time></trkpt>
<trkpt lat="48.472463" lon="2.657679"><ele></ele><time>2017-9-19T4:0:41Z</time></trkpt>
<trkpt lat="48.47257" lon="2.657589"><ele></ele><time>2017-9-19T4:0:44Z</time></trkpt>
<trkpt lat="48.472687" lon="2.657489"><ele></ele><time>2017-9-19T4:0:47Z</time></trkpt>
<trkpt lat="48.472783" lon="2.657403"><ele></ele><time>2017-9-19T4:0:50Z</time></trkpt>
<trkpt lat="48.472886" lon="2.657328"><ele></ele><time>2017-9-19T4:0:53Z</time></trkpt>
<trkpt lat="48.472963" lon="2.657254"><ele></ele><time>2017-9-19T4:0:56Z</time></trkpt>
<trkpt lat="48.47306" lon="2.657197"><ele></ele><time>2017-9-19T4:0:59Z</time></trkpt>
<trkpt lat="48.473178" lon="2.657108"><ele></ele><time>2017-9-19T4:1:2Z</time></trkpt>
<trkpt lat="48.473263" lon="2.657025"><ele></ele><time>2017-9-19T4:1:5Z</time></trkpt>
<trkpt lat="48.473361" lon="2.656973"><ele></ele><time>2017-9-19T4:1:8Z</time></trkpt>
<trkpt lat="48.473463" lon="2.656879"><ele></ele><time>2017-9-19T4:1:11Z</time></trkpt>
<trkpt lat="48.473596" lon="2.656798"><ele></ele><time>2017-9-19T4:1:14Z</time></trkpt>
<trkpt lat="48.473701" lon="2.6567"><ele></ele><time>2017-9-19T4:1:17Z</time></trkpt>
<trkpt lat="48.473782" lon="2.656633"><ele></ele><time>2017-9-19T4:1:20Z</time></trkpt>
<trkpt lat="48.473899" lon="2.656537"><ele></ele><time>2017-9-19T4:1:23Z</time></trkpt>
<trkpt lat="48.473994" lon="2.65645"><ele></ele><time>2017-9-19T4:1:26Z</time></trkpt>
<trkpt lat="48.474077" lon="2.656385"><ele></ele><time>2017-9-19T4:1:29Z</time></trkpt>
<trkpt lat="48.474169" lon="2.656292"><ele></ele><time>2017-9-19T4:1:32Z</time></trkpt>
<trkpt lat="48.47425" lon="2.65623"><ele></ele><time>2017-9-19T4:1:35Z</time></trkpt>
<trkpt lat="48.474345" lon="2.656163"><ele></ele><time>2017-9-19T4:1:38Z</time></trkpt>
<trkpt lat="48.474436" lon="2.656085"><ele></ele><time>2017-9-19T4:1:41Z</time></trkpt>
<trkpt lat="48.474561" lon="2.655967"><ele></ele><time>2017-9-19T4:1:44Z</time></trkpt>
<trkpt lat="48.474634" lon="2.655887"><ele></ele><time>2017-9-19T4:1:47Z</time></trkpt>
<trkpt lat="48.474711" lon="2.655812"><ele></ele><time>2017-9-19T4:1:50Z</time></trkpt>
<trkpt lat="48.474798" lon="2.655749"><ele></ele><time>2017-9-19T4:1:53Z</time></trkpt>
<trkpt lat="48.47491" lon="2.655637"><ele></ele><time>2017-9-19T4:1:56Z</time></trkpt>
<trkpt lat="48.47512" lon="2.655427"><ele></ele><time>2017-9-19T4:1:59Z</time></trkpt>
<trkpt lat="48.475207" lon="2.655362"><ele></ele><time>2017-9-19T4:2:2Z</time></trkpt>
<trkpt lat="48.475298" lon="2.655311"><ele></ele><time>2017-9-19T4:2:5Z</time></trkpt>
<trkpt lat="48.47541" lon="2.655205"><ele></ele><time>2017-9-19T4:2:8Z</time></trkpt>
<trkpt lat="48.475496" lon="2.655134"><ele></ele><time>2017-9-19T4:2:11Z</time></trkpt>
<trkpt lat="48.475596" lon="2.655035"><ele></ele><time>2017-9-19T4:2:14Z</time></trkpt>
<trkpt lat="48.475718" lon="2.654941"><ele></ele><time>2017-9-19T4:2:17Z</time></trkpt>
<trkpt lat="48.475812" lon="2.654876"><ele></ele><time>2017-9-19T4:2:20Z</time></trkpt>
<trkpt lat="48.475924" lon="2.6548"><ele></ele><time>2017-9-19T4:2:23Z</time></trkpt>
<trkpt lat="48.476007" lon="2.654709"><ele></ele><time>2017-9-19T4:2:26Z</time></trkpt>
<trkpt lat="48.476096" lon="2.654611"><ele></ele><time>2017-9-19T4:2:29Z</time></trkpt>
<trkpt lat="48.476174" lon="2.654521"><ele></ele><time>2017-9-19T4:2:32Z</time></trkpt>
<trkpt lat="48.476265" lon="2.654465"><ele></ele><time>2017-9-19T4:2:35Z</time></trkpt>
<trkpt lat="48.476367" lon="2.654367"><ele></ele><time>2017-9-19T4:2:38Z</time></trkpt>
<trkpt lat="48.476458" lon="2.654311"><ele></ele><time>2017-9-19T4:2:41Z</time></trkpt>
<trkpt lat="48.476553" lon="2.65424"><ele></ele><time>2017-9-19T4:2:44Z</time></trkpt>
<trkpt lat="48.476659" lon="2.654133"><ele></ele><time>2017-9-19T4:2:47Z</time></trkpt>
<trkpt lat="48.476777" lon="2.654049"><ele></ele><time>2017-9-19T4:2:50Z</time></trkpt>
<trkpt lat="48.476887" lon="2.653934"><ele></ele><time>2017-9-19T4:2:53Z</time></trkpt>
<trkpt lat="48.477017" lon="2.653801"><ele></ele><time>2017-9-19T4:2:56Z</time></trkpt>
<trkpt lat="48.477127" lon="2.653717"><ele></ele><time>2017-9-19T4:2:59Z</time></trkpt>
<trkpt lat="48.477231" lon="2.653637"><ele></ele><time>2017-9-19T4:3:2Z</time></trkpt>
<trkpt lat="48.47735" lon="2.653532"><ele></ele><time>2017-9-19T4:3:5Z</time></trkpt>
<trkpt lat="48.477548" lon="2.653376"><ele></ele><time>2017-9-19T4:3:8Z</time></trkpt>
<trkpt lat="48.477639" lon="2.653284"><ele></ele><time>2017-9-19T4:3:11Z</time></trkpt>
<trkpt lat="48.477719" lon="2.653219"><ele></ele><time>2017-9-19T4:3:14Z</time></trkpt>
<trkpt lat="48.477832" lon="2.653141"><ele></ele><time>2017-9-19T4:3:17Z</time></trkpt>
<trkpt lat="48.477958" lon="2.653041"><ele></ele><time>2017-9-19T4:3:20Z</time></trkpt>
<trkpt lat="48.478049" lon="2.652966"><ele></ele><time>2017-9-19T4:3:23Z</time></trkpt>
<trkpt lat="48.478163" lon="2.652846"><ele></ele><time>2017-9-19T4:3:26Z</time></trkpt>
<trkpt lat="48.478248" lon="2.652781"><ele></ele><time>2017-9-19T4:3:29Z</time></trkpt>
<trkpt lat="48.478341" lon="2.652699"><ele></ele><time>2017-9-19T4:3:32Z</time></trkpt>
<trkpt lat="48.478449" lon="2.652656"><ele></ele><time>2017-9-19T4:3:35Z</time></trkpt>
<trkpt lat="48.478538" lon="2.652547"><ele></ele><time>2017-9-19T4:3:38Z</time></trkpt>
<trkpt lat="48.478613" lon="2.6524"><ele></ele><time>2017-9-19T4:3:41Z</time></trkpt>
<trkpt lat="48.478702" lon="2.652306"><ele></ele><time>2017-9-19T4:3:44Z</time></trkpt>
<trkpt lat="48.478823" lon="2.652263"><ele></ele><time>2017-9-19T4:3:47Z</time></trkpt>
<trkpt lat="48.478924" lon="2.652198"><ele></ele><time>2017-9-19T4:3:50Z</time></trkpt>
<trkpt lat="48.479027" lon="2.652132"><ele></ele><time>2017-9-19T4:3:53Z</time></trkpt>
<trkpt lat="48.479115" lon="2.652083"><ele></ele><time>2017-9-19T4:3:56Z</time></trkpt>
<trkpt lat="48.479191" lon="2.651992"><ele></ele><time>2017-9-19T4:3:59Z</time></trkpt>
<trkpt lat="48.479276" lon="2.651939"><ele></ele><time>2017-9-19T4:4:2Z</time></trkpt>
<trkpt lat="48.479359" lon="2.651873"><ele></ele><time>2017-9-19T4:4:5Z</time></trkpt>
<trkpt lat="48.479456" lon="2.651793"><ele></ele><time>2017-9-19T4:4:8Z</time></trkpt>
<trkpt lat="48.47962" lon="2.651612"><ele></ele><time>2017-9-19T4:4:11Z</time></trkpt>
<trkpt lat="48.479715" lon="2.651531"><ele></ele><time>2017-9-19T4:4:14Z</time></trkpt>
<trkpt lat="48.479817" lon="2.651459"><ele></ele><time>2017-9-19T4:4:17Z</time></trkpt>
<trkpt lat="48.479913" lon="2.65137"><ele></ele><time>2017-9-19T4:4:20Z</time></trkpt>
<trkpt lat="48.479999" lon="2.651282"><ele></ele><time>2017-9-19T4:4:23Z</time></trkpt>
<trkpt lat="48.480096" lon="2.651183"><ele></ele><time>2017-9-19T4:4:26Z</time></trkpt>
<trkpt lat="48.480213" lon="2.651098"><ele></ele><time>2017-9-19T4:4:29Z</time></trkpt>
<trkpt lat="48.480296" lon="2.651031"><ele></ele><time>2017-9-19T4:4:32Z</time></trkpt>
<trkpt lat="48.480396" lon="2.65093"><ele></ele><time>2017-9-19T4:4:35Z</time></trkpt>
<trkpt lat="48.480497" lon="2.650866"><ele></ele><time>2017-9-19T4:4:38Z</time></trkpt>
<trkpt lat="48.480601" lon="2.65077"><ele></ele><time>2017-9-19T4:4:41Z</time></trkpt>
<trkpt lat="48.480694" lon="2.650684"><ele></ele><time>2017-9-19T4:4:44Z</time></trkpt>
<trkpt lat="48.480791" lon="2.650613"><ele></ele><time>2017-9-19T4:4:47Z</time></trkpt>
<trkpt lat="48.480895" lon="2.650543"><ele></ele><time>2017-9-19T4:4:50Z</time></trkpt>
<trkpt lat="48.480981" lon="2.650442"><ele></ele><time>2017-9-19T4:4:53Z</time></trkpt>
<trkpt lat="48.481081" lon="2.65035"><ele></ele><time>2017-9-19T4:4:56Z</time></trkpt>
<trkpt lat="48.481166" lon="2.6503"><ele></ele><time>2017-9-19T4:4:59Z</time></trkpt>
<trkpt lat="48.481263" lon="2.650195"><ele></ele><time>2017-9-19T4:5:2Z</time></trkpt>
<trkpt lat="48.481432" lon="2.650068"><ele></ele><time>2017-9-19T4:5:5Z</time></trkpt>
<trkpt lat="48.481508" lon="2.649988"><ele></ele><time>2017-9-19T4:5:8Z</time></trkpt>
<trkpt lat="48.481588" lon="2.649919"><ele></ele><time>2017-9-19T4:5:11Z</time></trkpt>
<trkpt lat="48.481696" lon="2.649845"><ele></ele><time>2017-9-19T4:5:14Z</time></trkpt>
<trkpt lat="48.48178" lon="2.649779"><ele></ele><time>2017-9-19T4:5:17Z</time></trkpt>
<trkpt lat="48.481866" lon="2.649701"><ele></ele><time>2017-9-19T4:5:20Z</time></trkpt>
<trkpt lat="48.481943" lon="2.649619"><ele></ele><time>2017-9-19T4:5:23Z</time></trkpt>
<trkpt lat="48.482042" lon="2.649548"><ele></ele><time>2017-9-19T4:5:26Z</time></trkpt>
<trkpt lat="48.482131" lon="2.649487"><ele></ele><time>2017-9-19T4:5:29Z</time></trkpt>
<trkpt lat="48.48222" lon="2.649407"><ele></ele><time>2017-9-19T4:5:32Z</time></trkpt>
<trkpt lat="48.482313" lon="2.649338"><ele></ele><time>2017-9-19T4:5:35Z</time></trkpt>
<trkpt lat="48.482401" lon="2.649285"><ele></ele><time>2017-9-19T4:5:38Z</time></trkpt>
<trkpt lat="48.482489" lon="2.649188"><ele></ele><time>2017-9-19T4:5:41Z</time></trkpt>
<trkpt lat="48.482576" lon="2.649103"><ele></ele><time>2017-9-19T4:5:44Z</time></trkpt>
<trkpt lat="48.482662" lon="2.649031"><ele></ele><time>2017-9-19T4:5:47Z</time></trkpt>
<trkpt lat="48.482832" lon="2.648878"><ele></ele><time>2017-9-19T4:5:50Z</time></trkpt>
<trkpt lat="48.482922" lon="2.648781"><ele></ele><time>2017-9-19T4:5:53Z</time></trkpt>
<trkpt lat="48.483009" lon="2.648682"><ele></ele><time>2017-9-19T4:5:56Z</time></trkpt>
<trkpt lat="48.483113" lon="2.648628"><ele></ele><time>2017-9-19T4:5:59Z</time></trkpt>
<trkpt lat="48.483196" lon="2.648545"><ele></ele><time>2017-9-19T4:6:2Z</time></trkpt>
<trkpt lat="48.483291" lon="2.648466"><ele></ele><time>2017-9-19T4:6:5Z</time></trkpt>
<trkpt lat="48.483385" lon="2.648392"><ele></ele><time>2017-9-19T4:6:8Z</time></trkpt>
<trkpt lat="48.483479" lon="2.64833"><ele></ele><time>2017-9-19T4:6:11Z</time></trkpt>
<trkpt lat="48.483594" lon="2.648253"><ele></ele><time>2017-9-19T4:6:14Z</time></trkpt>
<trkpt lat="48.4837" lon="2.648154"><ele></ele><time>2017-9-19T4:6:17Z</time></trkpt>
<trkpt lat="48.483809" lon="2.648053"><ele></ele><time>2017-9-19T4:6:20Z</time></trkpt>
<trkpt lat="48.483921" lon="2.647961"><ele></ele><time>2017-9-19T4:6:23Z</time></trkpt>
<trkpt lat="48.484037" lon="2.64787"><ele></ele><time>2017-9-19T4:6:26Z</time></trkpt>
<trkpt lat="48.484149" lon="2.647759"><ele></ele><time>2017-9-19T4:6:29Z</time></trkpt>
<trkpt lat="48.484255" lon="2.647666"><ele></ele><time>2017-9-19T4:6:32Z</time></trkpt>
<trkpt lat="48.484331" lon="2.647593"><ele></ele><time>2017-9-19T4:6:35Z</time></trkpt>
<trkpt lat="48.484408" lon="2.647515"><ele></ele><time>2017-9-19T4:6:38Z</time></trkpt>
<trkpt lat="48.484498" lon="2.647445"><ele></ele><time>2017-9-19T4:6:41Z</time></trkpt>
<trkpt lat="48.484583" lon="2.647382"><ele></ele><time>2017-9-19T4:6:44Z</time></trkpt>
<trkpt lat="48.48467" lon="2.64731"><ele></ele><time>2017-9-19T4:6:47Z</time></trkpt>
<trkpt lat="48.484754" lon="2.647239"><ele></ele><time>2017-9-19T4:6:50Z</time></trkpt>
<trkpt lat="48.484835" lon="2.647176"><ele></ele><time>2017-9-19T4:6:53Z</time></trkpt>
<trkpt lat="48.484998" lon="2.647038"><ele></ele><time>2017-9-19T4:6:56Z</time></trkpt>
<trkpt lat="48.485076" lon="2.646968"><ele></ele><time>2017-9-19T4:6:59Z</time></trkpt>
<trkpt lat="48.485182" lon="2.646875"><ele></ele><time>2017-9-19T4:7:2Z</time></trkpt>
<trkpt lat="48.485285" lon="2.646778"><ele></ele><time>2017-9-19T4:7:5Z</time></trkpt>
<trkpt lat="48.485393" lon="2.646674"><ele></ele><time>2017-9-19T4:7:8Z</time></trkpt>
<trkpt lat="48.485505" lon="2.646577"><ele></ele><time>2017-9-19T4:7:11Z</time></trkpt>
<trkpt lat="48.485619" lon="2.646486"><ele></ele><time>2017-9-19T4:7:14Z</time></trkpt>
<trkpt lat="48.485733" lon="2.646405"><ele></ele><time>2017-9-19T4:7:17Z</time></trkpt>
<trkpt lat="48.485857" lon="2.646328"><ele></ele><time>2017-9-19T4:7:20Z</time></trkpt>
<trkpt lat="48.485992" lon="2.646202"><ele></ele><time>2017-9-19T4:7:23Z</time></trkpt>
<trkpt lat="48.486101" lon="2.646095"><ele></ele><time>2017-9-19T4:7:26Z</time></trkpt>
<trkpt lat="48.486223" lon="2.645969"><ele></ele><time>2017-9-19T4:7:29Z</time></trkpt>
<trkpt lat="48.486361" lon="2.645859"><ele></ele><time>2017-9-19T4:7:32Z</time></trkpt>
<trkpt lat="48.486474" lon="2.645733"><ele></ele><time>2017-9-19T4:7:35Z</time></trkpt>
<trkpt lat="48.486567" lon="2.645637"><ele></ele><time>2017-9-19T4:7:38Z</time></trkpt>
<trkpt lat="48.486691" lon="2.645589"><ele></ele><time>2017-9-19T4:7:41Z</time></trkpt>
<trkpt lat="48.486799" lon="2.645505"><ele></ele><time>2017-9-19T4:7:44Z</time></trkpt>
<trkpt lat="48.486903" lon="2.645393"><ele></ele><time>2017-9-19T4:7:47Z</time></trkpt>
<trkpt lat="48.487021" lon="2.64528"><ele></ele><time>2017-9-19T4:7:50Z</time></trkpt>
<trkpt lat="48.487131" lon="2.645173"><ele></ele><time>2017-9-19T4:7:53Z</time></trkpt>
<trkpt lat="48.487242" lon="2.645074"><ele></ele><time>2017-9-19T4:7:56Z</time></trkpt>
<trkpt lat="48.487356" lon="2.645012"><ele></ele><time>2017-9-19T4:7:59Z</time></trkpt>
<trkpt lat="48.487444" lon="2.644944"><ele></ele><time>2017-9-19T4:8:2Z</time></trkpt>
<trkpt lat="48.487532" lon="2.644833"><ele></ele><time>2017-9-19T4:8:5Z</time></trkpt>
<trkpt lat="48.487627" lon="2.644766"><ele></ele><time>2017-9-19T4:8:8Z</time></trkpt>
<trkpt lat="48.487743" lon="2.644675"><ele></ele><time>2017-9-19T4:8:11Z</time></trkpt>
<trkpt lat="48.487925" lon="2.644507"><ele></ele><time>2017-9-19T4:8:14Z</time></trkpt>
<trkpt lat="48.488028" lon="2.644419"><ele></ele><time>2017-9-19T4:8:17Z</time></trkpt>
<trkpt lat="48.488126" lon="2.644326"><ele></ele><time>2017-9-19T4:8:20Z</time></trkpt>
<trkpt lat="48.488226" lon="2.64423"><ele></ele><time>2017-9-19T4:8:23Z</time></trkpt>
<trkpt lat="48.488319" lon="2.644147"><ele></ele><time>2017-9-19T4:8:26Z</time></trkpt>
<trkpt lat="48.488407" lon="2.644084"><ele></ele><time>2017-9-19T4:8:29Z</time></trkpt>
<trkpt lat="48.48851" lon="2.644018"><ele></ele><time>2017-9-19T4:8:32Z</time></trkpt>
<trkpt lat="48.488601" lon="2.643971"><ele></ele><time>2017-9-19T4:8:35Z</time></trkpt>
<trkpt lat="48.488677" lon="2.643896"><ele></ele><time>2017-9-19T4:8:38Z</time></trkpt>
<trkpt lat="48.48877" lon="2.643866"><ele></ele><time>2017-9-19T4:8:41Z</time></trkpt>
<trkpt lat="48.488864" lon="2.643826"><ele></ele><time>2017-9-19T4:8:44Z</time></trkpt>
<trkpt lat="48.488969" lon="2.643784"><ele></ele><time>2017-9-19T4:8:47Z</time></trkpt>
<trkpt lat="48.489077" lon="2.64375"><ele></ele><time>2017-9-19T4:8:50Z</time></trkpt>
<trkpt lat="48.489173" lon="2.643687"><ele></ele><time>2017-9-19T4:8:53Z</time></trkpt>
<trkpt lat="48.489274" lon="2.643644"><ele></ele><time>2017-9-19T4:8:56Z</time></trkpt>
<trkpt lat="48.489397" lon="2.643593"><ele></ele><time>2017-9-19T4:8:59Z</time></trkpt>
<trkpt lat="48.489517" lon="2.643569"><ele></ele><time>2017-9-19T4:9:2Z</time></trkpt>
<trkpt lat="48.489589" lon="2.643471"><ele></ele><time>2017-9-19T4:9:5Z</time></trkpt>
<trkpt lat="48.489661" lon="2.643349"><ele></ele><time>2017-9-19T4:9:8Z</time></trkpt>
<trkpt lat="48.489716" lon="2.643083"><ele></ele><time>2017-9-19T4:9:11Z</time></trkpt>
<trkpt lat="48.489734" lon="2.642894"><ele></ele><time>2017-9-19T4:9:14Z</time></trkpt>
<trkpt lat="48.48974" lon="2.64274"><ele></ele><time>2017-9-19T4:9:17Z</time></trkpt>
<trkpt lat="48.489772" lon="2.642607"><ele></ele><time>2017-9-19T4:9:20Z</time></trkpt>
<trkpt lat="48.489827" lon="2.642319"><ele></ele><time>2017-9-19T4:9:23Z</time></trkpt>
<trkpt lat="48.489878" lon="2.642187"><ele></ele><time>2017-9-19T4:9:26Z</time></trkpt>
<trkpt lat="48.489964" lon="2.641997"><ele></ele><time>2017-9-19T4:9:29Z</time></trkpt>
<trkpt lat="48.490029" lon="2.641856"><ele></ele><time>2017-9-19T4:9:32Z</time></trkpt>
<trkpt lat="48.490052" lon="2.641685"><ele></ele><time>2017-9-19T4:9:35Z</time></trkpt>
<trkpt lat="48.490068" lon="2.641528"><ele></ele><time>2017-9-19T4:9:38Z</time></trkpt>
<trkpt lat="48.490082" lon="2.641377"><ele></ele><time>2017-9-19T4:9:41Z</time></trkpt>
<trkpt lat="48.490083" lon="2.641157"><ele></ele><time>2017-9-19T4:9:44Z</time></trkpt>
<trkpt lat="48.490171" lon="2.640985"><ele></ele><time>2017-9-19T4:9:47Z</time></trkpt>
<trkpt lat="48.490264" lon="2.640766"><ele></ele><time>2017-9-19T4:9:50Z</time></trkpt>
<trkpt lat="48.490289" lon="2.640625"><ele></ele><time>2017-9-19T4:9:53Z</time></trkpt>
<trkpt lat="48.490325" lon="2.640427"><ele></ele><time>2017-9-19T4:9:56Z</time></trkpt>
<trkpt lat="48.490356" lon="2.640254"><ele></ele><time>2017-9-19T4:9:59Z</time></trkpt>
<trkpt lat="48.490404" lon="2.640139"><ele></ele><time>2017-9-19T4:10:2Z</time></trkpt>
<trkpt lat="48.490433" lon="2.639983"><ele></ele><time>2017-9-19T4:10:5Z</time></trkpt>
<trkpt lat="48.49053" lon="2.63993"><ele></ele><time>2017-9-19T4:10:8Z</time></trkpt>
<trkpt lat="48.49062" lon="2.639849"><ele></ele><time>2017-9-19T4:10:11Z</time></trkpt>
<trkpt lat="48.490894" lon="2.639653"><ele></ele><time>2017-9-19T4:10:14Z</time></trkpt>
<trkpt lat="48.491002" lon="2.639649"><ele></ele><time>2017-9-19T4:10:17Z</time></trkpt>
<trkpt lat="48.491121" lon="2.639645"><ele></ele><time>2017-9-19T4:10:20Z</time></trkpt>
<trkpt lat="48.491224" lon="2.639568"><ele></ele><time>2017-9-19T4:10:23Z</time></trkpt>
<trkpt lat="48.491356" lon="2.639491"><ele></ele><time>2017-9-19T4:10:26Z</time></trkpt>
<trkpt lat="48.491487" lon="2.639439"><ele></ele><time>2017-9-19T4:10:29Z</time></trkpt>
<trkpt lat="48.491634" lon="2.63943"><ele></ele><time>2017-9-19T4:10:32Z</time></trkpt>
<trkpt lat="48.491755" lon="2.639435"><ele></ele><time>2017-9-19T4:10:35Z</time></trkpt>
<trkpt lat="48.491851" lon="2.639401"><ele></ele><time>2017-9-19T4:10:38Z</time></trkpt>
<trkpt lat="48.491954" lon="2.639354"><ele></ele><time>2017-9-19T4:10:41Z</time></trkpt>
<trkpt lat="48.492047" lon="2.63926"><ele></ele><time>2017-9-19T4:10:44Z</time></trkpt>
<trkpt lat="48.492194" lon="2.639182"><ele></ele><time>2017-9-19T4:10:47Z</time></trkpt>
<trkpt lat="48.492317" lon="2.639146"><ele></ele><time>2017-9-19T4:10:50Z</time></trkpt>
<trkpt lat="48.492414" lon="2.639117"><ele></ele><time>2017-9-19T4:10:53Z</time></trkpt>
<trkpt lat="48.492535" lon="2.639093"><ele></ele><time>2017-9-19T4:10:56Z</time></trkpt>
<trkpt lat="48.49272" lon="2.639013"><ele></ele><time>2017-9-19T4:10:59Z</time></trkpt>
<trkpt lat="48.492835" lon="2.638995"><ele></ele><time>2017-9-19T4:11:2Z</time></trkpt>
<trkpt lat="48.492934" lon="2.638948"><ele></ele><time>2017-9-19T4:11:5Z</time></trkpt>
<trkpt lat="48.493052" lon="2.638886"><ele></ele><time>2017-9-19T4:11:8Z</time></trkpt>
<trkpt lat="48.493184" lon="2.638835"><ele></ele><time>2017-9-19T4:11:11Z</time></trkpt>
<trkpt lat="48.493387" lon="2.638723"><ele></ele><time>2017-9-19T4:11:14Z</time></trkpt>
<trkpt lat="48.493497" lon="2.638615"><ele></ele><time>2017-9-19T4:11:17Z</time></trkpt>
<trkpt lat="48.493598" lon="2.638513"><ele></ele><time>2017-9-19T4:11:20Z</time></trkpt>
<trkpt lat="48.493798" lon="2.638293"><ele></ele><time>2017-9-19T4:11:23Z</time></trkpt>
<trkpt lat="48.493896" lon="2.638175"><ele></ele><time>2017-9-19T4:11:26Z</time></trkpt>
<trkpt lat="48.493994" lon="2.638052"><ele></ele><time>2017-9-19T4:11:29Z</time></trkpt>
<trkpt lat="48.494103" lon="2.63793"><ele></ele><time>2017-9-19T4:11:32Z</time></trkpt>
<trkpt lat="48.49421" lon="2.637803"><ele></ele><time>2017-9-19T4:11:35Z</time></trkpt>
<trkpt lat="48.494317" lon="2.637672"><ele></ele><time>2017-9-19T4:11:38Z</time></trkpt>
<trkpt lat="48.494427" lon="2.637542"><ele></ele><time>2017-9-19T4:11:41Z</time></trkpt>
<trkpt lat="48.494539" lon="2.63741"><ele></ele><time>2017-9-19T4:11:44Z</time></trkpt>
<trkpt lat="48.494645" lon="2.63727"><ele></ele><time>2017-9-19T4:11:47Z</time></trkpt>
<trkpt lat="48.494759" lon="2.637136"><ele></ele><time>2017-9-19T4:11:50Z</time></trkpt>
<trkpt lat="48.494867" lon="2.637005"><ele></ele><time>2017-9-19T4:11:53Z</time></trkpt>
<trkpt lat="48.494972" lon="2.636873"><ele></ele><time>2017-9-19T4:11:56Z</time></trkpt>
<trkpt lat="48.49508" lon="2.636743"><ele></ele><time>2017-9-19T4:11:59Z</time></trkpt>
<trkpt lat="48.495187" lon="2.636612"><ele></ele><time>2017-9-19T4:12:2Z</time></trkpt>
<trkpt lat="48.495294" lon="2.636479"><ele></ele><time>2017-9-19T4:12:5Z</time></trkpt>
<trkpt lat="48.495403" lon="2.636342"><ele></ele><time>2017-9-19T4:12:8Z</time></trkpt>
<trkpt lat="48.495512" lon="2.636209"><ele></ele><time>2017-9-19T4:12:11Z</time></trkpt>
<trkpt lat="48.495621" lon="2.63608"><ele></ele><time>2017-9-19T4:12:14Z</time></trkpt>
<trkpt lat="48.495722" lon="2.63595"><ele></ele><time>2017-9-19T4:12:17Z</time></trkpt>
<trkpt lat="48.495824" lon="2.635829"><ele></ele><time>2017-9-19T4:12:20Z</time></trkpt>
<trkpt lat="48.495918" lon="2.635709"><ele></ele><time>2017-9-19T4:12:23Z</time></trkpt>
<trkpt lat="48.496011" lon="2.635611"><ele></ele><time>2017-9-19T4:12:26Z</time></trkpt>
<trkpt lat="48.496103" lon="2.635487"><ele></ele><time>2017-9-19T4:12:29Z</time></trkpt>
<trkpt lat="48.496182" lon="2.635379"><ele></ele><time>2017-9-19T4:12:32Z</time></trkpt>
<trkpt lat="48.496249" lon="2.635286"><ele></ele><time>2017-9-19T4:12:35Z</time></trkpt>
<trkpt lat="48.496322" lon="2.635201"><ele></ele><time>2017-9-19T4:12:38Z</time></trkpt>
<trkpt lat="48.496402" lon="2.635094"><ele></ele><time>2017-9-19T4:12:41Z</time></trkpt>
<trkpt lat="48.496492" lon="2.634982"><ele></ele><time>2017-9-19T4:12:44Z</time></trkpt>
<trkpt lat="48.496662" lon="2.634797"><ele></ele><time>2017-9-19T4:12:47Z</time></trkpt>
<trkpt lat="48.496662" lon="2.634661"><ele></ele><time>2017-9-19T4:12:50Z</time></trkpt>
<trkpt lat="48.496647" lon="2.634598"><ele></ele><time>2017-9-19T4:12:53Z</time></trkpt>
</trkseg></trk></gpx>